[[{"header":{"parameterUnit":"m.s-1","parameterCategory":1,"la1":30.6,"la2":29.2853,"lo1":-89.7004,"lo2":-87.6739,"dy":0.0162,"dx":0.0183,"nx":112,"ny":82,"refTime":"2023-05-03T00:00:00:Z","depth":0,"parameterNumber":2,"parameterNumberName":"U-component_of_WINDS"},"data":[0.0,0.0,0.0,0.0,0.0,0.0,0.0,0.0,0.0,0.0,0.0,0.0,0.0,0.0,0.0,0.0,0.0,0.0,0.0,0.0,0.0,0.0,0.0,0.0,0.0,0.0,0.0,0.0,0.0,0.0,0.0,0.0,0.0,0.0,0.0,0.0,0.0,0.0,0.0,0.0,0.0,0.0,0.0,0.0,0.0,0.0,0.0,0.0,0.0,0.0,0.0,0.0,0.0,0.0,0.0,0.0,0.0,0.0,0.0,0.0,0.0,0.0,0.0,0.0,0.0,0.0,0.0,0.0,0.0,0.0,0.0,0.0,0.0,0.0,0.0,0.0,0.0,0.0,0.0,0.0,0.0,0.0,0.0,0.0,0.0,0.0,0.0,0.0,0.0,0.0,0.0,-0.0874,-0.3743,-0.6233,-0.7935,-0.8718,-1.0143,-1.2509,0.0,0.0,0.0,0.0,0.0,0.0,0.0,0.0,0.0,0.0,0.0,0.0,0.0,0.0,0.0,0.0,0.0,0.0,0.0,0.0,0.0,0.0,0.0,0.0,0.0,0.0,0.0,0.0,0.0,0.0,0.0,0.0,0.0,0.0,0.0,0.0,0.0,0.0,0.0,0.0,0.0,0.0,0.0,0.0,0.0,0.0,0.0,0.0,0.0,0.0,0.0,0.0,0.0,0.0,0.0,0.0,0.0,0.0,0.0,0.0,0.0,0.0,0.0,0.0,0.0,0.0,0.0,0.0,0.0,0.0,0.0,0.0,0.0,0.0,0.0,0.0,0.0,0.0,0.0,0.0,0.0,0.0,0.0,0.0,0.0,0.0,0.0,0.0,0.0,0.0,0.0,0.0,0.0,0.0,0.0,0.0,0.0,0.0,0.0,0.0,0.0,0.0,0.0,0.0,-0.162,-0.4111,-0.5571,-0.6795,-0.7982,-0.8838,-1.028,-1.2709,0.0,0.0,0.0,0.0,0.0,0.0,0.0,0.0,0.0,0.0,0.0,0.0,0.0,0.0,0.0,0.0,0.0,0.0,0.0,0.0,0.0,0.0,0.0,0.0,0.0,0.0,0.0,0.0,0.0,0.0,0.0,0.0,0.0,0.0,0.0,0.0,0.0,0.0,0.0,0.0,0.0,0.0,0.0,0.0,0.0,0.0,0.0,0.0,0.0,0.0,0.0,0.0,0.0,0.0,0.0,0.0,0.0,0.0,0.0,0.0,0.0,0.0,0.0,0.0,0.0,0.0,0.0,0.0,0.0,0.0,0.0,0.0,0.0,0.0,0.0,0.0,0.0,0.0,0.0,0.0,0.0,0.0,0.0,0.0,0.0,0.0,0.0,0.0,0.0,0.0,0.0,0.0,0.0,0.0,0.0,0.0,0.0,0.0,0.0,0.0,0.0,0.0,0.0,-0.3309,-0.4457,-0.6107,-0.6768,-0.766,-0.9189,-0.9569,-1.0718,-1.3212,-1.3652,0.0,0.0,0.0,0.0,0.0,0.0,0.0,0.0,0.0,0.0,0.0,0.0,0.0,0.0,0.0,0.0,0.0,0.0,0.0,0.0,0.0,0.0,0.0,0.0,0.0,0.0,0.0,0.0,0.0,0.0,0.0,0.0,0.0,0.0,0.0,0.0,0.0,0.0,0.0,0.0,0.0,0.0,0.0,0.0,0.0,0.0,0.0,0.0,0.0,0.0,0.0,0.0,0.0,0.0,0.0,0.0,0.0,0.0,0.0,0.0,0.0,0.0,0.0,0.0,0.0,0.0,0.0,0.0,0.0,0.0,0.0,0.0,0.0,0.0,0.0,0.0,0.0,0.0,0.0,0.0,0.0,0.0,0.0,0.0,0.0,0.0,0.0,0.0,0.0,0.0,0.0,0.0,0.0,0.0,0.0,0.0,0.0,0.0,0.0,0.0,0.0,0.0,-0.5973,-0.6342,-0.7234,-0.7623,-0.8493,-1.0265,-1.0158,-1.1166,-1.3852,-1.3861,0.0,0.0,0.0,0.0,0.0,0.0,0.0,0.0,0.0,0.0,0.0,0.0,0.0,0.0,0.0,0.0,0.0,0.0,0.0,0.0,0.0,0.0,0.0,0.0,0.0,0.0,0.0,0.0,0.0,0.0,0.0,0.0,0.0,0.0,0.0,0.0,0.0,0.0,0.0,0.0,0.0,0.0,0.0,0.0,0.0,0.0,0.0,0.0,0.0,0.0,0.0,0.0,0.0,0.0,0.0,0.0,0.0,0.0,0.0,0.0,0.0,0.0,0.0,0.0,0.0,0.0,0.0,0.0,0.0,0.0,0.0,0.0,0.0,0.0,0.0,0.0,0.0,0.0,0.0,0.0,0.0,0.0,0.0,0.0,0.0,0.0,0.0,0.0,0.0,0.0,0.0,0.0,0.0,0.0,0.0,0.0,0.0,0.0,0.0,0.0,0.0,0.0,-0.5891,-0.6462,-0.7195,-0.8153,-0.9196,-1.0313,-1.0165,-1.1344,-1.4437,-1.3899,0.0,0.0,0.0,0.0,0.0,0.0,0.0,0.0,0.0,0.0,0.0,0.0,0.0,0.0,0.0,0.0,0.0,0.0,0.0,0.0,0.0,0.0,0.0,0.0,0.0,0.0,0.0,0.0,0.0,0.0,0.0,0.0,0.0,0.0,0.0,0.0,0.0,0.0,0.0,0.0,0.0,0.0,0.0,0.0,0.0,0.0,0.0,0.0,0.0,0.0,0.0,0.0,0.0,0.0,0.0,0.0,0.0,0.0,0.0,0.0,0.0,0.0,0.0,0.0,0.0,0.0,0.0,0.0,0.0,0.0,0.0,0.0,0.0,0.0,0.0,0.0,0.0,0.0,0.0,0.0,0.0,0.0,0.0,0.0,0.0,0.0,0.0,0.0,0.0,0.0,0.0,0.0,0.0,0.0,0.0,0.0,0.0,0.0,0.0,0.0,0.0,0.0,-0.7052,-0.7961,0.0,-0.9316,-1.0071,-1.1095,-1.0954,-1.1759,-1.402,0.0,0.0,0.0,0.0,0.0,0.0,0.0,0.0,0.0,0.0,0.0,0.0,0.0,0.0,0.0,0.0,0.0,0.0,0.0,0.0,0.0,0.0,0.0,0.0,0.0,0.0,0.0,0.0,0.0,0.0,0.0,0.0,0.0,0.0,0.0,0.0,0.0,0.0,0.0,0.0,0.0,0.0,0.0,0.0,0.0,0.0,0.0,0.0,0.0,0.0,0.0,0.0,0.0,0.0,0.0,0.0,0.0,0.0,0.0,0.0,0.0,0.0,0.0,0.0,0.0,0.0,0.0,0.0,0.0,0.0,0.0,0.0,0.0,0.0,0.0,0.0,0.0,0.0,0.0,0.0,0.0,0.0,0.0,0.0,0.0,0.0,0.0,0.0,0.0,0.0,0.0,0.0,0.0,0.0,0.0,0.0,0.0,0.0,0.0,0.0,0.0,0.0,-0.6992,-0.797,-0.889,0.0,-1.0059,-1.0631,-1.1643,-1.1178,-1.1684,-1.3685,0.0,0.0,0.0,0.0,0.0,0.0,0.0,0.0,0.0,0.0,0.0,0.0,0.0,0.0,0.0,0.0,0.0,0.0,0.0,0.0,0.0,0.0,0.0,0.0,0.0,0.0,0.0,0.0,0.0,0.0,0.0,0.0,0.0,0.0,0.0,0.0,0.0,0.0,0.0,0.0,0.0,0.0,0.0,0.0,0.0,0.0,0.0,0.0,0.0,0.0,0.0,0.0,0.0,0.0,0.0,0.0,0.0,0.0,0.0,0.0,0.0,0.0,0.0,0.0,0.0,0.0,0.0,0.0,0.0,0.0,0.0,0.0,0.0,0.0,0.0,0.0,0.0,0.0,0.0,0.0,0.0,0.0,0.0,0.0,0.0,0.0,0.0,0.0,0.0,0.0,0.0,0.0,0.0,0.0,0.0,0.0,0.0,0.0,0.0,0.0,0.0,0.0,-0.7942,-0.8457,-0.8985,-0.9995,-1.0408,-1.0911,-1.1643,-1.0562,-1.0939,0.0,0.0,0.0,0.0,0.0,0.0,0.0,0.0,0.0,0.0,0.0,0.0,0.0,0.0,0.0,0.0,0.0,0.0,0.0,0.0,0.0,0.0,0.0,0.0,0.0,0.0,0.0,0.0,0.0,0.0,0.0,0.0,0.0,0.0,0.0,0.0,0.0,0.0,0.0,0.0,0.0,0.0,0.0,0.0,0.0,0.0,0.0,0.0,0.0,0.0,0.0,0.0,0.0,0.0,0.0,0.0,0.0,0.0,0.0,0.0,0.0,0.0,0.0,0.0,0.0,0.0,0.0,0.0,0.0,0.0,0.0,0.0,0.0,0.0,0.0,0.0,0.0,0.0,0.0,0.0,0.0,0.0,0.0,0.0,0.0,0.0,0.0,0.0,0.0,0.0,0.0,0.0,0.0,0.0,0.0,0.0,0.0,0.0,0.0,0.0,0.0,0.0,0.0,-0.8126,-0.8896,-0.9594,-1.004,-1.0885,-1.1341,-1.1038,-1.1339,-1.1612,-1.1683,0.0,0.0,0.0,0.0,0.0,0.0,0.0,0.0,0.0,0.0,0.0,0.0,0.0,0.0,0.0,0.0,0.0,0.0,0.0,0.0,0.0,0.0,0.0,0.0,0.0,0.0,0.0,0.0,0.0,0.0,0.0,0.0,0.0,0.0,0.0,0.0,0.0,0.0,0.0,0.0,0.0,0.0,0.0,0.0,0.0,0.0,0.0,0.0,0.0,0.0,0.0,0.0,0.0,0.0,0.0,0.0,0.0,0.0,0.0,0.0,0.0,0.0,0.0,0.0,0.0,0.0,0.0,0.0,0.0,0.0,0.0,0.0,0.0,0.0,0.0,0.0,0.0,0.0,0.0,0.0,0.0,0.0,0.0,0.0,0.0,0.0,0.0,0.0,0.0,0.0,0.0,0.0,0.0,0.0,0.0,0.0,0.0,0.0,0.0,0.0,0.0,0.0,-0.9137,-0.9549,-0.9952,-1.0674,-1.1403,-1.1494,-1.0746,-1.144,-1.1527,-1.0676,0.0,0.0,0.0,0.0,0.0,0.0,0.0,0.0,0.0,0.0,0.0,0.0,0.0,0.0,0.0,0.0,0.0,0.0,0.0,0.0,0.0,0.0,0.0,0.0,0.0,0.0,0.0,0.0,0.0,0.0,0.0,0.0,0.0,0.0,0.0,0.0,0.0,0.0,0.0,0.0,0.0,0.0,0.0,0.0,0.0,0.0,0.0,0.0,0.0,0.0,0.0,0.0,0.0,0.0,0.0,0.0,0.0,0.0,0.0,0.0,0.0,0.0,0.0,0.0,0.0,0.0,0.0,0.0,0.0,0.0,0.0,0.0,0.0,0.0,0.0,0.0,0.0,0.0,0.0,0.0,0.0,0.0,0.0,0.0,0.0,0.0,0.0,0.0,0.0,0.0,0.0,0.0,0.0,0.0,0.0,0.0,0.0,0.0,0.0,0.0,0.0,0.0,-1.0526,-1.0128,-1.0178,-1.157,-1.1747,-1.1466,-1.0666,-1.1034,-1.1011,-1.0271,0.0,0.0,0.0,0.0,0.0,0.0,0.0,0.0,0.0,0.0,0.0,0.0,0.0,0.0,0.0,0.0,0.0,0.0,0.0,0.0,0.0,0.0,0.0,0.0,0.0,0.0,0.0,0.0,0.0,0.0,0.0,0.0,0.0,0.0,0.0,0.0,0.0,0.0,0.0,0.0,0.0,0.0,0.0,0.0,0.0,0.0,0.0,0.0,0.0,0.0,0.0,0.0,0.0,0.0,0.0,0.0,0.0,0.0,0.0,0.0,-1.3262,0.0,0.0,0.0,0.0,0.0,0.0,0.0,0.0,0.0,0.0,0.0,0.0,0.0,0.0,0.0,0.0,0.0,0.0,0.0,0.0,0.0,0.0,0.0,0.0,0.0,0.0,0.0,0.0,0.0,0.0,0.0,0.0,0.0,0.0,0.0,0.0,0.0,0.0,0.0,0.0,0.0,-0.9879,-0.9795,-0.9979,-1.078,-1.1413,-1.1306,-1.0034,-1.0783,-1.0606,-0.8912,-0.9469,0.0,0.0,0.0,0.0,0.0,0.0,0.0,0.0,0.0,0.0,0.0,0.0,0.0,0.0,0.0,0.0,0.0,0.0,0.0,0.0,0.0,0.0,0.0,0.0,0.0,0.0,0.0,0.0,0.0,0.0,0.0,0.0,0.0,0.0,0.0,0.0,0.0,0.0,0.0,0.0,0.0,0.0,0.0,0.0,0.0,0.0,0.0,0.0,0.0,0.0,0.0,0.0,0.0,0.0,0.0,0.0,0.0,0.0,0.0,0.0,-1.4092,0.0,0.0,0.0,0.0,0.0,0.0,0.0,0.0,0.0,0.0,0.0,0.0,0.0,0.0,0.0,0.0,0.0,0.0,0.0,0.0,0.0,0.0,0.0,0.0,0.0,0.0,0.0,0.0,0.0,0.0,0.0,0.0,0.0,0.0,0.0,0.0,0.0,0.0,0.0,0.0,-1.0215,-0.9962,-1.0078,-1.1037,-1.1524,-1.1207,-0.9849,-1.0598,-1.0334,-0.8527,-0.8933,0.0,0.0,0.0,0.0,0.0,0.0,0.0,0.0,0.0,0.0,0.0,0.0,0.0,0.0,0.0,0.0,0.0,0.0,0.0,0.0,0.0,0.0,0.0,0.0,0.0,0.0,0.0,0.0,0.0,0.0,0.0,0.0,0.0,0.0,0.0,0.0,0.0,0.0,0.0,0.0,0.0,0.0,0.0,0.0,0.0,0.0,0.0,0.0,0.0,0.0,0.0,0.0,0.0,-1.8326,-1.8372,-1.8113,-1.7912,-1.6994,-1.5521,-1.4733,-1.4019,-1.3448,0.0,0.0,0.0,0.0,0.0,0.0,0.0,0.0,0.0,0.0,0.0,0.0,0.0,0.0,0.0,0.0,0.0,0.0,0.0,0.0,0.0,0.0,0.0,0.0,0.0,-1.0954,-1.1888,0.0,0.0,0.0,0.0,0.0,0.0,0.0,0.0,0.0,0.0,0.0,0.0,-1.0549,-1.0177,-1.0251,-1.1465,-1.1586,-1.1113,-0.9865,-1.0329,-1.0064,-0.854,-0.8626,-0.8644,0.0,0.0,0.0,0.0,0.0,0.0,0.0,0.0,0.0,0.0,0.0,0.0,0.0,0.0,0.0,0.0,0.0,0.0,0.0,0.0,0.0,0.0,0.0,0.0,0.0,0.0,0.0,0.0,0.0,0.0,0.0,0.0,-0.6684,-0.8451,0.0,0.0,0.0,0.0,0.0,0.0,0.0,0.0,0.0,0.0,0.0,0.0,0.0,0.0,-1.7431,-1.9147,-2.0092,-2.0232,-2.0275,-2.0229,-2.0163,-1.9101,-1.8532,-1.8238,-1.7187,0.0,-1.4293,-1.3422,0.0,0.0,0.0,0.0,0.0,0.0,0.0,0.0,0.0,0.0,0.0,0.0,0.0,0.0,0.0,0.0,0.0,0.0,0.0,0.0,0.0,0.0,-0.998,-1.1399,-1.2315,-1.3195,0.0,-1.3113,-1.1403,-1.1141,-1.0921,0.0,0.0,0.0,0.0,0.0,0.0,0.0,-0.9863,-0.9959,-1.0248,-1.071,-1.0744,-1.0546,-1.0087,-0.9944,-0.9538,-0.8785,-0.858,-0.843,-0.8404,-0.841,0.0,0.0,0.0,0.0,0.0,0.0,0.0,0.0,0.0,0.0,0.0,0.0,0.0,0.0,0.0,0.0,0.0,0.0,0.0,0.0,0.0,0.0,0.0,0.0,0.0,0.0,0.0,0.0,0.0,-0.7737,-1.1808,-1.3365,-1.2331,-1.1773,0.0,0.0,0.0,0.0,0.0,0.0,0.0,0.0,0.0,-1.7996,-1.8806,-1.9325,-1.9547,-2.0919,-2.1744,-2.2058,-2.2387,-2.2433,-2.2193,-2.1694,-2.0888,-1.9909,-1.9406,-1.8148,-1.6216,-1.4602,-1.3915,-1.3805,0.0,0.0,0.0,0.0,-1.2702,-1.3182,-1.2821,-1.3074,0.0,0.0,0.0,0.0,0.0,0.0,0.0,0.0,0.0,0.0,0.0,0.0,0.0,-1.2071,-1.3355,-1.4486,-1.4888,-1.4257,-1.3341,0.0,-1.1464,-1.0468,-1.0621,0.0,0.0,0.0,0.0,0.0,-1.1191,-1.0625,-1.0404,-1.119,-1.0863,-1.0374,-0.9913,-0.9753,-0.9432,-0.8844,-0.8692,-0.8778,-0.9183,-0.883,-0.8837,0.0,0.0,0.0,0.0,0.0,0.0,0.0,0.0,0.0,0.0,0.0,0.0,0.0,0.0,0.0,0.0,0.0,0.0,0.0,0.0,0.0,0.0,0.0,0.0,0.0,0.0,0.0,0.0,-1.2637,-1.5665,-1.6922,-1.5669,-1.5003,0.0,0.0,0.0,0.0,0.0,0.0,-1.9304,-1.9311,-1.9775,-2.0888,-2.1362,-2.1691,-2.1832,-2.2804,-2.3561,-2.4103,-2.4545,-2.4626,-2.4311,-2.4177,-2.3341,-2.1987,-2.1602,-2.0565,-1.8937,-1.6162,-1.4744,-1.4222,-1.3361,-1.3105,-1.3143,-1.2604,-1.2953,-1.3559,-1.3081,-1.3436,-1.4048,-1.3896,0.0,-1.3489,-1.3068,0.0,0.0,0.0,0.0,-1.0037,-1.0494,-1.1473,-1.2563,-1.3195,-1.4615,-1.5773,-1.5589,-1.5534,-1.5123,0.0,-1.2284,-1.1078,-1.109,0.0,0.0,0.0,0.0,-1.0578,-1.2107,-1.1248,-1.0786,-1.1439,-1.0989,-1.0354,-0.984,-0.9894,-0.9629,-0.8951,-0.9148,-0.9465,-0.9762,-0.9465,-0.9465,-0.9814,0.0,0.0,0.0,0.0,0.0,0.0,0.0,0.0,0.0,0.0,0.0,0.0,0.0,0.0,0.0,0.0,0.0,0.0,0.0,0.0,0.0,0.0,0.0,0.0,0.0,0.0,0.0,0.0,0.0,-1.5854,-1.6486,0.0,0.0,0.0,0.0,-1.8753,-2.0036,-2.1338,-2.2601,-2.246,-2.2668,-2.3382,-2.383,-2.4316,-2.4849,-2.564,-2.6281,-2.6806,-2.6857,-2.6761,-2.6544,-2.6013,-2.5602,-2.5253,-2.3692,-2.2955,-2.2499,-1.7934,-1.5648,-1.5017,-1.3921,-1.3721,-1.4019,-1.4009,-1.4029,-1.4048,-1.4048,-1.4058,-1.4145,-1.459,-1.4316,-1.3727,-1.3205,-1.2587,0.0,0.0,-1.195,-1.2116,-1.2829,-1.3293,-1.3941,-1.5521,-1.6215,-1.6798,-1.7677,-1.7151,-1.599,0.0,-1.3716,-1.3438,-1.277,0.0,-1.2705,-1.2117,-1.2257,-1.2198,-1.1449,-1.1548,-1.1447,-1.0744,-1.0624,-1.0434,-1.012,-1.0406,-1.0208,-0.9232,-1.0136,-1.0415,-0.9814,-1.0364,-1.0415,-0.9814,-0.9762,0.0,0.0,0.0,0.0,0.0,0.0,0.0,0.0,0.0,0.0,0.0,0.0,0.0,0.0,0.0,0.0,0.0,0.0,0.0,0.0,0.0,0.0,0.0,0.0,0.0,0.0,0.0,0.0,-1.9905,-2.0557,0.0,0.0,-2.1434,-2.1628,-2.3065,-2.2908,-2.3653,-2.5816,-2.5846,-2.6427,-2.7904,-2.7961,-2.8319,-2.8904,-2.9169,-2.8963,-2.833,-2.8262,-2.7808,-2.6863,-2.6671,-2.6378,-2.593,-2.519,-2.4305,-2.3097,-2.0843,-1.8987,-1.742,-1.5902,-1.5185,-1.4966,-1.4546,-1.463,-1.4879,-1.4879,-1.5014,-1.5243,-1.5002,-1.4785,-1.4467,-1.3746,-1.3534,-1.3553,-1.3254,-1.3201,-1.3319,-1.376,-1.4543,-1.542,-1.631,-1.7241,-1.8046,-1.8699,-1.8605,-1.8019,-1.7086,-1.5411,-1.4188,-1.4248,-1.3756,-1.3471,-1.3954,-1.3623,-1.3648,-1.4306,-1.3566,-1.2945,-1.2895,-1.2451,-1.1745,-1.0675,-1.1138,-1.0942,-0.9659,-0.9925,-1.0415,-1.1065,-1.0064,-1.002,-1.1065,-0.9814,-0.9256,0.0,0.0,0.0,0.0,0.0,0.0,0.0,0.0,0.0,0.0,0.0,0.0,0.0,0.0,0.0,0.0,0.0,0.0,0.0,0.0,0.0,0.0,0.0,0.0,0.0,0.0,-2.2555,-2.385,-2.4619,-2.5376,-2.6294,-2.5544,-2.5523,-2.6847,-2.6401,-2.7003,-2.9239,-2.9294,-2.9764,-3.103,-3.0887,-3.1003,-3.1362,-3.1268,-3.0842,-3.016,-2.9686,-2.8892,-2.7756,-2.7485,-2.7066,-2.6447,-2.6123,-2.5384,-2.4264,-2.343,-2.204,-2.0238,-1.8136,-1.6983,-1.646,-1.5813,-1.5698,-1.5776,-1.5563,-1.5662,-1.5806,-1.5449,-1.5392,-1.5444,-1.4801,-1.4968,-1.5224,-1.4863,-1.4746,-1.4843,-1.5242,-1.6024,-1.684,-1.7269,-1.8113,-1.8936,-1.9219,-1.9287,-1.9209,-1.8916,-1.7083,-1.5608,-1.5869,-1.5139,-1.4771,-1.5551,-1.5132,-1.507,-1.5828,-1.4935,-1.4147,-1.4022,-1.349,-1.2655,-1.1357,-1.1736,-1.1509,-1.0213,-1.0482,-1.1005,-1.1774,-1.0894,-1.0851,-1.1765,-1.0064,-0.9361,-0.9814,0.0,0.0,0.0,0.0,0.0,0.0,0.0,0.0,0.0,0.0,0.0,0.0,0.0,0.0,0.0,0.0,0.0,0.0,0.0,0.0,0.0,0.0,0.0,-2.4026,-2.561,-2.6994,-2.7304,-2.8469,-2.9055,-2.854,-2.91,-2.9601,-2.9962,-3.0577,-3.1502,-3.2949,-3.2811,-3.2616,-3.2611,-3.2459,-3.2368,-3.2192,-3.1819,-3.1871,-3.2436,-3.1089,-3.0093,-2.9322,-2.8523,-2.7756,-2.7011,-2.6447,-2.6191,-2.614,-2.5563,-2.4617,-2.3207,-2.0463,-1.9041,-1.8474,-1.7875,-1.7284,-1.6775,-1.6181,-1.5972,-1.5972,-1.5934,-1.6274,-1.6628,-1.6407,-1.6663,-1.702,-1.685,-1.6787,-1.6894,-1.7334,-1.7744,-1.8154,-1.8574,-1.8994,-1.9307,-1.9326,-1.9326,-1.9326,-1.9307,-1.8633,-1.793,-1.75,-1.707,-1.6787,-1.6714,-1.6714,0.0,-1.567,-1.5542,-1.5058,-1.3849,-1.368,-1.323,-1.2074,-1.2266,-1.201,-1.0904,-1.1748,-1.2144,-1.1832,-1.283,-1.2909,-1.1774,-1.0466,-0.9814,-0.9762,0.0,0.0,0.0,0.0,0.0,0.0,0.0,0.0,0.0,0.0,0.0,0.0,0.0,0.0,0.0,0.0,0.0,0.0,0.0,0.0,0.0,0.0,-2.9148,-2.7173,-2.932,-3.1027,-3.0791,-3.3033,-3.4134,-3.306,-3.3184,-3.3545,-3.4036,-3.3447,-3.3662,-3.4998,-3.4622,-3.457,-3.5003,-3.4872,-3.4743,-3.4677,-3.4507,-3.3981,-3.32,-3.2815,-3.1724,-3.0052,-2.943,-2.869,-2.7988,-2.7281,-2.6736,-2.6323,-2.6051,-2.5448,-2.4418,-2.2408,-2.0997,-1.992,-1.892,-1.8182,-1.771,-1.7556,-1.7501,-1.7445,-1.7248,-1.7497,-1.7809,-1.7529,-1.7686,-1.7972,-1.8221,-1.8174,-1.8213,-1.8652,-1.8848,-1.9043,-1.9463,-1.9658,-1.9824,-2.0146,-2.0215,-2.0117,-1.9805,-1.9551,-1.916,-1.8418,-1.8193,-1.8008,-1.7705,-1.7656,0.0,-1.6965,-1.6862,-1.6625,-1.5942,-1.5832,-1.5253,-1.3835,-1.3956,-1.3525,-1.2121,-1.1992,-1.2149,-1.2569,-1.1941,-1.1175,-1.0364,-1.0466,-1.0064,0.0,0.0,0.0,0.0,0.0,0.0,0.0,0.0,0.0,0.0,0.0,0.0,0.0,0.0,0.0,0.0,0.0,0.0,0.0,0.0,0.0,0.0,-3.1564,-3.3241,-3.2643,-3.3921,-3.4831,-3.4524,-3.633,-3.7213,-3.6229,-3.6173,-3.6477,-3.7036,-3.5963,-3.5752,-3.6864,-3.6088,-3.5766,-3.607,-3.5906,-3.5808,-3.5664,-3.5584,-3.51,-3.4309,-3.4003,-3.3111,-3.1685,-3.0664,-2.9834,0.0,-2.8468,-2.7793,-2.7233,-2.7126,-2.6515,0.0,0.0,0.0,0.0,0.0,-1.8946,-1.838,-1.8173,-1.8093,-1.8118,-1.8181,-1.832,-1.8437,-1.8417,-1.843,-1.8562,-1.8854,-1.8844,-1.8801,-1.917,-1.9424,-1.9609,-1.9853,-2.0059,-2.0254,-2.0508,-2.0566,-2.0488,-2.0234,-2.0185,0.0,-1.9287,-1.9023,-1.8769,-1.834,-1.8271,-1.8115,-1.7705,-1.7646,-1.748,-1.7051,-1.7002,-1.6374,-1.4959,-1.4647,0.0,0.0,0.0,-1.2347,-1.3145,-1.219,0.0,0.0,0.0,-1.0415,-0.9614,0.0,0.0,0.0,-0.9319,-0.933,0.0,0.0,0.0,0.0,0.0,0.0,0.0,0.0,0.0,0.0,0.0,0.0,0.0,0.0,0.0,0.0,-3.5104,-3.7422,-3.9148,-3.9046,-3.86,-3.8111,-3.8821,-3.9103,-3.8291,-3.8465,-3.8809,-3.9208,-3.8216,-3.7873,-3.8489,0.0,0.0,0.0,0.0,-3.6034,-3.5752,-3.5604,-3.5504,-3.5504,-3.4758,-3.4103,-3.3514,-3.2123,-3.1116,-3.0473,-2.9767,-2.9114,-2.8546,-2.8546,-2.7824,-2.657,-2.5512,-2.4305,-2.289,-2.0905,-1.9781,-1.9156,-1.8646,0.0,0.0,-1.902,-1.903,-1.894,-1.9236,-1.9156,-1.9049,-1.9133,-1.9083,-1.909,-1.9389,-1.9707,-1.999,-1.999,-2.0283,-2.0566,-2.0566,-2.0566,-2.0566,-2.0566,-2.0566,-2.0439,-2.0059,-1.9639,-1.9209,-1.8779,-1.8711,-1.8555,-1.8135,-1.8076,-1.792,-1.75,0.0,0.0,-1.5674,-1.4849,-1.4201,-1.3679,-1.2874,-1.2767,-1.3455,-1.3105,-1.3057,-1.3316,-1.165,-1.0787,-1.0726,-0.9688,-0.9216,-0.9296,-0.984,-1.0087,0.0,0.0,0.0,0.0,0.0,0.0,0.0,0.0,0.0,0.0,0.0,0.0,0.0,0.0,0.0,-3.6481,-3.8793,-4.0965,-4.3222,-4.4014,-4.3141,-3.9875,-4.125,-4.1587,-3.935,-4.0743,-4.1512,-4.0815,-4.0176,-3.9865,-4.0011,-3.8764,0.0,-3.7259,-3.7085,-3.6633,-3.5973,-3.5767,-3.5604,-3.5504,0.0,0.0,-3.4124,-3.335,-3.2312,-3.1002,-3.0623,-3.0021,-2.9372,-2.9512,-2.9101,-2.805,-2.5961,-2.438,-2.3292,-2.2655,-2.1853,-2.0958,-2.0859,-2.0822,-2.0853,-2.0851,-2.0784,-2.0781,-2.0762,-2.0424,0.0,-2.0652,-2.0339,-2.0064,-2.0453,-2.0544,-2.0439,-2.0439,-2.0508,-2.0566,-2.0566,-2.0566,-2.0566,-2.0566,-2.0566,-2.0537,-2.0449,-2.0078,-1.9648,-1.9228,-1.916,-1.9004,-1.8574,-1.8446,-1.835,-1.7939,-1.7891,-1.751,-1.6553,-1.602,-1.541,-1.46,-1.3729,-1.3352,-1.3506,-1.3105,-1.2656,-1.214,-1.1259,-1.0653,-1.0371,-0.9583,-0.9429,-0.9947,-0.9826,-0.9893,0.0,0.0,0.0,0.0,0.0,0.0,0.0,0.0,0.0,0.0,0.0,-2.9311,0.0,0.0,-3.6794,-3.9765,-4.1727,-4.3479,-4.5076,-4.5645,-4.4965,-4.2499,-4.3215,-4.3129,-4.1266,-4.2057,-4.2466,-4.1779,-4.1216,-4.0769,-4.0415,-3.9518,-3.8712,-3.8015,-3.7468,-3.6987,-3.6587,-3.5982,-3.5638,-3.5589,-3.5554,-3.5279,-3.489,-3.4222,-3.3513,-3.2721,-3.2166,-3.1391,-3.0548,-3.007,-2.9478,-2.873,-2.7245,-2.5884,-2.4682,-2.3513,-2.2786,-2.2234,-2.1681,-2.1493,-2.1525,-2.1703,-2.1569,-2.1404,-2.1906,-2.1663,-2.1285,-2.149,-2.1281,-2.0964,-2.0931,-2.0741,-2.0566,-2.0566,-2.0566,-2.0625,-2.085,-2.0898,-2.0898,-2.0898,-2.0898,-2.083,-2.0605,-2.0381,-2.0098,-1.9668,-1.96,-1.9365,-1.8721,-1.8562,-1.8477,-1.8057,-1.8008,-1.7754,-1.7109,-1.625,-1.5469,-1.4824,-1.418,-1.3721,-1.3516,-1.3311,-1.3024,-1.2645,-1.161,-1.1056,-1.1091,-1.0101,-0.9826,-1.0114,-1.012,-1.02,0.0,0.0,0.0,0.0,0.0,0.0,0.0,0.0,-2.767,-2.8842,-3.0351,-3.2158,-3.4304,-3.7192,-4.0042,-4.2582,-4.4143,-4.5334,-4.6121,-4.6231,-4.5888,-4.492,-4.4777,-4.4188,-4.2809,-4.2979,-4.2977,-4.2523,-4.2061,-4.1544,-4.0896,-4.021,-3.9565,-3.8774,-3.7966,-3.7422,-3.7284,-3.6277,-3.5752,-3.5767,-3.5604,-3.5504,-3.5504,-3.4839,-3.4461,-3.4245,-3.3422,-3.2597,-3.1679,-3.0632,-2.9856,-2.9346,-2.8546,-2.7553,-2.6372,-2.4318,-2.3552,-2.3387,-2.2447,-2.2128,-2.216,-2.2498,-2.2256,-2.1983,-2.2931,-2.2793,-2.244,-2.2455,-2.2313,-2.2017,-2.1618,-2.1328,-2.1175,-2.1265,-2.1286,-2.1396,-2.1541,-2.16,-2.156,-2.125,-2.1309,-2.1221,-2.0771,-2.0693,-2.0547,-2.0107,-2.0039,-1.9756,-1.8984,-1.8809,-1.8603,-1.8174,-1.8057,-1.7842,-1.7422,-1.6328,-1.5488,-1.5059,-1.4629,-1.4199,-1.3769,-1.3672,-1.3633,-1.3633,-1.2334,-1.1756,-1.201,-1.0865,-1.0262,-1.0207,-1.0448,-1.0624,0.9634,-0.0191,-1.1405,-2.0096,-2.42,-2.7358,0.0,0.0,-3.2032,-3.344,-3.5717,-3.7565,-3.7907,-4.0691,-4.3463,-4.5204,-4.5913,-4.6472,-4.7311,-4.742,-4.7065,-4.6099,-4.5744,-4.4805,-4.286,-4.3936,-4.434,-4.3335,-4.328,-4.3026,-4.2557,-4.1726,-4.0774,-3.9683,-3.8967,-3.8253,-3.7507,-3.661,-3.6085,-3.5973,-3.5619,-3.5504,-3.5504,-3.5439,-3.4986,-3.423,-3.3241,-3.2791,-3.2764,-3.1635,-3.1081,-3.0848,-2.9069,-2.8307,-2.791,-2.6016,-2.5216,-2.4963,-2.4545,-2.4305,-2.4131,-2.3914,-2.3741,-2.3704,-2.3829,-2.4075,-2.4226,-2.4208,-2.3908,-2.3531,-2.3514,-2.3305,-2.3331,-2.3762,-2.3862,-2.3656,-2.2886,-2.2987,-2.2845,-2.146,-2.1553,-2.168,-2.123,-2.1162,-2.1006,-2.0557,-2.0498,-2.0322,-1.9834,-1.9443,-1.9043,-1.8613,-1.8232,-1.7842,-1.7422,-1.6894,-1.6396,-1.6007,-1.5508,-1.5078,-1.4658,-1.4268,-1.4009,-1.4009,-1.3294,-1.2715,-1.2356,-1.156,-1.0959,-1.0514,-1.0611,-1.0624,0.0655,-0.8936,0.0,0.0,-2.8464,-3.208,-3.4338,-3.4714,-3.499,-3.6504,-3.8274,-3.9695,-4.0143,-4.2414,-4.4562,0.0,-4.6184,-4.6685,-4.7482,-4.6963,-4.6266,-4.558,-4.4988,-4.4506,-4.4076,-4.4602,-4.4749,-4.4169,-4.4529,-4.4306,-4.3229,-4.3317,-4.2718,-4.1422,-4.0451,-3.977,-3.9408,-3.7902,-3.7013,-3.6758,-3.6107,-3.5683,-3.5504,-3.5504,-3.5294,-3.4986,-3.4138,-3.3659,-3.3437,-3.2582,-3.1869,-3.1175,-3.0157,-2.9184,-2.8173,-2.6563,-2.5737,-2.547,-2.5422,-2.5216,-2.4948,-2.4772,-2.4772,-2.4773,-2.4897,-2.5037,-2.5124,-2.503,-2.4969,-2.4838,-2.4408,-2.4401,-2.4442,-2.4352,-2.4554,-2.4691,-2.4227,-2.4522,-2.4647,-2.3983,-2.3554,-2.3063,-2.2604,-2.177,-2.1172,-2.0986,-2.0732,-2.041,-1.9971,-1.9756,-1.9394,-1.8711,-1.8262,-1.7939,-1.7764,-1.7353,-1.6924,-1.6484,-1.6035,-1.5488,-1.4814,-1.4609,-1.4512,-1.4512,-1.3775,-1.3402,-1.3431,-1.2221,-1.1515,-1.1288,-1.0807,-1.0624,-0.7562,0.0,0.0,-2.7146,-3.2149,-3.5987,-3.6274,-3.6897,-3.782,-3.915,-4.0088,-4.0908,-4.1666,-4.3233,-4.4709,-4.5736,-4.6066,-4.6477,-4.7464,-4.6442,-4.5516,-4.5211,-4.4541,-4.4178,-4.4543,-4.4641,-4.4664,-4.4609,-4.5077,-4.4966,-4.3962,-4.4158,-4.3932,-4.2891,-4.158,-4.0817,-4.0753,-3.8904,-3.7741,-3.7299,-3.6489,-3.5978,-3.5619,-3.5569,-3.5504,-3.5439,-3.489,-3.4394,-3.3988,-3.3255,-3.2526,-3.1717,-3.0972,-3.0016,-2.8851,-2.7442,-2.6578,-2.6174,-2.6297,-2.6114,-2.578,-2.5653,-2.5589,-2.5602,-2.5684,-2.5778,-2.5882,-2.5877,-2.5996,-2.6093,-2.5734,-2.5826,-2.596,-2.564,-2.5872,-2.6151,-2.5753,-2.6063,-2.6291,-2.5915,-2.5278,-2.4652,-2.425,-2.2959,-2.197,-2.173,-2.1184,-2.0596,-2.0146,-1.999,-1.958,-1.866,-1.8359,-1.8135,-1.8018,-1.7734,-1.7373,-1.6943,-1.6611,-1.6096,-1.5176,-1.5137,-1.5078,-1.4961,-1.4373,-1.4108,-1.4213,-1.281,-1.202,-1.1772,-1.0982,-1.0665,0.0,0.0,-2.4798,-3.0232,-3.4415,-3.7625,-3.9132,-4.0033,-4.079,-4.1527,-4.1511,-4.1647,-4.2513,-4.3142,-4.4048,-4.5645,-4.5707,-4.6007,-4.738,-4.6416,-4.5534,-4.5668,-4.4955,-4.421,0.0,-4.3752,-4.4119,-4.4575,-4.4604,-4.4721,-4.483,-4.4003,-4.3619,-4.3875,-4.1979,-4.0801,-4.0482,-3.9194,-3.8123,-3.7382,-3.6763,-3.63,-3.5973,-3.5619,-3.5504,-3.5439,-3.489,-3.4595,-3.4461,-3.3465,-3.2974,-3.2834,-3.1263,-3.0663,-3.049,-2.9291,-2.8237,-2.743,-2.7484,-2.7301,-2.7083,-2.6557,-2.6362,-2.6297,-2.6008,-2.6257,-2.6746,-2.7105,-2.7268,-2.7406,-2.7861,-2.8011,-2.8161,-2.8675,-2.8737,-2.851,-2.7633,-2.7703,-2.7599,-2.6063,-2.6125,-2.6293,-2.58,-2.4811,-2.385,-2.2955,-2.1908,-2.1055,-2.0605,-2.0176,-1.958,-1.866,-1.8623,-1.8457,-1.8047,-1.7998,-1.7812,-1.7393,-1.7353,-1.6943,-1.6125,-1.6086,-1.583,-1.54,-1.5332,-1.4982,-1.4213,-1.3364,-1.2573,-1.1772,-1.0982,-1.0715,-1.9621,-2.5351,-3.0838,-3.5537,-3.8437,-4.0473,-4.1851,-4.2396,-4.2323,-4.1506,-4.0848,-4.0166,-3.94,-4.028,-4.1324,-4.2014,-4.3524,-4.5027,-4.6113,-4.5276,-4.4655,-4.4893,-4.416,0.0,0.0,0.0,0.0,-4.3758,-4.4282,-4.4615,-4.468,-4.4858,-4.4758,-4.439,-4.3087,-4.2353,-4.2229,-4.0674,-3.9654,-3.9194,-3.7597,-3.6561,-3.5973,-3.5619,-3.5504,-3.5504,-3.5279,-3.4971,-3.4595,-3.4192,-3.3728,-3.3115,-3.2469,-3.1656,-3.0851,-3.0602,-2.9856,-2.8955,-2.8398,-2.8063,-2.7773,-2.742,-2.7617,-2.7811,-2.7349,-2.7271,-2.7386,-2.7873,-2.7965,-2.7959,-2.8511,-2.8938,-2.9176,-2.8976,-2.9227,-2.9313,-2.861,-2.8879,-2.9057,-2.8548,-2.7989,-2.7544,-2.738,-2.6187,-2.4679,-2.3112,-2.1734,-2.0732,-2.0586,-2.0185,-1.9697,-1.9131,-1.8809,-1.8467,-1.8047,-1.8008,-1.7832,-1.7412,-1.7383,-1.6992,-1.6164,-1.6125,-1.5859,-1.542,-1.541,-1.5294,-1.4991,-1.4213,-1.3364,-1.2573,-1.1779,-1.127,-2.6283,-3.1086,-3.543,-3.9333,-4.1267,-4.2449,-4.3316,-4.3057,-4.2268,-4.0946,-3.9331,-3.7936,-3.7184,-3.7422,-3.8248,-3.9852,-4.1425,-4.3119,-4.5096,-4.4648,-4.4476,-4.5408,-4.4857,0.0,0.0,0.0,0.0,-4.3885,-4.4609,-4.5094,-4.5348,-4.5331,-4.5314,-4.5365,-4.4038,-4.3218,-4.2896,-4.1645,-4.0543,-3.9536,-3.808,-3.6932,-3.6163,-3.594,-3.5812,-3.5683,-3.5683,-3.5394,-3.489,-3.4677,-3.4259,-3.3728,-3.3185,-3.2455,-3.1673,-3.1425,-3.0888,-3.0223,-2.9253,-2.8781,-2.8584,-2.8306,-2.8437,-2.8726,-2.8368,-2.8209,-2.817,-2.8588,-2.8606,-2.8598,-2.9089,-2.9515,-2.9691,-2.9327,-2.9528,-2.9691,-2.9315,-2.9528,-2.9792,-2.9792,-2.9197,-2.8688,-2.8688,-2.7431,-2.5837,-2.4189,-2.2766,-2.1635,-2.0731,-2.0322,-1.998,-1.9561,-1.9258,-1.8857,-1.8281,-1.8232,-1.8057,-1.7637,-1.7607,-1.7285,-1.6562,-1.6387,-1.6094,-1.5654,-1.5488,-1.541,-1.541,-1.4569,-1.3795,-1.3009,-1.2197,-1.1574,-3.2069,-3.5633,-3.854,-4.1464,-4.2868,-4.3495,-4.3422,-4.2154,-4.0708,-3.9816,-3.703,-3.5009,0.0,0.0,-3.5073,-3.8939,-3.9533,-4.0795,-4.4425,-4.4528,-4.5018,0.0,0.0,0.0,0.0,0.0,0.0,-4.4937,0.0,-4.5974,-4.6752,-4.5432,-4.528,-4.6684,-4.4817,-4.3366,-4.2583,-4.211,-4.0747,-3.862,-3.8245,-3.7561,-3.66,-3.6569,-3.6352,-3.6037,-3.6037,-3.5797,-3.5439,-3.489,-3.4662,-3.4528,-3.3451,-3.3058,-3.2918,-3.1815,-3.1412,-3.1235,-2.9984,-2.955,-2.9456,-2.9026,-2.893,-2.9008,-2.906,-2.9074,-2.9047,-2.9247,-2.9225,-2.9277,-2.9718,-2.9792,-2.9792,-2.9792,-2.9792,-2.9792,-2.9792,-2.9792,-2.9792,-2.9792,-2.9792,-2.9792,-2.9792,-2.8611,-2.7203,-2.6052,-2.5058,-2.3504,-2.1023,-2.0654,-2.0468,-1.9961,-1.9912,-1.957,-1.864,-1.8562,-1.8457,-1.8037,-1.8008,-1.7822,-1.7402,-1.6963,-1.6523,-1.6135,-1.5635,-1.541,-1.541,-1.4628,-1.3855,-1.307,-1.222,-1.1761,-3.6856,-3.9577,-4.1632,-4.3126,-4.3719,-4.3545,-4.2286,-4.0737,-3.884,-3.6373,-3.3751,-3.1539,0.0,0.0,0.0,-3.488,-3.9312,0.0,-4.3634,-4.5242,0.0,-4.6781,0.0,-4.7297,-4.7079,-4.7385,0.0,0.0,-4.5535,-4.5432,-4.6718,-4.5923,-4.5585,-4.5974,-4.4566,-4.3697,-4.3502,-4.2664,-4.1534,-4.0067,-3.9345,-3.8576,-3.7747,-3.7094,-3.6554,-3.6148,-3.6148,-3.591,-3.5504,-3.5344,-3.5067,-3.4773,-3.4341,-3.407,-3.3713,-3.2891,-3.2553,-3.2372,-3.1223,-3.054,-3.0025,-2.9173,-2.9544,-3.0206,-2.9935,-2.9684,-2.9714,-3.0147,-2.9768,-2.9339,-2.9859,-2.9934,-2.9792,-2.9792,-2.9792,-2.9792,-2.9792,-2.9792,-2.9792,-2.9792,-2.9792,-2.9792,-2.9792,-2.9499,-2.8697,-2.7316,-2.6447,-2.5146,-2.2625,-2.1952,-2.1202,-2.0036,-1.9912,-1.957,-1.864,-1.8562,-1.8457,-1.8037,-1.8008,-1.7822,-1.7402,-1.6963,-1.6523,-1.6135,-1.5635,-1.541,-1.541,-1.5167,-1.4688,-1.3855,-1.3273,-1.2752,-4.1124,-4.3192,-4.4561,-4.4936,-4.4608,-4.3575,-4.1054,-3.8995,-3.6659,-3.3421,-3.0865,0.0,0.0,0.0,0.0,0.0,0.0,0.0,-4.2875,-4.4927,-4.6597,0.0,-4.8307,0.0,-4.9094,-4.8992,-4.8752,0.0,-4.6958,-4.6455,-4.7242,-4.6278,-4.5855,-4.6177,-4.4882,-4.3948,-4.3562,-4.2851,-4.1787,-4.0309,-3.9818,-3.9217,-3.8521,-3.7733,-3.7275,-3.7188,0.0,-3.6399,-3.5797,-3.5797,-3.5539,-3.5148,-3.4758,-3.4461,-3.4274,-3.3589,-3.3185,-3.2904,-3.1957,-3.1443,-3.1013,-3.014,-3.0067,-3.0286,-3.0263,-3.0294,-3.0355,-3.0284,-3.0108,-2.9896,-3.0139,-3.0075,-2.9934,-2.9934,-2.9869,-2.9792,-2.9792,-2.9792,-2.9792,-2.9792,-2.9792,-2.9792,-2.9792,-2.9792,-2.9524,-2.8623,-2.802,-2.6844,-2.4777,-2.3048,-2.1717,-2.0878,-2.0414,-1.9932,-1.9248,-1.9033,-1.874,-1.8311,-1.8115,-1.79,-1.7666,-1.7246,-1.6894,-1.665,-1.6025,-1.5693,-1.5693,-1.5508,-1.4805,-1.3674,-1.333,-1.2827,-4.4538,-4.6022,-4.6845,-4.6273,-4.5174,-4.3307,-3.9783,-3.7103,-3.4367,-3.0878,0.0,-2.6937,-2.6902,-2.7695,-2.958,-3.3376,0.0,-3.8456,-4.2317,-4.4473,-4.6407,-4.8438,-4.9632,-5.0566,-5.1345,-5.0365,-4.9724,-4.9715,-4.8897,-4.8252,-4.7919,-4.6599,-4.6058,-4.6481,-4.5246,-4.4196,-4.3366,-4.2941,-4.197,-4.0392,-4.02,-3.9814,-3.9221,-3.8344,-3.8136,-3.8362,0.0,0.0,-3.6321,-3.6196,-3.5973,-3.5554,-3.4971,-3.4743,-3.4677,-3.4124,-3.3589,-3.3115,-3.2513,-3.229,-3.2181,-3.1249,-3.0636,-3.0214,-3.0447,-3.0803,-3.1018,-3.0212,-3.0297,-3.0698,-3.052,-3.0305,-3.0075,-3.0075,-2.9934,-2.9792,-2.9792,-2.9792,-2.9792,-2.9792,-2.9792,-2.9792,-2.9792,-2.9792,-2.9792,-2.9792,-2.9302,-2.8437,-2.7083,-2.4348,-2.2392,-2.2038,-2.1298,-2.0535,-1.9951,-1.958,-1.916,-1.8592,-1.8291,-1.8066,-1.8008,-1.7607,-1.7383,-1.7383,-1.6572,-1.6152,-1.6152,-1.5713,-1.4771,-1.338,-1.3144,-1.2552,-4.5436,-4.6238,-4.6604,-4.5557,-4.4053,-4.1949,-3.8571,-3.5306,0.0,0.0,0.0,-2.557,-2.5412,-2.7694,0.0,-3.302,0.0,0.0,0.0,0.0,-4.7979,0.0,0.0,0.0,0.0,0.0,0.0,0.0,0.0,-4.9504,-4.8124,-4.7115,-4.6109,-4.501,-4.4705,-4.4327,-4.3697,-4.3638,-4.3284,-4.2537,-4.1195,-4.0502,-4.0355,-3.8974,-3.8113,-3.7816,-3.7689,0.0,-3.6723,-3.6383,-3.6148,-3.6022,-3.5539,-3.5344,-3.5279,-3.4677,-3.4394,-3.4245,-3.3668,-3.3164,-3.2605,-3.1384,-3.1531,-3.2058,-3.1383,-3.1523,-3.1783,-3.0992,-3.0758,-3.0698,-3.0698,-3.0394,-3.0075,-3.0075,-2.9934,-2.9792,-2.9792,-2.9792,-2.9792,-2.9792,-2.9792,-2.9792,-2.9792,-2.9792,-2.9792,-2.9792,-2.9302,-2.8813,-2.855,-2.6562,-2.4312,-2.2209,-2.1886,-2.1257,-2.0026,-1.9844,-1.9473,-1.8621,-1.8494,-1.8379,-1.8027,-1.7607,-1.7383,-1.7383,-1.6875,-1.6621,-1.6611,-1.6172,-1.5827,-1.5514,-1.401,-1.3357,-4.6873,-4.7574,-4.7856,-4.6875,-4.467,-4.1629,-3.7276,0.0,0.0,0.0,-2.58,-2.5274,-2.5173,0.0,0.0,0.0,0.0,0.0,0.0,0.0,0.0,0.0,0.0,0.0,0.0,0.0,0.0,0.0,0.0,-4.9795,-4.8184,-4.6937,-4.5906,-4.5179,-4.479,-4.4384,-4.3964,-4.3964,-4.3573,-4.2762,-4.1996,-4.1353,-4.0802,-3.9683,-3.8983,-3.8595,-3.821,0.0,-3.7298,-3.7074,-3.6815,-3.6492,-3.6022,-3.5846,-3.5782,-3.5249,-3.489,-3.4595,-3.4327,-3.3854,-3.3286,-3.2681,-3.2514,-3.2556,-3.215,-3.2357,-3.2437,-3.1374,-3.1229,-3.132,-3.0986,-3.0533,-3.0292,-3.0292,-3.0011,-2.9792,-2.9792,-2.9792,-2.9792,-2.9792,-2.9792,-2.9792,-2.9792,-2.9792,-2.9792,-2.9792,-2.9553,-2.9264,-2.8963,-2.8064,-2.6562,-2.426,-2.2757,-2.1717,-2.1059,-2.0331,-1.9639,-1.9014,-1.876,-1.8447,-1.8027,-1.7812,-1.7705,-1.7705,-1.7295,-1.707,-1.707,-1.6396,-1.5979,-1.5745,-1.4136,-1.3453,-4.7534,-4.8284,-4.864,-4.7757,-4.4853,-4.1008,-3.6343,-3.3154,0.0,0.0,-2.5206,-2.5322,-2.5293,0.0,0.0,0.0,0.0,0.0,0.0,0.0,0.0,0.0,0.0,0.0,0.0,0.0,0.0,0.0,0.0,0.0,-4.7945,-4.6513,-4.5676,-4.5466,-4.4891,-4.4457,-4.4212,-4.4229,-4.3796,-4.2948,-4.2741,-4.2121,-4.1181,-4.0384,-3.9804,-3.943,-3.8748,0.0,0.0,-3.7759,-3.7433,-3.7027,-3.6554,-3.6321,-3.6274,-3.5797,-3.5314,-3.4876,-3.481,-3.4558,-3.4153,-3.4153,-3.3671,-3.2986,-3.288,-3.3138,-3.3185,-3.1928,-3.2006,-3.216,-3.1394,-3.096,-3.0583,-3.0292,-3.0011,-2.9792,-2.9792,-2.9792,-2.9792,-2.9792,-2.9792,-2.9792,-2.9792,-2.9792,-2.9792,-2.9792,-2.9792,-2.9628,-2.9164,-2.9001,-2.8276,-2.6626,-2.4408,-2.2875,-2.2488,-2.1267,-2.0337,-1.981,-1.9157,-1.8584,-1.8164,-1.8057,-1.8008,-1.8008,-1.7686,-1.7519,-1.7519,-1.6728,-1.6191,-1.5845,-1.4469,-1.3868,-4.6027,-4.6836,-4.7162,-4.6235,-4.284,-3.9007,-3.6203,0.0,0.0,-2.5925,-2.5372,-2.5368,-2.5313,-2.6754,0.0,0.0,0.0,0.0,0.0,0.0,0.0,0.0,0.0,0.0,0.0,0.0,0.0,0.0,0.0,0.0,-4.7163,-4.6323,-4.5518,-4.4705,-4.4621,-4.4587,-4.457,-4.457,-4.448,-4.4395,-4.3423,-4.2534,-4.1782,-4.0807,-3.9929,-3.9197,-3.8876,0.0,0.0,-3.7976,-3.77,-3.7567,-3.7042,-3.6738,-3.6585,-3.6274,-3.6022,-3.5846,-3.5554,-3.5359,-3.5359,-3.5359,-3.4942,-3.4307,-3.3628,-3.3794,-3.4027,-3.3213,-3.3031,-3.2932,-3.216,-3.1723,-3.1158,-3.0075,-2.9869,-2.9792,-2.9792,-2.9792,-2.9792,-2.9792,-2.9792,-2.9792,-2.9792,-2.9792,-2.9792,-2.9792,-2.9792,-2.9779,-2.9716,-2.9252,-2.8813,-2.8625,-2.717,-2.5646,-2.422,-2.3165,-2.2237,-2.1282,-1.9955,-1.9033,-1.8523,-1.8213,-1.8008,-1.8008,-1.7969,-1.7949,-1.7949,-1.749,-1.7275,-1.7174,-1.5919,-1.5426,-4.5431,-4.6631,-4.6989,-4.6074,-4.2277,-3.8063,-3.5521,0.0,0.0,-2.5892,-2.5471,-2.5596,-2.6056,-2.6706,-2.8018,0.0,0.0,0.0,0.0,0.0,0.0,0.0,0.0,0.0,0.0,0.0,0.0,0.0,0.0,0.0,-4.721,-4.5925,-4.5247,-4.5246,-4.4823,-4.4587,-4.4587,-4.4587,-4.4587,-4.457,-4.3681,-4.2757,-4.1892,-4.1026,-4.0097,-3.9206,-3.9098,0.0,0.0,-3.8567,-3.8359,-3.8303,-3.7669,-3.7178,-3.6738,-3.6383,-3.5973,-3.5683,-3.5569,-3.5504,-3.5504,-3.5504,-3.5344,-3.5067,-3.4787,-3.4854,-3.4839,-3.4109,-3.3837,-3.3699,-3.2932,-3.2146,-3.122,-3.0228,-2.9869,-2.9792,-2.9792,-2.9792,-2.9792,-2.9792,-2.9792,-2.9792,-2.9792,-2.9792,-2.9792,-2.9792,-2.9792,-2.9792,-2.9792,-2.9591,-2.9453,-2.9453,-2.7748,-2.6237,-2.5261,-2.4329,-2.3317,-2.2363,-2.1188,-2.0268,-1.9551,-1.8745,-1.8271,-1.8018,-1.8008,-1.8008,-1.8008,-1.7588,-1.751,-1.7744,-1.6335,-1.5945,-4.3469,-4.5197,-4.5956,-4.5064,-4.1181,-3.6995,0.0,0.0,0.0,-2.5847,-2.5535,-2.5688,-2.6214,-2.6734,-2.7653,0.0,0.0,0.0,0.0,0.0,0.0,0.0,0.0,0.0,0.0,0.0,0.0,0.0,0.0,0.0,0.0,-4.584,-4.5272,-4.5518,-4.4914,-4.4468,-4.4231,-4.4468,-4.435,-4.3893,-4.3572,-4.2804,-4.1698,-4.1177,-4.0364,-3.947,0.0,0.0,0.0,-3.9061,-3.8898,-3.8843,-3.8246,-3.777,-3.731,-3.6662,-3.6148,-3.5812,-3.5569,-3.5504,-3.5504,-3.5504,-3.5504,-3.5504,-3.5504,-3.5504,-3.5359,-3.4824,-3.4461,-3.4177,-3.3561,-3.2706,-3.1709,-3.0996,-3.0495,-3.0279,-3.057,-3.0432,-3.0279,-3.057,-3.0432,-3.0216,-3.0216,-2.9998,-2.9792,-2.9792,-2.9792,-2.9792,-2.9792,-2.9792,-2.9792,-2.9792,-2.843,-2.7269,-2.6566,-2.5522,-2.4574,-2.3589,-2.2158,-2.1081,-2.0371,-1.9184,-1.8437,-1.8018,-1.8008,-1.8008,-1.8008,-1.7715,-1.7715,-1.7998,-1.6985,-1.6578,-3.9492,-4.1816,-4.3514,-4.2565,-3.9103,-3.5477,0.0,0.0,0.0,-2.5776,-2.5601,-2.5558,-2.5447,-2.6812,-2.8174,-2.8714,0.0,0.0,0.0,0.0,0.0,0.0,0.0,0.0,0.0,0.0,0.0,0.0,0.0,0.0,0.0,-4.6213,-4.5631,-4.5049,-4.4737,-4.4215,-4.3436,-4.4198,-4.3809,-4.232,-4.3064,-4.2642,-4.1221,-4.1204,-4.0798,0.0,0.0,0.0,0.0,-3.9312,-3.9206,-3.9152,-3.8898,-3.8678,-3.8455,-3.7326,-3.6799,-3.66,-3.5748,-3.5504,-3.5504,-3.5504,-3.5504,-3.5504,-3.5504,-3.5504,-3.5504,-3.5504,-3.4905,-3.4245,-3.4027,-3.3449,-3.282,-3.2593,-3.1888,-3.1462,-3.2393,-3.1815,-3.1462,-3.2393,-3.1815,-3.118,-3.118,-3.0419,-2.9792,-2.9792,-2.9792,-2.9792,-2.9792,-2.9792,-2.9792,-2.9792,-2.9779,-2.9315,-2.8185,-2.715,-2.616,-2.5064,-2.2706,-2.1229,-2.0836,-1.9414,-1.8437,-1.8018,-1.8008,-1.8008,-1.8008,-1.8008,-1.8008,-1.8008,-1.8008,-1.7491,-3.5723,-3.7363,-3.8222,-3.7321,-3.4781,-3.2185,-3.1029,0.0,0.0,-2.574,-2.5662,-2.5811,-2.633,-2.6359,-2.7036,-2.9325,-2.9551,0.0,0.0,0.0,0.0,0.0,0.0,0.0,0.0,0.0,0.0,0.0,0.0,0.0,0.0,-4.6578,-4.5784,-4.5177,-4.4886,-4.4674,-4.4528,-4.402,-4.3538,-4.3047,-4.2286,-4.166,-4.1187,-4.0679,0.0,0.0,0.0,0.0,0.0,-3.9661,-3.9556,-3.9504,-3.9007,-3.8567,-3.8173,-3.7519,-3.6997,-3.66,-3.6037,-3.5861,-3.5797,-3.5569,-3.5683,-3.5797,-3.5569,-3.5504,-3.5504,-3.5504,-3.5294,-3.4986,-3.438,-3.3945,-3.3518,-3.2961,-3.2464,-3.2249,-3.2522,-3.2393,-3.2249,-3.2522,-3.2393,-3.196,-3.1315,-3.097,-3.0558,-2.9856,-2.9792,-2.9792,-2.9792,-2.9792,-2.9792,-2.9792,-2.9792,-2.949,-2.8737,-2.8002,-2.7322,-2.6618,-2.4886,-2.3217,-2.1815,-2.0677,-1.9424,-1.8027,-1.8008,-1.8008,-1.8008,-1.8008,-1.8008,-1.8008,-1.8008,-1.7862,0.0,-3.3847,-3.4824,-3.3965,-3.207,0.0,0.0,0.0,0.0,-2.5703,-2.5703,-2.5858,-2.6325,-2.6459,-2.7078,-2.8863,-2.948,0.0,0.0,0.0,0.0,0.0,0.0,0.0,0.0,0.0,0.0,0.0,0.0,0.0,0.0,-4.7035,-4.6406,-4.5735,-4.5283,-4.4895,-4.4568,-4.3929,-4.3257,-4.2574,-4.1644,-4.1052,-4.0764,-4.029,0.0,0.0,0.0,0.0,0.0,-3.9935,-3.9833,-3.9816,-3.9345,-3.8952,-3.8606,-3.787,-3.7417,-3.7058,-3.6414,-3.61,-3.5973,-3.5925,-3.5988,-3.6037,-3.5861,-3.5619,-3.5504,-3.5504,-3.5504,-3.5359,-3.4905,-3.4691,-3.4476,-3.3973,-3.3533,-3.3241,-3.3616,-3.3394,-3.3241,-3.3616,-3.3394,-3.2961,-3.2393,-3.1669,-3.097,-3.0419,-2.9998,-2.9792,-2.9792,-2.9792,-2.9792,-2.9792,-2.9792,-2.9641,-2.9289,-2.8549,-2.7871,-2.7318,-2.5885,-2.4402,-2.3052,-2.1603,-2.0281,-1.9111,-1.837,-1.8086,-1.8242,-1.8086,-1.8008,-1.8008,-1.8008,-1.8008,0.0,-3.0989,0.0,0.0,0.0,0.0,0.0,0.0,0.0,0.0,0.0,-2.5722,-2.5785,-2.7004,-2.8009,-2.8009,-2.9883,0.0,0.0,0.0,0.0,0.0,0.0,0.0,0.0,0.0,0.0,0.0,0.0,0.0,0.0,-4.7469,-4.7173,-4.6507,-4.5763,-4.4906,-4.399,-4.3886,-4.3012,-4.1307,-4.1256,-4.0849,-4.0171,-4.0171,0.0,0.0,0.0,0.0,0.0,-4.0121,-4.007,-4.007,-3.9781,-3.9677,-3.9556,-3.8383,-3.7943,-3.7828,-3.6892,-3.6352,-3.61,-3.6429,-3.6414,-3.6211,-3.6196,-3.591,-3.5569,-3.5569,-3.5504,-3.5504,-3.5504,-3.5504,-3.5504,-3.5504,-3.4773,-3.4394,-3.5294,-3.4758,-3.4394,-3.5294,-3.4758,-3.4095,-3.4027,-3.2522,-3.1315,-3.1254,-3.0495,-2.9869,-2.9792,-2.9792,-2.9792,-2.9792,-2.9792,-2.9792,-2.9792,-2.8787,-2.7934,-2.7369,-2.6017,-2.4931,-2.4333,-2.2129,-2.0928,-2.0825,-1.9012,-1.8252,-1.8562,-1.8213,-1.8008,-1.8008,-1.8037,-1.8037,-2.6185,0.0,-2.7393,-2.7265,-2.6914,-2.6562,0.0,0.0,0.0,0.0,0.0,0.0,0.0,0.0,-2.8217,-3.1363,0.0,0.0,0.0,0.0,0.0,0.0,0.0,0.0,0.0,0.0,0.0,0.0,0.0,0.0,0.0,-4.6054,-4.5856,-4.5712,-4.5272,-4.4869,-4.4588,-4.3932,-4.3054,-4.2037,-4.1466,-4.1133,-4.11,-4.11,0.0,0.0,0.0,0.0,-4.0628,-4.0254,-4.007,-4.007,-3.9781,-3.9677,-3.9625,-3.8952,-3.8511,-3.81,-3.7546,-3.7118,-3.6754,-3.6877,-3.6677,-3.6476,-3.6538,-3.6289,-3.5846,-3.5846,-3.5782,-3.5638,-3.5638,-3.5604,-3.5504,-3.5504,-3.5294,-3.5213,-3.5439,-3.5279,-3.5213,-3.5424,-3.5294,-3.4905,-3.4095,-3.3602,-3.289,-3.1389,-3.1044,-3.062,-2.9856,-2.9792,-2.9792,-2.9792,-2.9792,-2.9792,-2.9792,-2.9139,-2.8499,-2.7946,-2.7167,-2.6045,-2.4345,-2.3096,-2.1887,-2.0836,-1.9234,-1.8545,-1.8562,-1.8213,-1.8008,-1.8018,-1.834,-1.832,-2.5383,-2.5768,-2.6165,-2.6221,-2.6244,-2.6264,-2.6289,0.0,0.0,0.0,0.0,0.0,0.0,0.0,0.0,0.0,0.0,0.0,0.0,0.0,0.0,0.0,0.0,0.0,0.0,0.0,0.0,0.0,0.0,0.0,0.0,-4.5754,-4.5547,-4.5391,-4.5273,-4.4982,-4.4495,-4.3693,-4.2929,-4.2305,-4.1557,-4.1255,-4.1391,-4.1391,-4.1445,0.0,0.0,0.0,-4.0754,-4.0303,-4.007,-4.0087,-3.9935,-3.9867,-3.9833,-3.9345,-3.899,-3.8701,-3.8084,-3.7535,-3.7301,-3.7492,-3.7238,-3.6892,-3.7385,-3.7147,-3.6616,-3.6148,-3.5894,-3.5831,-3.5688,-3.5638,-3.5604,-3.5504,-3.5504,-3.5504,-3.5504,-3.5504,-3.5504,-3.5504,-3.5504,-3.5359,-3.4758,-3.4312,-3.3671,-3.2664,-3.1742,-3.1044,-3.0482,-3.0075,-2.9792,-2.9792,-2.9792,-2.9792,-2.9792,-2.9503,-2.8976,-2.816,-2.7595,-2.6669,-2.5375,-2.4176,-2.2691,-2.0836,-1.9544,-1.8838,-1.8562,-1.8213,-1.8105,-1.8301,-1.8525,-1.8623,-2.5371,-2.6171,-2.6926,-2.6734,-2.6785,-2.6871,-2.6795,0.0,0.0,0.0,0.0,0.0,0.0,0.0,0.0,0.0,0.0,0.0,0.0,0.0,0.0,0.0,0.0,0.0,0.0,0.0,0.0,0.0,0.0,0.0,0.0,-4.5535,-4.5407,-4.5106,-4.5238,-4.4874,-4.397,-4.3411,-4.2917,-4.2391,-4.1761,-4.1552,-4.164,-4.164,-4.1709,0.0,0.0,0.0,-4.0972,-4.0434,-4.0221,-4.0171,-4.0121,-4.007,-4.007,-3.9644,-3.947,-3.9259,-3.8495,-3.796,-3.7685,-3.8197,-3.7854,-3.7417,-3.8238,-3.8108,-3.7488,-3.6616,-3.6258,-3.6148,-3.5943,-3.58,-3.5703,-3.5554,-3.5504,-3.5504,-3.5504,-3.5504,-3.5504,-3.5504,-3.5504,-3.5504,-3.5504,-3.4758,-3.4177,-3.4027,-3.2522,-3.1389,-3.1254,-3.0343,-2.9792,-2.9792,-2.9792,-2.9792,-2.9792,-2.9792,-2.9315,-2.8172,-2.767,-2.7047,-2.627,-2.49,-2.3177,-2.1037,-1.9905,-1.9199,-1.8828,-1.8408,-1.8389,-1.874,-1.8799,-1.8994,-2.534,-2.6506,-2.7401,-2.6057,-2.6314,-2.671,0.0,0.0,0.0,0.0,0.0,0.0,0.0,0.0,0.0,0.0,0.0,0.0,0.0,0.0,0.0,0.0,0.0,0.0,0.0,0.0,0.0,0.0,0.0,0.0,0.0,-4.3899,-4.3846,-4.3776,-4.383,-4.3669,-4.3358,-4.3728,-4.3538,-4.2814,-4.2688,-4.2691,-4.2842,-4.2842,-4.288,0.0,0.0,-4.2074,-4.1948,-4.1065,-4.0628,-4.0483,-4.0221,-4.007,-4.007,-4.002,-3.9747,-3.9312,-3.8843,-3.8399,-3.8059,-3.8567,-3.8132,-3.7567,-3.8311,-3.8197,-3.787,-3.7953,-3.7472,-3.6951,-3.6874,-3.629,-3.5688,-3.5688,-3.5604,-3.5504,-3.5504,-3.5504,-3.5504,-3.5504,-3.5504,-3.5504,-3.5504,-3.5359,-3.4986,-3.4095,-3.3101,-3.2105,-3.1315,-3.0343,-2.9792,-2.9792,-2.9792,-2.9792,-2.9792,-2.9792,-2.9315,-2.8172,-2.8021,-2.7148,-2.5336,-2.4184,-2.3066,-2.1828,-2.0507,-1.9785,-1.9717,-1.9297,-1.9121,-1.9199,-1.9551,-1.9561,-2.5379,-2.6273,-2.7073,-2.6293,-2.7122,-2.7923,0.0,0.0,0.0,0.0,0.0,0.0,0.0,0.0,0.0,0.0,0.0,0.0,0.0,0.0,0.0,0.0,0.0,0.0,0.0,0.0,0.0,0.0,0.0,0.0,0.0,0.0,-4.3548,-4.3548,-4.3513,-4.3463,-4.3339,-4.3652,-4.3488,-4.2882,-4.2882,-4.2994,-4.3104,-4.3104,-4.3123,-4.316,0.0,-4.236,-4.2157,-4.1455,-4.0972,-4.058,-4.0434,-4.0254,-4.007,-4.007,-3.9799,-3.9435,-3.9487,-3.9061,-3.8623,-3.9276,-3.8898,-3.8359,-3.9135,-3.9082,-3.881,-3.9189,-3.8557,-3.7648,-3.7235,-3.6768,-3.6352,-3.58,-3.5638,-3.5604,-3.5504,-3.5504,-3.5504,-3.5504,-3.5504,-3.5504,-3.5504,-3.5504,-3.5359,-3.4905,-3.3959,-3.3031,-3.2105,-3.1119,-3.0343,-2.9856,-2.9792,-2.9666,-2.9352,-2.9327,-2.8976,-2.816,-2.7544,-2.6839,-2.5828,-2.485,-2.3818,-2.285,-2.1438,-2.0416,-1.9912,-1.9492,-1.9404,-1.9629,-1.9824,-1.9941,-2.5441,-2.6052,-2.6633,-2.6381,0.0,0.0,0.0,0.0,0.0,0.0,0.0,0.0,0.0,0.0,0.0,0.0,0.0,0.0,0.0,0.0,0.0,0.0,0.0,0.0,0.0,0.0,0.0,0.0,0.0,0.0,0.0,0.0,-4.3716,-4.3615,-4.3548,-4.3532,-4.3497,-4.3497,-4.3339,-4.3032,-4.3032,-4.3087,-4.3196,-4.3196,-4.3233,-4.3232,-4.2884,-4.2598,-4.24,-4.1888,-4.1348,-4.0896,-4.0707,-4.0402,-4.007,-4.007,-3.9867,-3.9644,-3.9969,-3.9592,-3.9061,-3.9867,-3.9487,-3.8952,-3.9816,-3.9747,-3.9487,-3.9969,-3.9454,-3.8502,-3.7589,-3.7235,-3.689,-3.5991,-3.5752,-3.5638,-3.5554,-3.5504,-3.5504,-3.5504,-3.5504,-3.5504,-3.5504,-3.5504,-3.5504,-3.5504,-3.461,-3.3739,-3.3031,-3.1888,-3.0895,-3.0216,-2.9807,-2.9352,-2.8787,-2.8612,-2.836,-2.7946,-2.7118,-2.6659,-2.6533,-2.5511,-2.4564,-2.3514,-2.2198,-2.1079,-2.0068,-1.9746,-1.9697,-1.9912,-2.0019,-2.0195,-2.5503,-2.6088,-2.6494,-2.5701,-2.6184,0.0,-2.9812,-3.0389,0.0,-3.2426,0.0,0.0,0.0,0.0,0.0,0.0,0.0,0.0,0.0,0.0,0.0,0.0,0.0,0.0,0.0,0.0,0.0,0.0,0.0,0.0,0.0,0.0,0.0,-4.3615,-4.3582,-4.3548,-4.3497,-4.3497,-4.3497,-4.3463,-4.3463,-4.3444,-4.3463,-4.3463,-4.3463,-4.3463,-4.3376,-4.3251,-4.3087,-4.2418,-4.2074,-4.1803,-4.0926,-4.0402,-4.007,-4.007,-4.007,-4.007,-4.007,-3.9747,-3.9435,-3.9918,-3.9487,-3.8952,-3.9816,-3.9747,-3.9487,-3.9969,-4.002,-3.9679,-3.8502,-3.7648,-3.689,-3.6148,-3.5831,-3.5638,-3.5554,-3.5504,-3.5504,-3.5504,-3.5504,-3.5504,-3.5504,-3.5504,-3.5504,-3.5504,-3.461,-3.3959,-3.3876,-3.2321,-3.118,-3.1106,-2.9794,-2.8762,-2.821,-2.7695,-2.7381,-2.7344,-2.7268,-2.6992,-2.6546,-2.5511,-2.4564,-2.3514,-2.2446,-2.1466,-2.0518,-2.0488,-2.0283,-1.9922,-2.0332,-2.0312,-2.557,-2.658,-2.7405,-2.6454,-2.7304,0.0,0.0,-3.1253,-3.2212,-3.289,0.0,0.0,0.0,0.0,0.0,0.0,0.0,0.0,0.0,0.0,0.0,0.0,0.0,0.0,0.0,0.0,0.0,0.0,0.0,0.0,0.0,0.0,0.0,-4.2726,-4.3069,-4.3218,-4.3069,-4.3523,-4.3667,-4.3497,-4.3497,-4.3497,-4.3497,-4.3497,-4.3222,-4.2782,-4.3261,-4.279,-4.1721,-4.1959,-4.1743,-4.1215,-4.0782,-4.0531,-4.0402,-4.0171,-4.007,-4.007,-4.007,-3.9969,-3.985,-4.002,-3.9867,-3.9644,-4.002,-3.9649,-3.9278,-3.9902,-3.9749,-3.9345,-3.8966,-3.8334,-3.7648,-3.689,-3.6258,-3.5846,-3.5653,-3.5554,-3.5504,-3.5504,-3.5504,-3.5504,-3.5504,-3.5504,-3.5504,-3.5504,-3.5213,-3.4691,-3.4095,-3.289,-3.1815,-3.1241,-2.951,-2.8197,-2.7645,-2.708,-2.6766,-2.6766,-2.6766,-2.6747,-2.6533,-2.6094,-2.5441,-2.448,-2.3452,-2.2478,-2.1441,-2.0579,-2.0215,-2.0312,-1.9941,-1.9971,-2.5637,-2.6488,-2.729,-2.6873,0.0,0.0,-3.1283,-3.2521,-3.367,-3.4759,0.0,0.0,0.0,0.0,0.0,0.0,0.0,0.0,0.0,0.0,0.0,0.0,0.0,0.0,0.0,0.0,0.0,0.0,0.0,0.0,0.0,0.0,0.0,0.0,-4.2598,-4.2715,-4.2528,-4.2958,-4.3069,-4.2842,-4.3018,-4.324,-4.3497,-4.3497,-4.3057,-4.2323,-4.2873,-4.2273,-4.0949,-4.1699,-4.1684,-4.1144,-4.0993,-4.0647,-4.0237,-4.0268,-4.0018,-3.9766,-4.0003,-4.007,-4.007,-4.007,-4.007,-4.0037,-3.98,-3.9546,-3.9394,-3.9665,-3.9546,-3.9395,-3.9458,-3.9028,-3.8334,-3.7354,-3.6723,-3.6258,-3.5816,-3.5653,-3.5554,-3.5504,-3.5504,-3.5504,-3.5504,-3.5504,-3.5504,-3.5504,-3.5504,-3.5279,-3.4543,-3.3445,-3.2109,-3.0533,-2.8831,-2.762,-2.7067,-2.6747,-2.6533,-2.6533,-2.6533,-2.6533,-2.6533,-2.6533,-2.6025,-2.5016,-2.4174,-2.3072,-2.1817,-2.0639,-2.0083,-1.9951,-1.9629,-1.9727,-2.5703,-2.5658,-2.5837,0.0,0.0,0.0,-3.3568,-3.4313,-3.5256,0.0,0.0,0.0,0.0,0.0,0.0,0.0,0.0,0.0,0.0,0.0,0.0,0.0,0.0,0.0,0.0,0.0,0.0,0.0,0.0,0.0,0.0,0.0,0.0,0.0,-4.2176,-4.2096,-4.189,-4.1698,-4.1545,-4.1403,-4.2014,-4.2708,-4.3461,-4.3479,-4.3039,-4.2286,-4.2286,-4.1827,-4.1115,-4.1716,-4.1991,-4.1955,-4.1778,-4.0804,-3.9611,-4.0336,-3.9924,-3.9089,-3.9817,-4.0054,-4.0054,-4.0054,-4.0054,-3.9935,-3.9208,-3.9478,-3.9918,-3.9191,-3.9495,-4.0054,-4.007,-3.9627,-3.8849,-3.7472,-3.7115,-3.6829,-3.5928,-3.5688,-3.5638,-3.5504,-3.5504,-3.5504,-3.5504,-3.5504,-3.5504,-3.5504,-3.5504,-3.5489,-3.5489,-3.4069,-3.1942,-2.8809,-2.7793,-2.7055,-2.6584,-2.6533,-2.6533,-2.6533,-2.6533,-2.6533,-2.6533,-2.6533,-2.6025,-2.5016,-2.4493,-2.3292,-2.1429,-2.0894,-1.9879,-1.8592,-1.9512,-1.9687,-2.5703,-2.6581,0.0,-2.7756,0.0,0.0,0.0,-3.4844,0.0,0.0,0.0,0.0,0.0,0.0,0.0,0.0,0.0,0.0,0.0,0.0,0.0,0.0,0.0,0.0,0.0,0.0,0.0,0.0,0.0,0.0,0.0,0.0,0.0,0.0,-4.1495,-4.1681,-4.1472,-4.185,-4.1871,-4.1545,-4.1625,-4.1714,-4.1827,-4.2396,-4.1901,-4.0634,-4.1222,-4.0689,-3.9447,-4.0072,-4.0236,-4.0164,-4.0811,-4.0405,-3.953,-4.0289,-3.9727,-3.8628,-3.9154,-3.8988,-3.8548,-3.8548,-3.8903,-3.9174,-3.8447,-3.8379,-3.8514,-3.8294,-3.8007,-3.799,-3.9039,-3.9193,-3.8956,-3.8663,-3.8133,-3.7499,-3.6707,-3.6461,-3.6165,-3.5619,-3.5504,-3.5504,-3.5504,-3.5504,-3.5504,-3.5504,-3.51,-3.4401,-3.3258,-3.2688,-3.1368,-2.8769,-2.8294,-2.7687,-2.6571,-2.6533,-2.6533,-2.6533,-2.6533,-2.6533,-2.6533,-2.6533,-2.6383,-2.6094,-2.4852,-2.3653,-2.2441,-2.0849,-1.9737,-1.9092,-1.9043,-1.9268,-2.5703,-2.6719,0.0,-2.9018,-3.1111,-3.3299,0.0,0.0,0.0,0.0,0.0,0.0,0.0,0.0,0.0,0.0,0.0,0.0,0.0,0.0,0.0,0.0,0.0,0.0,0.0,0.0,0.0,0.0,0.0,0.0,0.0,0.0,0.0,0.0,-4.0271,-4.0609,-4.0444,-4.0703,-4.0858,-4.0929,-4.0961,-4.073,-4.0339,-4.136,-4.113,-3.99,-4.0084,-3.979,-3.9221,-3.9473,-3.9704,-3.9946,-4.0392,-3.9953,-3.9176,-3.9878,-3.9209,-3.8025,-3.8564,-3.8404,-3.7905,-3.7905,-3.821,-3.843,-3.7686,-3.7669,-3.7838,-3.755,-3.7347,-3.7432,-3.8328,-3.8768,-3.9008,-3.9199,-3.8832,-3.8246,-3.7499,-3.7263,-3.6904,-3.6117,-3.6196,-3.6196,-3.5619,-3.5718,-3.574,-3.5194,-3.4517,-3.3642,-3.2386,-3.1956,-3.1112,-2.9388,-2.8942,-2.8226,-2.7053,-2.6973,-2.685,-2.6521,-2.6533,-2.6533,-2.6533,-2.6533,-2.6533,-2.6533,-2.4784,-2.3489,-2.2646,-2.0629,-1.9387,-1.8779,-1.8682,-1.9004,-2.5703,0.0,0.0,-3.0273,-3.1797,0.0,0.0,0.0,0.0,0.0,0.0,0.0,0.0,0.0,0.0,0.0,0.0,0.0,0.0,0.0,0.0,0.0,0.0,0.0,0.0,0.0,0.0,0.0,0.0,0.0,0.0,0.0,0.0,-3.8041,-3.8792,-3.9131,-3.9013,-3.8801,-3.9032,0.0,-3.9927,-3.9629,-3.8958,-4.0345,-4.0561,-3.9753,-3.9019,-3.9111,-3.979,-3.9579,-3.9951,-4.0555,-4.0257,-3.9476,-3.864,-3.9199,-3.85,-3.7335,-3.8036,-3.8065,-3.7733,-3.7702,-3.7753,-3.7669,-3.6907,-3.7212,-3.7652,-3.6891,-3.7161,-3.7719,-3.7787,-3.8294,-3.8873,-3.9051,-3.9159,-3.9065,-3.823,-3.8052,-3.7735,-3.681,-3.7168,-3.7227,-3.5743,-3.6043,-3.603,-3.4523,-3.3784,-3.317,-3.2512,-3.1748,-3.0997,-3.0387,-2.9566,-2.8748,-2.7802,-2.767,-2.7351,-2.6521,-2.6533,-2.6508,-2.6445,-2.6445,-2.6471,-2.6533,-2.4554,-2.3109,-2.2195,-2.0387,-1.8972,-1.8076,-1.8496,-1.8926,-2.5703,-2.6836,0.0,0.0,-3.3574,0.0,0.0,0.0,0.0,0.0,0.0,0.0,0.0,0.0,0.0,0.0,0.0,0.0,0.0,0.0,0.0,0.0,0.0,0.0,0.0,0.0,0.0,0.0,0.0,0.0,0.0,0.0,0.0,-3.8053,-3.8265,-3.832,-3.8228,-3.8095,-3.8016,0.0,-3.7904,-3.7699,-3.7448,-3.9316,-3.9717,-3.8946,-3.8781,-3.8799,-3.8946,-3.8902,-3.8912,-3.8966,-3.9522,-3.9097,-3.8329,-3.9302,-3.8695,-3.7386,-3.7431,-3.7021,-3.6437,-3.6186,-3.6518,-3.6874,-3.6113,-3.6417,-3.6857,-3.6096,-3.5977,-3.6248,-3.6857,-3.7127,-3.7449,-3.8048,-3.9076,-3.9679,-3.8854,-3.8248,-3.7639,-3.686,-3.6804,-3.6644,-3.5723,-3.5705,-3.5183,-3.3216,-3.2826,-3.2482,-3.1824,-3.1544,-3.1117,-3.0404,-3.0133,-2.938,-2.7868,-2.767,-2.7351,-2.6521,-2.6533,-2.6319,-2.5799,-2.5787,-2.6,-2.6521,-2.4816,-2.3304,-2.2195,-2.1252,-1.9959,-1.8516,-1.8945,-1.9375,-2.5703,0.0,0.0,-3.1464,0.0,0.0,0.0,0.0,0.0,0.0,0.0,0.0,0.0,0.0,0.0,0.0,0.0,0.0,0.0,0.0,0.0,0.0,0.0,0.0,0.0,0.0,0.0,0.0,0.0,0.0,0.0,-3.6135,-3.651,-3.6895,-3.7283,-3.7456,-3.7415,-3.7324,-3.7421,-3.774,-3.7471,-3.7187,-3.6924,-3.7859,-3.8048,-3.7621,-3.7581,-3.7771,-3.812,-3.812,-3.8279,-3.8583,-3.8907,-3.87,-3.831,-3.8744,-3.8274,-3.7354,-3.7132,-3.6636,-3.6054,-3.5694,-3.5893,-3.6146,-3.574,-3.591,-3.6146,-3.574,-3.5622,-3.5723,-3.6129,-3.6502,-3.6874,-3.728,-3.8227,-3.8923,-3.8522,-3.812,-3.7633,-3.6836,-3.7012,-3.6914,-3.579,-3.5059,-3.4109,-3.2721,-3.2243,-3.1855,-3.1511,-3.1482,-3.1351,-3.0896,-3.0896,-3.0208,-2.8492,-2.8298,-2.7802,-2.6589,-2.6533,-2.6201,-2.5624,-2.536,-2.536,-2.5674,-2.4159,-2.2858,-2.1835,-2.0808,-1.9693,-1.8562,-1.8662,-1.9014,-2.5703,0.0,-2.9082,-3.2362,0.0,0.0,0.0,0.0,0.0,0.0,0.0,0.0,0.0,0.0,0.0,0.0,0.0,0.0,0.0,0.0,0.0,0.0,0.0,0.0,0.0,0.0,0.0,0.0,0.0,0.0,-3.4049,-3.4855,-3.5251,-3.5194,-3.5968,-3.6382,-3.637,-3.6458,-3.6853,-3.7565,-3.7266,-3.6919,-3.6569,-3.6335,-3.6318,-3.6482,-3.637,-3.6699,-3.7276,-3.7276,-3.7679,-3.8255,-3.8094,-3.8045,-3.8031,-3.7965,-3.7608,-3.7076,-3.6847,-3.6342,-3.5778,-3.5545,-3.548,-3.5453,-3.5588,-3.5622,-3.5622,-3.5622,-3.5622,-3.5622,-3.5622,-3.6096,-3.6586,-3.6586,-3.706,-3.7584,-3.7855,-3.7804,-3.7494,-3.6854,-3.7149,-3.7116,-3.584,-3.4439,-3.328,-3.2611,-3.1927,-3.1482,-3.1482,-3.1482,-3.1482,-3.1482,-3.1482,-3.0896,-2.938,-2.9192,-2.8492,-2.6782,-2.6625,-2.6253,-2.5485,-2.4958,-2.4632,-2.4531,-2.3347,-2.2362,-2.1649,-2.0259,-1.9344,-1.8824,-1.835,-1.8535,0.0,0.0,-2.8945,0.0,0.0,0.0,0.0,0.0,0.0,0.0,0.0,0.0,0.0,0.0,0.0,0.0,0.0,0.0,0.0,0.0,0.0,0.0,0.0,0.0,0.0,0.0,0.0,0.0,0.0,0.0,-3.2416,-3.3181,-3.3589,-3.3526,-3.4294,-3.4693,-3.4634,-3.5322,-3.5718,-3.582,-3.5676,-3.546,-3.5249,-3.5173,-3.5612,-3.6509,-3.6482,-3.6472,-3.645,-3.645,-3.6523,-3.6615,-3.6586,-3.6586,-3.663,-3.7155,-3.6767,-3.6035,-3.6239,-3.5535,-3.4619,-3.4947,-3.4874,-3.4776,-3.5419,-3.5622,-3.5622,-3.5622,-3.5622,-3.5622,-3.5622,-3.569,-3.5774,-3.5774,-3.5859,-3.6282,-3.7618,-3.7398,-3.6924,-3.6814,-3.632,-3.5866,-3.5712,-3.45,-3.3377,-3.2671,-3.197,-3.1482,-3.1482,-3.1482,-3.1482,-3.1482,-3.1482,-3.1146,-3.0208,-3.0133,-2.938,-2.767,-2.7079,-2.6233,-2.4946,-2.4393,-2.3866,-2.3315,-2.3155,-2.2849,-2.2521,-2.1438,-2.0506,-1.9706,-1.8914,-1.8818,-2.6309,0.0,0.0,0.0,0.0,0.0,0.0,0.0,0.0,0.0,0.0,0.0,0.0,0.0,0.0,0.0,0.0,0.0,0.0,0.0,0.0,0.0,0.0,0.0,0.0,0.0,0.0,0.0,0.0,-3.1543,-3.2079,-3.243,-3.2825,-3.3252,-3.3549,-3.3703,-3.363,-3.3928,-3.4071,-3.4045,-3.3967,-3.4131,-3.4429,-3.3901,-3.4339,-3.5493,-3.5403,-3.5585,-3.5922,-3.5922,-3.6102,-3.6399,-3.6399,-3.638,-3.634,-3.6582,-3.6352,-3.5968,-3.6353,-3.5722,-3.4888,-3.5283,-3.4973,-3.4547,-3.528,-3.5479,-3.5522,-3.6036,-3.614,-3.6104,-3.5932,-3.5885,-3.5836,-3.5656,-3.5622,-3.5808,-3.6485,-3.6366,-3.6129,-3.6129,-3.5859,-3.5463,-3.5166,-3.4595,-3.3786,-3.2734,-3.2327,-3.1951,-3.1524,-3.1482,-3.1482,-3.1482,-3.118,-3.0598,-2.9795,-2.9302,-2.8339,-2.676,-2.6375,-2.56,-2.4393,-2.413,-2.3728,-2.3078,-2.3078,-2.2555,-2.1498,-2.1099,-2.0256,-1.9163,-1.8527,-1.8516,0.0,0.0,0.0,0.0,0.0,0.0,0.0,0.0,0.0,0.0,0.0,0.0,0.0,0.0,0.0,0.0,0.0,0.0,0.0,0.0,0.0,0.0,0.0,0.0,0.0,0.0,0.0,0.0,0.0,-3.079,-3.1698,-3.175,-3.2046,-3.264,-3.281,-3.2866,-3.2803,-3.2924,-3.2972,-3.2891,-3.2891,-3.3198,-3.3691,-3.3058,-3.3401,-3.4548,-3.4353,-3.4564,-3.5049,-3.5184,-3.5492,-3.5922,-3.5843,-3.5745,-3.5679,-3.5899,-3.5711,-3.546,-3.6019,-3.5504,-3.4702,-3.5154,-3.4812,-3.4314,-3.499,-3.5335,-3.5571,-3.6197,-3.6539,-3.6613,-3.6295,-3.6019,-3.582,-3.5749,-3.5406,-3.5165,-3.5537,-3.5622,-3.5622,-3.5622,-3.5622,-3.5453,-3.4941,-3.4539,-3.3909,-3.2788,-3.2291,-3.182,-3.1087,-3.118,-3.121,-3.1046,-3.0717,-3.0208,-2.9463,-2.859,-2.7602,-2.6302,-2.5754,-2.5065,-2.4029,-2.3853,-2.3577,-2.3078,-2.3078,-2.2494,-2.1227,-2.0782,-2.0063,-1.9061,-1.835,-1.8174,0.0,0.0,0.0,0.0,0.0,0.0,0.0,0.0,0.0,0.0,0.0,0.0,0.0,0.0,0.0,0.0,0.0,0.0,0.0,0.0,0.0,0.0,0.0,0.0,0.0,0.0,0.0,0.0,0.0,-2.9921,-3.0738,-3.084,-3.0888,-3.0925,-3.166,-3.2032,-3.196,-3.2648,-3.2972,-3.2891,-3.2891,-3.2929,-3.2955,-3.2897,-3.3338,-3.4117,-3.3785,-3.3582,-3.3539,-3.4072,-3.4293,-3.4282,-3.4031,-3.3935,-3.4027,-3.4798,-3.4485,-3.3842,-3.4626,-3.4051,-3.3172,-3.3949,-3.3946,-3.3793,-3.45,-3.5258,-3.5857,-3.578,-3.6287,-3.6851,-3.6624,-3.5822,-3.5238,-3.5931,-3.4755,-3.3914,-3.5318,-3.5622,-3.5622,-3.5622,-3.5622,-3.5577,-3.556,-3.4439,-3.3336,-3.2705,-3.1448,-3.0422,-2.9793,-3.0193,-3.0328,-2.9744,-3.0178,-3.0268,-2.963,-2.882,-2.8025,-2.7193,-2.5901,-2.484,-2.4054,-2.3477,-2.3103,-2.3078,-2.3078,-2.3078,-2.2944,-2.1353,-2.0537,-2.0431,-1.8798,-1.8018,0.0,0.0,0.0,0.0,0.0,0.0,0.0,0.0,0.0,0.0,0.0,0.0,0.0,0.0,0.0,0.0,0.0,0.0,0.0,0.0,0.0,0.0,0.0,0.0,0.0,0.0,0.0,0.0,0.0,0.0,-3.0654,-3.0753,-3.0801,-3.079,-3.0543,-3.0096,-2.9467,-3.0202,-3.0543,-3.0532,-3.1056,-3.1602,-3.2102,-3.1545,-3.1763,-3.2545,-3.2431,-3.3211,-3.4524,-3.4149,-3.4244,-3.4617,-3.4357,-3.4165,-3.408,-3.4199,-3.4037,-3.3835,-3.4659,-3.43,-3.3593,-3.4322,-3.4081,-3.3669,-3.4379,-3.4745,-3.5037,-3.5558,-3.5917,-3.6043,-3.5775,-3.5403,-3.5082,-3.4879,-3.435,-3.4084,-3.4742,-3.5284,-3.5622,-3.5622,-3.5622,-3.5622,-3.5622,-3.4802,-3.3906,-3.327,-3.2031,-3.0914,-3.0247,-3.0014,-2.9819,-2.9609,-2.94,-2.919,-2.8966,-2.7777,-2.6734,-2.6061,-2.5057,-2.4111,-2.3452,-2.3178,-2.3078,-2.3078,-2.3078,-2.2823,-2.2322,-2.1164,-2.0333,-1.9759,-1.8529,-1.8008,-2.5703,0.0,0.0,0.0,0.0,0.0,0.0,0.0,0.0,0.0,0.0,0.0,0.0,0.0,0.0,0.0,0.0,0.0,0.0,0.0,0.0,0.0,0.0,0.0,0.0,0.0,0.0,0.0,0.0,0.0,-3.0201,-3.032,-3.0247,-2.9976,-2.9381,-2.8746,-2.8104,-2.8565,-2.8782,-2.8781,-2.9597,-3.0287,-3.0814,-3.0525,-3.0891,-3.1679,-3.1391,-3.2307,-3.401,-3.391,-3.4135,-3.4507,-3.424,-3.4158,-3.4157,-3.3691,-3.3647,-3.388,-3.4412,-3.4266,-3.3853,-3.432,-3.4081,-3.3696,-3.412,-3.4436,-3.4703,-3.5248,-3.5589,-3.5732,-3.5439,-3.5265,-3.4884,-3.377,-3.3852,-3.4089,-3.3997,-3.4652,-3.5284,-3.5571,-3.5419,-3.525,-3.525,-3.4624,-3.3842,-3.2937,-3.1854,-3.0782,-2.9959,-2.9684,-2.9395,-2.8974,-2.8727,-2.8502,-2.8278,-2.686,-2.5813,-2.5412,-2.4347,-2.3568,-2.3138,-2.3078,-2.3078,-2.3078,-2.289,-2.2551,-2.2056,-2.1083,-2.0139,-1.9299,-1.8395,-1.8008,0.0,0.0,0.0,0.0,0.0,0.0,0.0,0.0,0.0,0.0,0.0,0.0,0.0,0.0,0.0,0.0,0.0,0.0,0.0,0.0,0.0,0.0,0.0,0.0,0.0,0.0,0.0,0.0,0.0,-2.8364,-2.9302,-2.9421,-2.9088,-2.8281,-2.8201,-2.8123,-2.8024,-2.7983,-2.7939,-2.7874,-2.8742,-2.9137,-2.9094,-2.9967,-3.0833,-3.1583,-3.0756,-3.0891,-3.1782,-3.3157,-3.3751,-3.3753,-3.3507,-3.3717,-3.4093,-3.3315,-3.3364,-3.3815,-3.3788,-3.3807,-3.3807,-3.3807,-3.3807,-3.3807,-3.3807,-3.4357,-3.4926,-3.4801,-3.5337,-3.5879,-3.5706,-3.5349,-3.4602,-3.2806,-3.3206,-3.3761,-3.302,-3.3686,-3.466,-3.5385,-3.4962,-3.4455,-3.4455,-3.3863,-3.2934,-3.1636,-3.0797,-2.9848,-2.8701,-2.91,-2.8993,-2.7705,-2.8143,-2.8263,-2.7625,-2.6272,-2.545,-2.5384,-2.4077,-2.3236,-2.3088,-2.3027,-2.3027,-2.3027,-2.256,-2.2226,-2.2226,-2.1086,-2.0117,-1.9278,-1.8395,-1.8008,-2.5703,0.0,0.0,0.0,0.0,0.0,0.0,0.0,0.0,0.0,0.0,0.0,0.0,0.0,0.0,0.0,0.0,0.0,0.0,0.0,0.0,0.0,0.0,0.0,0.0,0.0,0.0,0.0,-2.6834,-2.7406,-2.8339,-2.8497,-2.8195,-2.7383,-2.7295,-2.6964,-2.636,-2.6868,-2.712,-2.7105,-2.7894,-2.8241,-2.827,-2.9085,-2.9583,-2.9833,-3.0237,-3.0533,-3.084,-3.186,-3.262,-3.3182,-3.3544,-3.3786,-3.3904,-3.387,-3.3961,-3.4068,-3.3868,-3.3807,-3.3807,-3.3807,-3.3807,-3.3807,-3.3807,-3.3954,-3.4137,-3.4083,-3.4248,-3.4375,-3.4233,-3.3851,-3.333,-3.2507,-3.2703,-3.2931,-3.2537,-3.2695,-3.3114,-3.3889,-3.3846,-3.3711,-3.3711,-3.3085,-3.2469,-3.2126,-3.1066,-3.0021,-2.9225,-2.8951,-2.8301,-2.703,-2.7036,-2.6871,-2.6213,-2.5301,-2.4745,-2.468,-2.3393,-2.2596,-2.251,-2.2159,-2.1945,-2.1945,-2.1794,-2.117,-1.9981,-2.0002,-1.9865,-1.9539,-1.8502,-1.8008,0.0,0.0,0.0,0.0,0.0,0.0,-2.5659,-2.5601,0.0,0.0,0.0,0.0,0.0,0.0,0.0,0.0,0.0,0.0,0.0,0.0,0.0,0.0,0.0,0.0,0.0,0.0,0.0,-2.6024,-2.6391,-2.6861,-2.7466,-2.7605,-2.7298,-2.6484,-2.6419,-2.6173,-2.5698,-2.61,-2.6298,-2.6262,-2.7055,-2.7604,-2.7943,-2.872,-2.9294,-2.9679,-3.0179,-3.0398,-3.0436,-3.0948,-3.1852,-3.2897,-3.2924,-3.3525,-3.427,-3.3674,-3.3824,-3.4288,-3.403,-3.3921,-3.3895,-3.3834,-3.3807,-3.3807,-3.3807,-3.3807,-3.3807,-3.3807,-3.3807,-3.378,-3.3698,-3.3465,-3.3166,-3.2876,-3.2683,-3.2541,-3.2311,-3.2047,-3.2139,-3.3186,-3.3152,-3.2933,-3.2933,-3.256,-3.2212,-3.1867,-3.1187,-3.0393,-2.9496,-2.9088,-2.8279,-2.6744,-2.6587,-2.6318,-2.5674,-2.4955,-2.4416,-2.4111,-2.3053,-2.2325,-2.2002,-2.1656,-2.1493,-2.1493,-2.1267,-2.055,-1.9206,-1.9422,-1.9219,-1.8744,-1.8251,-1.8008,0.0,0.0,0.0,0.0,0.0,0.0,-2.5611,-2.5607,-2.5391,0.0,0.0,0.0,0.0,0.0,0.0,0.0,0.0,0.0,0.0,0.0,0.0,0.0,0.0,0.0,0.0,-2.4833,-2.5263,-2.5322,-2.6034,-2.6513,-2.6654,-2.6711,-2.6436,-2.5723,-2.5698,-2.5709,-2.5707,-2.5632,-2.5578,-2.5535,-2.6294,-2.7009,-2.7653,-2.8471,-2.9248,-2.9975,-3.0071,-3.0179,-3.0256,-3.0256,-3.1198,-3.2564,-3.1948,-3.2938,-3.4549,-3.308,-3.3356,-3.4398,-3.4213,-3.413,-3.4105,-3.3895,-3.3815,-3.3815,-3.3807,-3.3807,-3.3807,-3.3807,-3.3807,-3.3807,-3.378,-3.3726,-3.3643,-3.3473,-3.2927,-3.2388,-3.2214,-3.1605,-3.154,-3.2882,-3.2628,-3.2195,-3.2195,-3.2195,-3.1935,-3.1292,-3.119,-3.0723,-2.9472,-2.9294,-2.8541,-2.6582,-2.6378,-2.6108,-2.5435,-2.4852,-2.4209,-2.3502,-2.2848,-2.2172,-2.1423,-2.1343,-2.1305,-2.1305,-2.0761,-2.0054,-1.9195,-1.9135,-1.8494,-1.7445,-1.786,-1.7988,0.0,0.0,0.0,0.0,0.0,0.0,-2.5683,-2.5683,-2.5622,0.0,0.0,0.0,0.0,0.0,0.0,0.0,0.0,0.0,0.0,0.0,0.0,0.0,0.0,0.0,0.0,-2.4319,-2.4641,-2.5325,-2.555,-2.5669,-2.5756,-2.5823,-2.581,-2.5703,-2.5703,-2.5701,-2.5693,-2.5689,-2.5679,-2.5655,-2.5788,-2.5882,-2.5989,-2.6796,-2.7229,-2.739,-2.8082,-2.8756,-2.9352,-2.9352,-2.9967,-3.0948,-3.1487,-3.1962,-3.2467,-3.323,-3.3684,-3.3995,-3.4306,-3.442,-3.4375,-3.413,-3.4049,-3.3998,-3.3842,-3.3807,-3.3807,-3.3807,-3.3807,-3.378,-3.3671,-3.3633,-3.353,-3.3105,-3.2925,-3.2636,-3.2021,-3.1304,-3.095,-3.1506,-3.1512,-3.141,-3.141,-3.141,-3.136,-3.1207,-3.119,-3.0563,-2.8823,-2.8586,-2.7687,-2.5273,-2.5016,-2.4732,-2.4044,-2.3879,-2.3522,-2.2851,-2.2235,-2.1592,-2.0898,-2.0376,-2.0125,-2.0125,-1.9422,-1.8708,-1.7944,-1.8605,-1.8495,-1.7708,-1.7903,-1.7832,0.0,0.0,0.0,-2.5703,0.0,0.0,0.0,-2.5703,-2.5566,0.0,0.0,0.0,0.0,0.0,0.0,0.0,0.0,0.0,0.0,0.0,0.0,0.0,0.0,0.0,0.0,-2.3389,-2.3925,-2.4689,-2.5153,-2.5429,-2.5504,-2.5566,-2.5639,-2.5698,-2.5703,-2.5703,-2.5701,-2.5701,-2.5697,-2.5703,-2.5632,-2.5816,-2.6212,-2.6586,-2.697,-2.7387,-2.8231,-2.882,-2.9236,-2.9631,-3.0053,-3.0486,-3.0883,-3.1564,-3.234,-3.257,-3.3215,-3.3968,-3.4074,-3.4356,-3.4636,-3.4353,-3.4189,-3.4111,-3.3947,-3.3842,-3.3715,-3.3311,-3.3495,-3.378,-3.3726,-3.3698,-3.3533,-3.2832,-3.2499,-3.2237,-3.1769,-3.1235,-3.0855,-3.0874,-3.0885,-3.0865,-3.0688,-3.0649,-3.0531,-3.0142,-3.0091,-2.9654,-2.8412,-2.8033,-2.7126,-2.5177,-2.4747,-2.4358,-2.3655,-2.3595,-2.3319,-2.2706,-2.2033,-2.1415,-2.0785,-2.0156,-1.9798,-1.9798,-1.9423,-1.8886,-1.8167,-1.843,-1.8035,-1.6931,-1.7254,-1.7373,0.0,0.0,0.0,0.0,0.0,-2.5661,0.0,0.0,0.0,0.0,0.0,0.0,0.0,0.0,0.0,0.0,0.0,0.0,0.0,0.0,0.0,0.0,0.0,0.0,0.0,-2.2823,-2.3463,-2.3837,-2.4816,-2.5346,-2.5259,-2.5463,-2.5621,-2.5705,-2.5699,-2.5703,-2.5703,-2.5703,-2.5703,-2.5697,-2.5652,-2.5988,-2.6654,-2.6598,-2.7043,-2.7886,-2.8546,-2.9004,-2.9361,-2.9997,-3.0366,-3.0501,-3.0425,-3.1237,-3.234,-3.1757,-3.2434,-3.3628,-3.3544,-3.4067,-3.4697,-3.4369,-3.4248,-3.4134,-3.3845,-3.3674,-3.3403,-3.2596,-3.2834,-3.333,-3.333,-3.333,-3.3156,-3.2383,-3.1954,-3.1678,-3.15,-3.1048,-3.0672,-3.0422,-3.0266,-3.0108,-2.9929,-2.9888,-2.9685,-2.9076,-2.9011,-2.8723,-2.7993,-2.7526,-2.6732,-2.5361,-2.4844,-2.4282,-2.364,-2.3595,-2.3274,-2.2566,-2.1983,-2.137,-2.0637,-2.0092,-1.9798,-1.9798,-1.9798,-1.9423,-1.8715,-1.8316,-1.7492,-1.6188,-1.6547,-1.6875,0.0,0.0,0.0,0.0,-2.5511,0.0,0.0,0.0,0.0,0.0,0.0,0.0,0.0,0.0,0.0,0.0,0.0,0.0,0.0,0.0,0.0,0.0,0.0,0.0,0.0,0.0,-2.3791,-2.3095,-2.4444,-2.5031,-2.4387,-2.5079,-2.5576,-2.5705,-2.5709,-2.5697,-2.5703,-2.5703,-2.5703,-2.5703,-2.5683,-2.5718,-2.5754,-2.5729,-2.6178,-2.6953,-2.7045,-2.7923,-2.9311,-2.94,-2.9893,-3.0577,-3.0447,-3.0513,-3.0763,-3.1436,-3.1802,-3.2058,-3.2675,-3.3485,-3.4163,-3.388,-3.397,-3.4041,-3.3179,-3.2845,-3.2577,-3.1751,-3.1586,-3.1659,-3.1659,-3.1659,-3.1641,-3.1524,-3.1481,-3.1334,-3.0982,-3.0266,-2.9668,-2.9605,-2.9057,-2.8682,-2.9064,-2.911,-2.9076,-2.8991,-2.9011,-2.8575,-2.7354,-2.7142,-2.6448,-2.4698,-2.4472,-2.4193,-2.3653,-2.3595,-2.3082,-2.1902,-2.1745,-2.1145,-1.9961,-1.9838,-1.9798,-1.9798,-1.9798,-1.9423,-1.8715,-1.8007,-1.7278,-1.6472,-1.6646,-1.6543,0.0,0.0,0.0,0.0,0.0,0.0,-2.5543,0.0,-2.5551,0.0,0.0,0.0,0.0,0.0,0.0,0.0,0.0,0.0,0.0,0.0,0.0,0.0,0.0,0.0,0.0,0.0,0.0,0.0,0.0,-2.4956,-2.4173,-2.5006,-2.5549,-2.5636,-2.5679,-2.5696,-2.5703,-2.5703,-2.5703,-2.5703,-2.5703,-2.5683,-2.566,-2.5657,-2.6121,-2.6932,-2.7446,-2.8353,-2.9519,-2.9932,-3.0321,-3.0637,-3.0558,-3.05,-3.0552,-3.1383,-3.1698,-3.1814,-3.2583,-3.3429,-3.4208,-3.4454,-3.4169,-3.3537,-3.2538,-3.2125,-3.1851,-3.095,-3.1035,-3.1384,-3.1384,-3.1384,-3.1274,-3.0797,-3.0638,-3.0538,-3.041,-3.0033,-2.9683,-2.9485,-2.9035,-2.854,-2.803,-2.8151,-2.8163,-2.7723,-2.7655,-2.7467,-2.6956,-2.6007,-2.5137,-2.4379,-2.342,-2.2717,-2.2544,-2.2847,-2.2852,-2.2317,-2.19,-2.1315,-2.0404,-2.0029,-1.9798,-1.9798,-1.9798,-1.9423,-1.8715,-1.8394,-1.7633,-1.6503,-1.6148,-1.5996,-2.6448,0.0,0.0,0.0,0.0,0.0,0.0,0.0,0.0,0.0,0.0,0.0,0.0,0.0,0.0,0.0,0.0,0.0,0.0,0.0,0.0,0.0,0.0,0.0,0.0,0.0,0.0,-2.1808,-2.3966,-2.4868,-2.3832,-2.4876,-2.5537,-2.5604,-2.5671,-2.5696,-2.5703,-2.5703,-2.5703,-2.5703,-2.5703,-2.5703,-2.5703,-2.5702,-2.6308,-2.7382,-2.8022,-2.8917,-2.997,-3.0518,-3.0724,-3.0725,-3.0646,-3.0591,-3.0598,-3.113,-3.1333,-3.1429,-3.2006,-3.2929,-3.3942,-3.4592,-3.4374,-3.3638,-3.2349,-3.1818,-3.1427,-3.0296,-3.0354,-3.0742,-3.0742,-3.0742,-3.0595,-3.0008,-2.9807,-2.9759,-2.9783,-2.971,-2.9515,-2.917,-2.8874,-2.8363,-2.7362,-2.7384,-2.7334,-2.6776,-2.6522,-2.6471,-2.6674,-2.5276,-2.4314,-2.4366,-2.302,-2.2002,-2.1877,-2.2209,-2.2357,-2.2162,-2.1497,-2.0909,-2.032,-1.9845,-1.9573,-1.9585,-1.9585,-1.9391,-1.898,-1.8821,-1.807,-1.6754,-1.6036,-1.5752,0.0,0.0,0.0,-2.5958,0.0,0.0,0.0,0.0,-2.5415,0.0,0.0,0.0,0.0,0.0,0.0,0.0,0.0,0.0,0.0,0.0,0.0,0.0,0.0,0.0,0.0,0.0,0.0,-2.1913,-2.4039,-2.4677,-2.3037,-2.4581,-2.5537,-2.5604,-2.5671,-2.5696,-2.5703,-2.5703,-2.5703,-2.5703,-2.5703,-2.5703,-2.5703,-2.5703,-2.6641,-2.8262,-2.8281,-2.9238,-3.0757,-3.0792,-3.0804,-3.0788,-3.072,-3.065,-3.0571,-3.0491,-3.0433,-3.0436,-3.0456,-3.1564,-3.3071,-3.3806,-3.4483,-3.4708,-3.2916,-3.2127,-3.1464,-2.9857,-2.9277,-2.9067,-2.9067,-2.9067,-2.9067,-2.903,-2.903,-2.903,-2.903,-2.8965,-2.881,-2.8412,-2.8083,-2.7683,-2.7276,-2.694,-2.6725,-2.6691,-2.6099,-2.5896,-2.6607,-2.5423,-2.4574,-2.4775,-2.3767,-2.2853,-2.2315,-2.1955,-2.1454,-2.0808,-2.011,-1.9531,-1.9074,-1.9055,-1.905,-1.9045,-1.9008,-1.9246,-1.9747,-1.9044,-1.8328,-1.7523,-1.681,-1.6104,0.0,0.0,-2.5536,-2.5315,0.0,0.0,0.0,0.0,0.0,0.0,0.0,0.0,0.0,0.0,0.0,0.0,0.0,0.0,0.0,0.0,0.0,0.0,0.0,0.0,0.0,0.0,0.0,-2.1074,-2.3221,-2.413,-2.3028,-2.4587,-2.5535,-2.5603,-2.5616,-2.5659,-2.5703,-2.5703,-2.5703,-2.5703,-2.5703,-2.5703,-2.5703,-2.5703,-2.6641,-2.8301,-2.8301,-2.9277,-3.0878,-3.0878,-3.0835,-3.0804,-3.0771,-3.0724,-3.0728,-3.1164,-3.0955,-3.0546,-3.1083,-3.1626,-3.2321,-3.3698,-3.348,-3.2688,-3.2572,-3.159,-3.0413,-2.9776,-2.9435,-2.9267,-2.9267,-2.9134,-2.8994,-2.8994,-2.8994,-2.8994,-2.8994,-2.8994,-2.8929,-2.8725,-2.8005,-2.7451,-2.7561,-2.6887,-2.6236,-2.6013,-2.5761,-2.5507,-2.5253,-2.4106,-2.3335,-2.3407,-2.2128,-2.1186,-2.0976,-2.1015,-2.1138,-2.134,-2.0715,-2.0119,-1.9609,-1.9189,-1.8999,-1.902,-1.8983,-1.9284,-1.9798,-1.9527,-1.8821,-1.7567,-1.7357,-1.6585,-2.508,-2.5174,0.0,-2.5158,-2.4892,0.0,-2.479,0.0,0.0,0.0,0.0,0.0,0.0,0.0,0.0,0.0,0.0,0.0,0.0,-2.5401,0.0,0.0,0.0,0.0,0.0,0.0,-2.2853,-2.1124,-2.3014,-2.3874,0.0,0.0,-2.5537,-2.5561,-2.5593,-2.5634,-2.5701,-2.5657,-2.5634,-2.5657,-2.566,-2.5659,-2.5676,-2.5683,-2.6465,-2.7811,-2.8164,-2.9101,-3.0469,-3.0762,-3.0878,-3.0835,-3.0832,-3.0799,-3.0782,-3.1242,-3.1045,-3.0598,-3.1099,-3.146,-3.1888,-3.2967,-3.2712,-3.2037,-3.2225,-3.1401,-3.0367,-3.0269,-2.987,-2.953,-2.9788,-2.9471,-2.9071,-2.9071,-2.9021,-2.8994,-2.8994,-2.8796,-2.8645,-2.8874,-2.7743,-2.695,-2.7468,-2.6527,-2.5674,-2.5622,-2.5389,-2.5033,-2.4574,-2.3351,-2.2682,-2.2931,-2.1521,-2.0416,-2.0124,-2.0261,-2.0528,-2.0946,-2.041,-1.9804,-1.9266,-1.8695,-1.8571,-1.9007,-1.8783,-1.9196,-2.0112,-1.9626,-1.8768,-1.7567,-1.7302,-1.6585]},{"header":{"parameterUnit":"m.s-1","parameterCategory":1,"la1":30.6,"la2":29.2853,"lo1":-89.7004,"lo2":-87.6739,"dy":0.0162,"dx":0.0183,"nx":112,"ny":82,"refTime":"2023-05-03T00:00:00:Z","depth":0,"parameterNumber":3,"parameterNumberName":"V-component_of_WINDS"},"data":[0.0,0.0,0.0,0.0,0.0,0.0,0.0,0.0,0.0,0.0,0.0,0.0,0.0,0.0,0.0,0.0,0.0,0.0,0.0,0.0,0.0,0.0,0.0,0.0,0.0,0.0,0.0,0.0,0.0,0.0,0.0,0.0,0.0,0.0,0.0,0.0,0.0,0.0,0.0,0.0,0.0,0.0,0.0,0.0,0.0,0.0,0.0,0.0,0.0,0.0,0.0,0.0,0.0,0.0,0.0,0.0,0.0,0.0,0.0,0.0,0.0,0.0,0.0,0.0,0.0,0.0,0.0,0.0,0.0,0.0,0.0,0.0,0.0,0.0,0.0,0.0,0.0,0.0,0.0,0.0,0.0,0.0,0.0,0.0,0.0,0.0,0.0,0.0,0.0,0.0,0.0,-2.6685,-2.8919,-2.9325,-2.7003,-2.6246,-2.4338,-2.0715,0.0,0.0,0.0,0.0,0.0,0.0,0.0,0.0,0.0,0.0,0.0,0.0,0.0,0.0,0.0,0.0,0.0,0.0,0.0,0.0,0.0,0.0,0.0,0.0,0.0,0.0,0.0,0.0,0.0,0.0,0.0,0.0,0.0,0.0,0.0,0.0,0.0,0.0,0.0,0.0,0.0,0.0,0.0,0.0,0.0,0.0,0.0,0.0,0.0,0.0,0.0,0.0,0.0,0.0,0.0,0.0,0.0,0.0,0.0,0.0,0.0,0.0,0.0,0.0,0.0,0.0,0.0,0.0,0.0,0.0,0.0,0.0,0.0,0.0,0.0,0.0,0.0,0.0,0.0,0.0,0.0,0.0,0.0,0.0,0.0,0.0,0.0,0.0,0.0,0.0,0.0,0.0,0.0,0.0,0.0,0.0,0.0,0.0,0.0,0.0,0.0,0.0,0.0,0.0,-2.4713,-2.7507,-2.8663,-2.8578,-2.6948,-2.5132,-2.3088,-2.0639,0.0,0.0,0.0,0.0,0.0,0.0,0.0,0.0,0.0,0.0,0.0,0.0,0.0,0.0,0.0,0.0,0.0,0.0,0.0,0.0,0.0,0.0,0.0,0.0,0.0,0.0,0.0,0.0,0.0,0.0,0.0,0.0,0.0,0.0,0.0,0.0,0.0,0.0,0.0,0.0,0.0,0.0,0.0,0.0,0.0,0.0,0.0,0.0,0.0,0.0,0.0,0.0,0.0,0.0,0.0,0.0,0.0,0.0,0.0,0.0,0.0,0.0,0.0,0.0,0.0,0.0,0.0,0.0,0.0,0.0,0.0,0.0,0.0,0.0,0.0,0.0,0.0,0.0,0.0,0.0,0.0,0.0,0.0,0.0,0.0,0.0,0.0,0.0,0.0,0.0,0.0,0.0,0.0,0.0,0.0,0.0,0.0,0.0,0.0,0.0,0.0,0.0,0.0,-2.4721,-2.5274,-2.7834,-2.8464,-2.8096,-2.6499,-2.5093,-2.3383,-2.1247,-1.9957,0.0,0.0,0.0,0.0,0.0,0.0,0.0,0.0,0.0,0.0,0.0,0.0,0.0,0.0,0.0,0.0,0.0,0.0,0.0,0.0,0.0,0.0,0.0,0.0,0.0,0.0,0.0,0.0,0.0,0.0,0.0,0.0,0.0,0.0,0.0,0.0,0.0,0.0,0.0,0.0,0.0,0.0,0.0,0.0,0.0,0.0,0.0,0.0,0.0,0.0,0.0,0.0,0.0,0.0,0.0,0.0,0.0,0.0,0.0,0.0,0.0,0.0,0.0,0.0,0.0,0.0,0.0,0.0,0.0,0.0,0.0,0.0,0.0,0.0,0.0,0.0,0.0,0.0,0.0,0.0,0.0,0.0,0.0,0.0,0.0,0.0,0.0,0.0,0.0,0.0,0.0,0.0,0.0,0.0,0.0,0.0,0.0,0.0,0.0,0.0,0.0,0.0,-2.512,-2.5674,-2.7724,-2.8449,-2.7998,-2.6059,-2.4522,-2.3021,-2.1535,-2.0358,0.0,0.0,0.0,0.0,0.0,0.0,0.0,0.0,0.0,0.0,0.0,0.0,0.0,0.0,0.0,0.0,0.0,0.0,0.0,0.0,0.0,0.0,0.0,0.0,0.0,0.0,0.0,0.0,0.0,0.0,0.0,0.0,0.0,0.0,0.0,0.0,0.0,0.0,0.0,0.0,0.0,0.0,0.0,0.0,0.0,0.0,0.0,0.0,0.0,0.0,0.0,0.0,0.0,0.0,0.0,0.0,0.0,0.0,0.0,0.0,0.0,0.0,0.0,0.0,0.0,0.0,0.0,0.0,0.0,0.0,0.0,0.0,0.0,0.0,0.0,0.0,0.0,0.0,0.0,0.0,0.0,0.0,0.0,0.0,0.0,0.0,0.0,0.0,0.0,0.0,0.0,0.0,0.0,0.0,0.0,0.0,0.0,0.0,0.0,0.0,0.0,0.0,-2.5019,-2.5442,-2.7088,-2.8668,-2.8515,-2.5851,-2.2305,-2.0465,-2.1006,-1.9666,0.0,0.0,0.0,0.0,0.0,0.0,0.0,0.0,0.0,0.0,0.0,0.0,0.0,0.0,0.0,0.0,0.0,0.0,0.0,0.0,0.0,0.0,0.0,0.0,0.0,0.0,0.0,0.0,0.0,0.0,0.0,0.0,0.0,0.0,0.0,0.0,0.0,0.0,0.0,0.0,0.0,0.0,0.0,0.0,0.0,0.0,0.0,0.0,0.0,0.0,0.0,0.0,0.0,0.0,0.0,0.0,0.0,0.0,0.0,0.0,0.0,0.0,0.0,0.0,0.0,0.0,0.0,0.0,0.0,0.0,0.0,0.0,0.0,0.0,0.0,0.0,0.0,0.0,0.0,0.0,0.0,0.0,0.0,0.0,0.0,0.0,0.0,0.0,0.0,0.0,0.0,0.0,0.0,0.0,0.0,0.0,0.0,0.0,0.0,0.0,0.0,0.0,-2.4798,-2.5444,0.0,-2.8886,-2.8839,-2.781,-2.4177,-2.1105,-1.9122,0.0,0.0,0.0,0.0,0.0,0.0,0.0,0.0,0.0,0.0,0.0,0.0,0.0,0.0,0.0,0.0,0.0,0.0,0.0,0.0,0.0,0.0,0.0,0.0,0.0,0.0,0.0,0.0,0.0,0.0,0.0,0.0,0.0,0.0,0.0,0.0,0.0,0.0,0.0,0.0,0.0,0.0,0.0,0.0,0.0,0.0,0.0,0.0,0.0,0.0,0.0,0.0,0.0,0.0,0.0,0.0,0.0,0.0,0.0,0.0,0.0,0.0,0.0,0.0,0.0,0.0,0.0,0.0,0.0,0.0,0.0,0.0,0.0,0.0,0.0,0.0,0.0,0.0,0.0,0.0,0.0,0.0,0.0,0.0,0.0,0.0,0.0,0.0,0.0,0.0,0.0,0.0,0.0,0.0,0.0,0.0,0.0,0.0,0.0,0.0,0.0,0.0,-2.5646,-2.5277,-2.6003,0.0,-2.9008,-2.9012,-2.9,-2.5254,-2.1859,-1.9363,0.0,0.0,0.0,0.0,0.0,0.0,0.0,0.0,0.0,0.0,0.0,0.0,0.0,0.0,0.0,0.0,0.0,0.0,0.0,0.0,0.0,0.0,0.0,0.0,0.0,0.0,0.0,0.0,0.0,0.0,0.0,0.0,0.0,0.0,0.0,0.0,0.0,0.0,0.0,0.0,0.0,0.0,0.0,0.0,0.0,0.0,0.0,0.0,0.0,0.0,0.0,0.0,0.0,0.0,0.0,0.0,0.0,0.0,0.0,0.0,0.0,0.0,0.0,0.0,0.0,0.0,0.0,0.0,0.0,0.0,0.0,0.0,0.0,0.0,0.0,0.0,0.0,0.0,0.0,0.0,0.0,0.0,0.0,0.0,0.0,0.0,0.0,0.0,0.0,0.0,0.0,0.0,0.0,0.0,0.0,0.0,0.0,0.0,0.0,0.0,0.0,0.0,-2.6389,-2.6619,-2.7248,-2.8824,-2.8989,-2.8991,-2.9,-2.4882,-2.2306,0.0,0.0,0.0,0.0,0.0,0.0,0.0,0.0,0.0,0.0,0.0,0.0,0.0,0.0,0.0,0.0,0.0,0.0,0.0,0.0,0.0,0.0,0.0,0.0,0.0,0.0,0.0,0.0,0.0,0.0,0.0,0.0,0.0,0.0,0.0,0.0,0.0,0.0,0.0,0.0,0.0,0.0,0.0,0.0,0.0,0.0,0.0,0.0,0.0,0.0,0.0,0.0,0.0,0.0,0.0,0.0,0.0,0.0,0.0,0.0,0.0,0.0,0.0,0.0,0.0,0.0,0.0,0.0,0.0,0.0,0.0,0.0,0.0,0.0,0.0,0.0,0.0,0.0,0.0,0.0,0.0,0.0,0.0,0.0,0.0,0.0,0.0,0.0,0.0,0.0,0.0,0.0,0.0,0.0,0.0,0.0,0.0,0.0,0.0,0.0,0.0,0.0,0.0,-2.6374,-2.7585,-2.8466,-2.8953,-2.8542,-2.8427,-2.8943,-2.4882,-2.1387,-1.9252,0.0,0.0,0.0,0.0,0.0,0.0,0.0,0.0,0.0,0.0,0.0,0.0,0.0,0.0,0.0,0.0,0.0,0.0,0.0,0.0,0.0,0.0,0.0,0.0,0.0,0.0,0.0,0.0,0.0,0.0,0.0,0.0,0.0,0.0,0.0,0.0,0.0,0.0,0.0,0.0,0.0,0.0,0.0,0.0,0.0,0.0,0.0,0.0,0.0,0.0,0.0,0.0,0.0,0.0,0.0,0.0,0.0,0.0,0.0,0.0,0.0,0.0,0.0,0.0,0.0,0.0,0.0,0.0,0.0,0.0,0.0,0.0,0.0,0.0,0.0,0.0,0.0,0.0,0.0,0.0,0.0,0.0,0.0,0.0,0.0,0.0,0.0,0.0,0.0,0.0,0.0,0.0,0.0,0.0,0.0,0.0,0.0,0.0,0.0,0.0,0.0,0.0,-2.6165,-2.7345,-2.8301,-2.8934,-2.8402,-2.7922,-2.7633,-2.4814,-2.1566,-1.8034,0.0,0.0,0.0,0.0,0.0,0.0,0.0,0.0,0.0,0.0,0.0,0.0,0.0,0.0,0.0,0.0,0.0,0.0,0.0,0.0,0.0,0.0,0.0,0.0,0.0,0.0,0.0,0.0,0.0,0.0,0.0,0.0,0.0,0.0,0.0,0.0,0.0,0.0,0.0,0.0,0.0,0.0,0.0,0.0,0.0,0.0,0.0,0.0,0.0,0.0,0.0,0.0,0.0,0.0,0.0,0.0,0.0,0.0,0.0,0.0,0.0,0.0,0.0,0.0,0.0,0.0,0.0,0.0,0.0,0.0,0.0,0.0,0.0,0.0,0.0,0.0,0.0,0.0,0.0,0.0,0.0,0.0,0.0,0.0,0.0,0.0,0.0,0.0,0.0,0.0,0.0,0.0,0.0,0.0,0.0,0.0,0.0,0.0,0.0,0.0,0.0,0.0,-2.5891,-2.6385,-2.7222,-2.8819,-2.8536,-2.7511,-2.5749,-2.4783,-2.2575,-1.8625,0.0,0.0,0.0,0.0,0.0,0.0,0.0,0.0,0.0,0.0,0.0,0.0,0.0,0.0,0.0,0.0,0.0,0.0,0.0,0.0,0.0,0.0,0.0,0.0,0.0,0.0,0.0,0.0,0.0,0.0,0.0,0.0,0.0,0.0,0.0,0.0,0.0,0.0,0.0,0.0,0.0,0.0,0.0,0.0,0.0,0.0,0.0,0.0,0.0,0.0,0.0,0.0,0.0,0.0,0.0,0.0,0.0,0.0,0.0,0.0,-1.9206,0.0,0.0,0.0,0.0,0.0,0.0,0.0,0.0,0.0,0.0,0.0,0.0,0.0,0.0,0.0,0.0,0.0,0.0,0.0,0.0,0.0,0.0,0.0,0.0,0.0,0.0,0.0,0.0,0.0,0.0,0.0,0.0,0.0,0.0,0.0,0.0,0.0,0.0,0.0,0.0,0.0,-2.6249,-2.6551,-2.7233,-2.8832,-2.8608,-2.7809,-2.6483,-2.5404,-2.4247,-2.2918,-2.1268,0.0,0.0,0.0,0.0,0.0,0.0,0.0,0.0,0.0,0.0,0.0,0.0,0.0,0.0,0.0,0.0,0.0,0.0,0.0,0.0,0.0,0.0,0.0,0.0,0.0,0.0,0.0,0.0,0.0,0.0,0.0,0.0,0.0,0.0,0.0,0.0,0.0,0.0,0.0,0.0,0.0,0.0,0.0,0.0,0.0,0.0,0.0,0.0,0.0,0.0,0.0,0.0,0.0,0.0,0.0,0.0,0.0,0.0,0.0,0.0,-2.0032,0.0,0.0,0.0,0.0,0.0,0.0,0.0,0.0,0.0,0.0,0.0,0.0,0.0,0.0,0.0,0.0,0.0,0.0,0.0,0.0,0.0,0.0,0.0,0.0,0.0,0.0,0.0,0.0,0.0,0.0,0.0,0.0,0.0,0.0,0.0,0.0,0.0,0.0,0.0,0.0,-2.6099,-2.6469,-2.7134,-2.8567,-2.8522,-2.7912,-2.6698,-2.5904,-2.5104,-2.4247,-2.2111,0.0,0.0,0.0,0.0,0.0,0.0,0.0,0.0,0.0,0.0,0.0,0.0,0.0,0.0,0.0,0.0,0.0,0.0,0.0,0.0,0.0,0.0,0.0,0.0,0.0,0.0,0.0,0.0,0.0,0.0,0.0,0.0,0.0,0.0,0.0,0.0,0.0,0.0,0.0,0.0,0.0,0.0,0.0,0.0,0.0,0.0,0.0,0.0,0.0,0.0,0.0,0.0,0.0,-2.3456,-2.438,-2.5393,-2.5345,-2.4959,-2.4247,-2.2687,-2.0982,-1.9386,0.0,0.0,0.0,0.0,0.0,0.0,0.0,0.0,0.0,0.0,0.0,0.0,0.0,0.0,0.0,0.0,0.0,0.0,0.0,0.0,0.0,0.0,0.0,0.0,0.0,-2.565,-2.4646,0.0,0.0,0.0,0.0,0.0,0.0,0.0,0.0,0.0,0.0,0.0,0.0,-2.5945,-2.6512,-2.7236,-2.8377,-2.8496,-2.8034,-2.6921,-2.639,-2.555,-2.4284,-2.3381,-2.2665,0.0,0.0,0.0,0.0,0.0,0.0,0.0,0.0,0.0,0.0,0.0,0.0,0.0,0.0,0.0,0.0,0.0,0.0,0.0,0.0,0.0,0.0,0.0,0.0,0.0,0.0,0.0,0.0,0.0,0.0,0.0,0.0,-0.7621,-1.9092,0.0,0.0,0.0,0.0,0.0,0.0,0.0,0.0,0.0,0.0,0.0,0.0,0.0,0.0,-2.2716,-2.3751,-2.4265,-2.4327,-2.5375,-2.6008,-2.6158,-2.5932,-2.5742,-2.5568,-2.4207,0.0,-2.0796,-2.0767,0.0,0.0,0.0,0.0,0.0,0.0,0.0,0.0,0.0,0.0,0.0,0.0,0.0,0.0,0.0,0.0,0.0,0.0,0.0,0.0,0.0,0.0,-2.6169,-2.5754,-2.6561,-2.7203,0.0,-2.519,-2.4314,-2.4306,-2.3827,0.0,0.0,0.0,0.0,0.0,0.0,0.0,-2.638,-2.7178,-2.7967,-2.8837,-2.8929,-2.8585,-2.7714,-2.6955,-2.5855,-2.4301,-2.4063,-2.3971,-2.3897,-2.4082,0.0,0.0,0.0,0.0,0.0,0.0,0.0,0.0,0.0,0.0,0.0,0.0,0.0,0.0,0.0,0.0,0.0,0.0,0.0,0.0,0.0,0.0,0.0,0.0,0.0,0.0,0.0,0.0,0.0,-1.0456,-1.1503,-1.558,-1.5572,-1.762,0.0,0.0,0.0,0.0,0.0,0.0,0.0,0.0,0.0,-2.3881,-2.3749,-2.3758,-2.4031,-2.5152,-2.5914,-2.6288,-2.7158,-2.7951,-2.8662,-2.8529,-2.8229,-2.7783,-2.7206,-2.556,-2.3266,-2.2166,-2.1634,-2.1565,0.0,0.0,0.0,0.0,-2.2681,-2.2948,-2.313,-2.3346,0.0,0.0,0.0,0.0,0.0,0.0,0.0,0.0,0.0,0.0,0.0,0.0,0.0,-2.7762,-2.8317,-2.8896,-2.9219,-2.783,-2.6324,0.0,-2.5597,-2.543,-2.4283,0.0,0.0,0.0,0.0,0.0,-2.6525,-2.7323,-2.8013,-2.8591,-2.8863,-2.8503,-2.7236,-2.6796,-2.5915,-2.43,-2.4209,-2.4116,-2.3923,-2.4097,-2.4115,0.0,0.0,0.0,0.0,0.0,0.0,0.0,0.0,0.0,0.0,0.0,0.0,0.0,0.0,0.0,0.0,0.0,0.0,0.0,0.0,0.0,0.0,0.0,0.0,0.0,0.0,0.0,0.0,-1.2692,-1.717,-1.4199,-1.2802,-1.4744,0.0,0.0,0.0,0.0,0.0,0.0,-2.0077,-2.1167,-2.3051,-2.591,-2.638,-2.6314,-2.5789,-2.6937,-2.7831,-2.8472,-2.8994,-2.9741,-3.07,-3.0532,-3.0145,-2.9579,-2.9061,-2.7666,-2.5591,-2.3848,-2.2703,-2.211,-2.2459,-2.2699,-2.288,-2.3093,-2.3369,-2.3723,-2.3967,-2.424,-2.4455,-2.4069,0.0,-2.3964,-2.3215,0.0,0.0,0.0,0.0,-2.5645,-2.664,-2.7698,-2.872,-2.9637,-2.9966,-3.03,-3.1096,-3.0161,-2.8745,0.0,-2.7112,-2.6911,-2.5506,0.0,0.0,0.0,0.0,-2.6018,-2.6721,-2.7495,-2.8099,-2.8492,-2.8815,-2.8448,-2.7034,-2.664,-2.5926,-2.4593,-2.4145,-2.3876,-2.3714,-2.3876,-2.3876,-2.3692,0.0,0.0,0.0,0.0,0.0,0.0,0.0,0.0,0.0,0.0,0.0,0.0,0.0,0.0,0.0,0.0,0.0,0.0,0.0,0.0,0.0,0.0,0.0,0.0,0.0,0.0,0.0,0.0,0.0,-1.5993,-1.4018,0.0,0.0,0.0,0.0,-1.6738,-1.8521,-2.016,-2.1354,-2.5165,-2.7255,-2.7136,-2.9559,-3.0297,-2.9094,-2.9625,-3.0233,-3.0837,-3.0896,-3.1057,-3.1217,-3.0592,-3.0376,-3.0363,-2.8486,-2.76,-2.7293,-2.5376,-2.4211,-2.3572,-2.3399,-2.3765,-2.4404,-2.4388,-2.4421,-2.4455,-2.4455,-2.4472,-2.4625,-2.527,-2.5695,-2.5816,-2.5098,-2.5108,0.0,0.0,-2.5482,-2.5835,-2.7356,-2.8346,-2.9228,-3.0299,-3.1149,-3.1593,-3.1244,-3.1425,-3.1046,0.0,-2.736,-2.6231,-2.6476,0.0,-2.507,-2.5403,-2.6136,-2.6766,-2.7137,-2.7879,-2.8511,-2.8929,-2.8994,-2.8668,-2.7805,-2.6759,-2.5914,-2.5364,-2.4024,-2.3392,-2.3692,-2.3414,-2.3392,-2.3692,-2.3714,0.0,0.0,0.0,0.0,0.0,0.0,0.0,0.0,0.0,0.0,0.0,0.0,0.0,0.0,0.0,0.0,0.0,0.0,0.0,0.0,0.0,0.0,0.0,0.0,0.0,0.0,0.0,0.0,-1.5763,-1.4936,0.0,0.0,-1.7906,-1.9646,-2.0677,-2.1456,-2.2742,-2.4606,-2.6764,-2.834,-2.9148,-3.0248,-3.0635,-3.0326,-3.1418,-3.1608,-3.0917,-3.0978,-3.102,-3.1176,-3.0954,-3.0613,-3.0226,-2.9625,-2.8583,-2.7405,-2.7163,-2.5894,-2.4087,-2.4139,-2.4067,-2.3951,-2.4208,-2.459,-2.501,-2.501,-2.5362,-2.5748,-2.5596,-2.5609,-2.57,-2.5717,-2.6137,-2.6742,-2.7478,-2.7677,-2.7924,-2.9011,-2.9653,-3.0263,-3.1166,-3.1754,-3.2224,-3.2551,-3.2717,-3.2508,-3.1305,-2.9762,-2.8456,-2.7813,-2.7143,-2.6871,-2.7239,-2.7777,-2.7982,-2.7629,-2.8282,-2.8571,-2.7971,-2.8129,-2.7839,-2.6758,-2.6081,-2.5315,-2.4366,-2.3815,-2.3392,-2.3069,-2.3566,-2.3606,-2.3069,-2.3692,-2.3958,0.0,0.0,0.0,0.0,0.0,0.0,0.0,0.0,0.0,0.0,0.0,0.0,0.0,0.0,0.0,0.0,0.0,0.0,0.0,0.0,0.0,0.0,0.0,0.0,0.0,0.0,-1.6997,-1.6778,-1.645,-1.6401,-1.667,-1.8305,-2.0121,-2.1935,-2.2649,-2.3891,-2.5755,-2.7437,-2.8869,-2.9835,-3.0486,-3.0868,-3.1089,-3.168,-3.166,-3.096,-3.1011,-3.0982,-3.0962,-3.1203,-3.0999,-3.0424,-3.0317,-2.9459,-2.8284,-2.855,-2.7339,-2.5329,-2.5425,-2.5061,-2.4518,-2.4941,-2.5244,-2.5494,-2.5647,-2.6067,-2.6436,-2.5967,-2.6,-2.6219,-2.6565,-2.7142,-2.7893,-2.8704,-2.894,-2.9132,-2.9915,-3.0456,-3.1016,-3.1806,-3.2344,-3.2797,-3.3288,-3.3406,-3.3271,-3.2763,-3.1462,-3.0144,-2.9076,-2.8472,-2.8224,-2.8493,-2.8762,-2.8795,-2.8408,-2.8843,-2.8846,-2.7971,-2.8123,-2.7609,-2.5965,-2.5903,-2.5255,-2.3629,-2.3682,-2.3466,-2.2738,-2.3496,-2.3537,-2.2721,-2.3566,-2.3917,-2.3692,0.0,0.0,0.0,0.0,0.0,0.0,0.0,0.0,0.0,0.0,0.0,0.0,0.0,0.0,0.0,0.0,0.0,0.0,0.0,0.0,0.0,0.0,0.0,-1.4508,-1.5848,-1.728,-1.903,-1.8488,-1.8333,-1.916,-1.8807,-1.904,-2.002,-2.1911,-2.3524,-2.4492,-2.7288,-2.8983,-2.9106,-3.0401,-3.1121,-3.136,-3.0593,-3.051,-3.105,-3.1225,-3.1026,-3.063,-3.1401,-3.1511,-3.1073,-3.0424,-3.0129,-3.007,-2.9407,-2.8444,-2.7414,-2.7279,-2.6818,-2.6262,-2.6626,-2.6363,-2.5832,-2.6277,-2.645,-2.645,-2.6519,-2.6952,-2.7537,-2.7715,-2.8289,-2.8895,-2.9039,-2.9076,-2.9262,-3.0023,-3.0734,-3.1444,-3.2171,-3.2899,-3.344,-3.3474,-3.3474,-3.3474,-3.344,-3.2273,-3.1055,-3.0311,-2.9567,-2.9076,-2.9096,-2.9096,0.0,-2.9472,-2.954,-2.9395,-2.9034,-2.9006,-2.8052,-2.5747,-2.6304,-2.5755,-2.3383,-2.3692,-2.358,-2.273,-2.3147,-2.317,-2.2738,-2.3369,-2.3692,-2.3714,0.0,0.0,0.0,0.0,0.0,0.0,0.0,0.0,0.0,0.0,0.0,0.0,0.0,0.0,0.0,0.0,0.0,0.0,0.0,0.0,0.0,0.0,-1.1851,-1.3033,-1.438,-1.5639,-1.6805,-1.7749,-1.863,-1.9377,-2.0236,-2.1063,-2.1893,-2.3638,-2.5137,-2.6253,-2.7663,-2.8624,-2.9112,-2.9783,-3.0202,-3.0277,-2.9997,-3.0064,-3.029,-3.0334,-3.0635,-3.112,-3.0878,-3.1037,-3.1358,-3.0836,-3.0353,-2.9884,-2.9837,-2.9404,-2.8717,-2.8046,-2.7118,-2.6196,-2.6161,-2.5727,-2.5176,-2.5307,-2.5346,-2.5502,-2.6433,-2.7202,-2.7954,-2.8887,-2.9727,-3.051,-3.1089,-3.132,-3.1546,-3.2307,-3.2645,-3.2983,-3.3711,-3.4049,-3.4336,-3.4895,-3.5013,-3.4844,-3.4303,-3.3863,-3.3186,-3.1901,-3.1512,-3.119,-3.0666,-3.0581,0.0,-2.9986,-2.9955,-2.9685,-2.9059,-2.9008,-2.8388,-2.6861,-2.6247,-2.5304,-2.3789,-2.3285,-2.285,-2.2443,-2.2937,-2.3298,-2.3414,-2.3369,-2.3566,0.0,0.0,0.0,0.0,0.0,0.0,0.0,0.0,0.0,0.0,0.0,0.0,0.0,0.0,0.0,0.0,0.0,0.0,0.0,0.0,0.0,0.0,-1.2275,-1.2428,-1.3106,-1.4311,-1.5599,-1.7119,-1.8312,-1.9372,-2.0289,-2.1095,-2.181,-2.2585,-2.4257,-2.562,-2.6416,-2.7691,-2.8578,-2.8949,-2.9337,-2.9518,-2.9661,-2.9727,-2.9846,-2.9956,-3.0216,-3.0474,-3.0732,-3.1068,-3.1302,0.0,-3.1478,-3.1139,-3.0513,-3.066,-3.0235,0.0,0.0,0.0,0.0,0.0,-2.5487,-2.5298,-2.5013,-2.4902,-2.5053,-2.6086,-2.7033,-2.7988,-2.9048,-3.0075,-3.1046,-3.1849,-3.215,-3.2401,-3.3203,-3.3643,-3.3964,-3.4387,-3.4742,-3.5081,-3.552,-3.5622,-3.5487,-3.5047,-3.4962,0.0,-3.3406,-3.2949,-3.251,-3.1765,-3.1647,-3.1376,-3.0666,-3.0565,-3.0277,-2.9533,-2.9448,-2.8795,-2.7125,-2.6561,0.0,0.0,0.0,-2.3099,-2.2767,-2.2806,0.0,0.0,0.0,-2.3392,-2.3795,0.0,0.0,0.0,-2.5603,-2.6532,0.0,0.0,0.0,0.0,0.0,0.0,0.0,0.0,0.0,0.0,0.0,0.0,0.0,0.0,0.0,0.0,-1.33,-1.3621,-1.4249,-1.5184,-1.6584,-1.8588,-1.9356,-2.0139,-2.1444,-2.1652,-2.1957,-2.2637,-2.4346,-2.5546,-2.5961,0.0,0.0,0.0,0.0,-2.918,-2.9341,-2.9611,-2.9792,-2.9792,-3.0482,-3.0572,-3.0176,-3.143,-3.1802,-3.1419,-3.2062,-3.2052,-3.1565,-3.1565,-3.0901,-2.99,-2.9478,-2.8583,-2.74,-2.6047,-2.5663,-2.577,-2.5199,0.0,0.0,-2.5821,-2.6802,-2.7817,-2.8653,-2.9781,-3.0933,-3.1842,-3.2236,-3.2572,-3.3415,-3.4134,-3.4624,-3.4624,-3.5131,-3.5622,-3.5622,-3.5622,-3.5622,-3.5622,-3.5622,-3.5402,-3.4742,-3.4015,-3.3271,-3.2527,-3.2408,-3.2138,-3.141,-3.1309,-3.1038,-3.0311,0.0,0.0,-2.7148,-2.7208,-2.6293,-2.3812,-2.3835,-2.376,-2.3422,-2.2699,-2.2615,-2.3299,-2.3239,-2.3265,-2.3401,-2.4754,-2.5495,-2.5715,-2.7034,-2.7714,0.0,0.0,0.0,0.0,0.0,0.0,0.0,0.0,0.0,0.0,0.0,0.0,0.0,0.0,0.0,-1.4554,-1.4698,-1.491,-1.5732,-1.6238,-1.6885,-1.7858,-1.8799,-2.0059,-2.1588,-2.2701,-2.3367,-2.3564,-2.5595,-2.6889,-2.6988,-2.8815,0.0,-2.9241,-2.9367,-2.9401,-2.9131,-2.9353,-2.9611,-2.9792,0.0,0.0,-3.0725,-3.056,-3.1067,-3.2103,-3.1573,-3.1636,-3.2054,-3.1926,-3.1481,-3.0881,-2.9734,-2.8545,-2.7393,-2.724,-2.6509,-2.5652,-2.5531,-2.5485,-2.5637,-2.6688,-2.7208,-2.7578,-2.8709,-2.9996,0.0,-3.1954,-3.3029,-3.4061,-3.4897,-3.5228,-3.5402,-3.5402,-3.552,-3.5622,-3.5622,-3.5622,-3.5622,-3.5622,-3.5622,-3.5571,-3.5419,-3.4776,-3.4032,-3.3305,-3.3186,-3.2916,-3.2171,-3.211,-3.1782,-3.1072,-3.0987,-3.0328,-2.867,-2.803,-2.6962,-2.5287,-2.4143,-2.3481,-2.3393,-2.2699,-2.2483,-2.2832,-2.3084,-2.3649,-2.4581,-2.5129,-2.6082,-2.7328,-2.6998,-2.7181,0.0,0.0,0.0,0.0,0.0,0.0,0.0,0.0,0.0,0.0,0.0,-1.5177,0.0,0.0,-1.4401,-1.5165,-1.5497,-1.5825,-1.6406,-1.6613,-1.726,-1.8589,-1.9241,-2.0456,-2.2522,-2.3312,-2.3782,-2.4121,-2.563,-2.6729,-2.7261,-2.858,-2.9437,-2.9701,-2.967,-2.9553,-2.9365,-2.9398,-2.9509,-2.9599,-2.9702,-2.9998,-3.033,-3.041,-3.0844,-3.1599,-3.1609,-3.1805,-3.2051,-3.1966,-3.1611,-3.108,-3.0659,-2.9776,-2.8645,-2.7897,-2.7156,-2.6497,-2.5839,-2.5615,-2.5766,-2.6682,-2.7116,-2.7519,-2.8808,-2.9817,-3.0826,-3.2315,-3.3244,-3.4043,-3.5182,-3.5566,-3.5622,-3.5622,-3.5622,-3.5723,-3.6113,-3.6197,-3.6197,-3.6197,-3.6197,-3.6079,-3.569,-3.5301,-3.481,-3.4066,-3.3947,-3.3541,-3.2425,-3.2313,-3.2002,-3.1275,-3.119,-3.0751,-2.9634,-2.8146,-2.6793,-2.5676,-2.456,-2.3765,-2.341,-2.3054,-2.2903,-2.3048,-2.3543,-2.426,-2.5207,-2.6144,-2.6998,-2.7787,-2.7805,-2.8026,0.0,0.0,0.0,0.0,0.0,0.0,0.0,0.0,-1.5102,-1.6568,-1.6138,-1.5511,-1.5814,-1.5501,-1.5371,-1.5604,-1.6285,-1.6837,-1.7129,-1.717,-1.796,-2.0117,-2.0053,-2.0958,-2.3486,-2.3824,-2.4068,-2.4551,-2.5523,-2.6466,-2.7455,-2.8418,-2.9276,-3.0157,-2.9796,-2.9634,-2.9525,-2.9376,-2.9341,-2.9353,-2.9611,-2.9792,-2.9792,-3.0419,-3.0758,-3.097,-3.1856,-3.2173,-3.2097,-3.1998,-3.1738,-3.1333,-3.1565,-3.1143,-3.0205,-2.8725,-2.8068,-2.7748,-2.6752,-2.6255,-2.6176,-2.6811,-2.724,-2.776,-2.8828,-2.9704,-3.0604,-3.2368,-3.308,-3.3582,-3.4764,-3.5148,-3.5241,-3.5392,-3.5425,-3.5609,-3.6387,-3.667,-3.6784,-3.6806,-3.6907,-3.6755,-3.5977,-3.5842,-3.5588,-3.4827,-3.4709,-3.4218,-3.2882,-3.2577,-3.2222,-3.1478,-3.1275,-3.0903,-3.0176,-2.8281,-2.6826,-2.6082,-2.5338,-2.4594,-2.3849,-2.368,-2.3613,-2.3613,-2.4207,-2.4925,-2.5755,-2.7061,-2.7816,-2.8044,-2.8705,-2.8994,-2.2156,-2.1933,-2.0788,-2.045,-1.8319,-1.6847,0.0,0.0,-1.8308,-1.9307,-1.8395,-1.7417,-1.7375,-1.644,-1.5927,-1.6453,-1.7624,-1.8658,-1.8875,-1.8919,-1.9736,-2.1988,-2.1088,-2.1251,-2.3514,-2.4354,-2.4832,-2.5019,-2.6263,-2.7411,-2.8168,-2.9352,-3.0171,-3.045,-3.0036,-2.9618,-2.9304,-2.8991,-2.8961,-2.9131,-2.9624,-2.9792,-2.9792,-2.9869,-3.0279,-3.0957,-3.2101,-3.2506,-3.2338,-3.2332,-3.2326,-3.2224,-3.1723,-3.1438,-3.127,-3.0461,-2.9654,-2.8971,-2.9122,-2.8583,-2.7883,-2.8248,-2.8419,-2.8501,-2.8651,-2.9863,-3.1288,-3.1548,-3.2458,-3.3451,-3.3582,-3.3751,-3.3947,-3.4575,-3.4719,-3.4907,-3.558,-3.6257,-3.6738,-3.6797,-3.733,-3.755,-3.6772,-3.6654,-3.6383,-3.5605,-3.5504,-3.5199,-3.4353,-3.3677,-3.2983,-3.2239,-3.1579,-3.0903,-3.0176,-2.9262,-2.8399,-2.7587,-2.686,-2.6116,-2.5389,-2.4712,-2.4388,-2.4388,-2.4741,-2.5502,-2.665,-2.7069,-2.7822,-2.8888,-2.8957,-2.8994,-2.3077,-2.2257,0.0,0.0,-1.8134,-1.7418,-1.7402,-1.7308,-1.7541,-1.8399,-1.7746,-1.7054,-1.7247,-1.66,-1.6219,0.0,-1.7844,-1.8862,-1.9184,-1.9573,-2.0358,-2.1985,-2.1458,-2.1827,-2.4181,-2.4723,-2.5061,-2.5372,-2.6229,-2.7018,-2.7673,-2.84,-2.9086,-2.941,-2.9389,-2.9294,-2.916,-2.8952,-2.9048,-2.937,-2.9369,-2.9546,-2.9792,-2.9792,-3.0011,-3.0279,-3.1145,-3.1663,-3.1869,-3.2299,-3.2431,-3.2424,-3.2339,-3.1988,-3.1427,-3.0557,-3.0134,-2.9822,-2.9245,-2.888,-2.87,-2.8877,-2.8877,-2.9005,-2.954,-3.0238,-3.1025,-3.175,-3.2687,-3.3567,-3.3905,-3.4367,-3.4745,-3.4617,-3.4904,-3.5262,-3.5582,-3.6185,-3.6713,-3.6754,-3.7331,-3.7636,-3.6887,-3.6774,-3.6671,-3.6349,-3.591,-3.5351,-3.459,-3.4218,-3.3592,-3.2408,-3.163,-3.1072,-3.0768,-3.0057,-2.9313,-2.8552,-2.7774,-2.6826,-2.5659,-2.5304,-2.5135,-2.5135,-2.5502,-2.6161,-2.7087,-2.7611,-2.8146,-2.8658,-2.8905,-2.8994,-2.3275,0.0,0.0,-1.8397,-1.782,-1.7552,-1.6531,-1.6718,-1.7236,-1.7945,-1.7327,-1.6736,-1.7152,-1.6595,-1.6273,-1.6647,-1.8146,-1.937,-1.9177,-1.9953,-2.0743,-2.1444,-2.1126,-2.1786,-2.3934,-2.4491,-2.5013,-2.5625,-2.6025,-2.6487,-2.7205,-2.7593,-2.7988,-2.8794,-2.8845,-2.898,-2.9069,-2.9183,-2.9354,-2.9537,-2.9548,-2.9526,-2.9624,-2.9714,-2.9792,-2.9869,-3.033,-3.0833,-3.1281,-3.2114,-3.2384,-3.2416,-3.278,-3.2471,-3.1763,-3.0746,-3.044,-3.0377,-2.9463,-2.913,-2.9139,-2.9251,-2.9307,-2.9451,-3.0205,-3.0586,-3.0983,-3.2099,-3.2828,-3.3398,-3.3995,-3.4585,-3.4924,-3.4651,-3.4965,-3.5341,-3.5609,-3.6204,-3.6689,-3.6669,-3.73,-3.76,-3.6812,-3.692,-3.6928,-3.6525,-3.6144,-3.5673,-3.4895,-3.4624,-3.3914,-3.2483,-3.1799,-3.141,-3.1207,-3.0717,-3.0091,-2.9347,-2.8772,-2.7739,-2.6285,-2.6218,-2.6116,-2.5913,-2.6199,-2.6674,-2.7303,-2.7946,-2.8316,-2.842,-2.8797,-2.9104,0.0,0.0,-1.8433,-1.8436,-1.7725,-1.7147,-1.7937,-1.8455,-1.8912,-1.9364,-1.8265,-1.7251,-1.7609,-1.6669,-1.6032,-1.6613,-1.8932,-2.0364,-1.9384,-2.0062,-2.0751,-2.0452,-2.0133,-2.0498,0.0,-2.3509,-2.4708,-2.5606,-2.5752,-2.6211,-2.7472,-2.7363,-2.7788,-2.8903,-2.8851,-2.8969,-2.9412,-2.9804,-2.9785,-2.9338,-3.0171,-3.0057,-2.9131,-2.9624,-2.9792,-2.9869,-3.033,-3.0607,-3.0758,-3.1896,-3.2403,-3.2407,-3.28,-3.2882,-3.2697,-3.1411,-3.0816,-3.0598,-3.0524,-2.9925,-2.917,-2.9624,-2.9797,-2.9855,-3.0184,-3.0743,-3.1455,-3.2302,-3.2497,-3.2662,-3.3351,-3.3531,-3.3711,-3.4325,-3.4553,-3.474,-3.5368,-3.6104,-3.6625,-3.6708,-3.731,-3.755,-3.6846,-3.7308,-3.7258,-3.586,-3.6281,-3.6468,-3.569,-3.4945,-3.3914,-3.2483,-3.2256,-3.1968,-3.1258,-3.1173,-3.0852,-3.0125,-3.0057,-2.9347,-2.7789,-2.7722,-2.7418,-2.6674,-2.6691,-2.6889,-2.7303,-2.7707,-2.8075,-2.842,-2.8797,-2.9439,-2.1041,-1.9896,-1.8529,-1.7046,-1.6813,-1.6868,-1.6697,-1.67,-1.6778,-1.6559,-1.5885,-1.5318,-1.5026,-1.496,-1.5348,-1.655,-1.8925,-2.0402,-2.017,-2.1717,-2.2143,-2.0223,-2.1063,0.0,0.0,0.0,0.0,-2.5264,-2.5566,-2.5888,-2.6319,-2.6555,-2.6761,-2.6804,-2.7714,-2.8299,-2.8484,-2.9281,-2.9746,-2.9804,-3.0041,-2.9739,-2.9131,-2.9624,-2.9792,-2.9792,-2.9998,-3.0266,-3.0607,-3.1057,-3.1589,-3.2259,-3.2469,-3.2638,-3.2652,-3.2108,-3.1738,-3.1323,-3.0321,-2.9832,-2.9783,-3.0055,-3.0404,-3.0887,-3.1323,-3.1649,-3.2065,-3.2779,-3.3034,-3.332,-3.3978,-3.4487,-3.4771,-3.4532,-3.4831,-3.509,-3.4861,-3.5347,-3.5882,-3.589,-3.6476,-3.6886,-3.6667,-3.6883,-3.6761,-3.5759,-3.5816,-3.591,-3.5656,-3.4962,-3.4117,-3.3136,-3.2577,-3.1985,-3.1258,-3.119,-3.0886,-3.0159,-3.0108,-2.9431,-2.7857,-2.7789,-2.7469,-2.6708,-2.6691,-2.6758,-2.6906,-2.7303,-2.7707,-2.8075,-2.8438,-2.9168,-1.9183,-1.8494,-1.7665,-1.5891,-1.6048,-1.6401,-1.5873,-1.5671,-1.5384,-1.4903,-1.4315,-1.3808,-1.3534,-1.3621,-1.4205,-1.5698,-1.812,-1.9878,-1.996,-2.1536,-2.1933,-1.998,-2.0679,0.0,0.0,0.0,0.0,-2.5082,-2.5625,-2.6035,-2.6182,-2.6172,-2.6162,-2.6191,-2.7119,-2.7799,-2.8258,-2.916,-2.9727,-3.0064,-2.9618,-2.9246,-2.8895,-2.9234,-2.939,-2.9546,-2.9546,-2.9831,-3.033,-3.0545,-3.0983,-3.1589,-3.2187,-3.2455,-3.2513,-3.24,-3.2266,-3.1848,-3.0425,-3.0066,-3.0253,-3.0487,-3.0898,-3.1349,-3.2065,-3.2308,-3.2549,-3.3324,-3.3642,-3.3931,-3.4666,-3.5175,-3.5385,-3.4951,-3.519,-3.5385,-3.4936,-3.519,-3.5504,-3.5504,-3.5894,-3.6228,-3.6228,-3.6238,-3.6222,-3.6032,-3.5564,-3.5305,-3.5549,-3.5199,-3.4607,-3.388,-3.3355,-3.2662,-3.1664,-3.1579,-3.1275,-3.0548,-3.0497,-2.9939,-2.8687,-2.8383,-2.7875,-2.7114,-2.6826,-2.6691,-2.6691,-2.7115,-2.7517,-2.7897,-2.8219,-2.9196,-1.6605,-1.5958,-1.5767,-1.5194,-1.5391,-1.5724,-1.5697,-1.5239,-1.4816,-1.4295,-1.3386,-1.2656,0.0,0.0,-1.2766,-1.4365,-1.6985,-1.8807,-1.8857,-1.9941,-2.0516,0.0,0.0,0.0,0.0,0.0,0.0,-2.5166,0.0,-2.6543,-2.6992,-2.623,-2.6143,-2.6953,-2.6929,-2.7494,-2.8588,-2.9349,-2.9877,-3.0037,-2.9082,-2.8562,-2.8467,-2.8443,-2.8657,-2.9052,-2.9052,-2.9378,-2.9869,-3.033,-3.0532,-3.0683,-3.1882,-3.2345,-3.2349,-3.2375,-3.2386,-3.2204,-3.105,-3.06,-3.0636,-3.0991,-3.116,-3.1381,-3.2416,-3.2718,-3.2976,-3.3942,-3.4218,-3.4431,-3.526,-3.5504,-3.5504,-3.5504,-3.5504,-3.5504,-3.5504,-3.5504,-3.5504,-3.5504,-3.5504,-3.5504,-3.5504,-3.5489,-3.5773,-3.6524,-3.5457,-3.4845,-3.5513,-3.5594,-3.5273,-3.4573,-3.4489,-3.3897,-3.2449,-3.2313,-3.1968,-3.1241,-3.119,-3.0869,-3.0142,-2.9381,-2.8619,-2.7806,-2.708,-2.6691,-2.6691,-2.7083,-2.7487,-2.7869,-2.8273,-2.9479,-1.424,-1.3918,-1.4132,-1.4221,-1.4417,-1.457,-1.4149,-1.3729,-1.2996,-1.1294,-1.0319,-0.9869,0.0,0.0,0.0,-1.5439,-1.7298,0.0,-2.1164,-2.2189,0.0,-2.1073,0.0,-2.3453,-2.2835,-2.4405,0.0,0.0,-2.5894,-2.623,-2.6973,-2.6514,-2.6318,-2.6543,-2.6778,-2.704,-2.7315,-2.8642,-2.9353,-2.9648,-2.9114,-2.8675,-2.8316,-2.8079,-2.8303,-2.8882,-2.8882,-2.9209,-2.9792,-2.9921,-3.0216,-3.0495,-3.0921,-3.122,-3.1576,-3.2181,-3.2412,-3.2372,-3.2052,-3.1626,-3.1228,-3.1147,-3.1682,-3.2534,-3.31,-3.3404,-3.3586,-3.4376,-3.4395,-3.4352,-3.5115,-3.5359,-3.5504,-3.5504,-3.5504,-3.5504,-3.5504,-3.5504,-3.5504,-3.5504,-3.5504,-3.5504,-3.5504,-3.5469,-3.5596,-3.576,-3.5096,-3.477,-3.5515,-3.5131,-3.4768,-3.453,-3.4489,-3.3897,-3.2449,-3.2313,-3.1968,-3.1241,-3.119,-3.0869,-3.0142,-2.9381,-2.8619,-2.7806,-2.708,-2.6691,-2.6691,-2.6808,-2.7051,-2.7487,-2.8464,-2.9681,-1.2182,-1.2487,-1.3094,-1.2567,-1.3002,-1.3322,-1.2944,-1.2202,-1.1295,-1.0059,-0.8923,0.0,0.0,0.0,0.0,0.0,0.0,0.0,-2.1027,-2.2034,-2.235,0.0,-2.33,0.0,-2.3285,-2.4694,-2.5922,0.0,-2.6433,-2.6686,-2.7275,-2.6719,-2.6475,-2.666,-2.6438,-2.6668,-2.722,-2.8362,-2.8854,-2.8885,-2.8665,-2.8362,-2.7859,-2.7415,-2.7708,-2.8407,0.0,-2.8566,-2.9378,-2.9378,-2.9689,-3.0152,-3.0482,-3.0758,-3.0996,-3.1736,-3.2187,-3.2335,-3.2097,-3.2137,-3.2255,-3.19,-3.2103,-3.262,-3.3172,-3.3645,-3.401,-3.423,-3.4332,-3.4543,-3.4978,-3.5213,-3.5359,-3.5359,-3.5439,-3.5504,-3.5504,-3.5504,-3.5504,-3.5504,-3.5504,-3.5504,-3.5504,-3.5504,-3.5499,-3.5505,-3.4912,-3.467,-3.5058,-3.4821,-3.4587,-3.4576,-3.4829,-3.4523,-3.3339,-3.2966,-3.2459,-3.1715,-3.1376,-3.1004,-3.0598,-2.9871,-2.9262,-2.8839,-2.7757,-2.7182,-2.7182,-2.686,-2.6987,-2.7577,-2.8264,-2.95,-1.0078,-1.0943,-1.2006,-1.0896,-1.1368,-1.201,-1.169,-1.0552,-0.9531,-0.9293,0.0,-0.7155,-0.7208,-0.8072,-0.9327,-1.1168,0.0,-1.6423,-2.0071,-2.0856,-2.1517,-2.2845,-2.3012,-2.3178,-2.3399,-2.4023,-2.5063,-2.6853,-2.6965,-2.7161,-2.7666,-2.6904,-2.6592,-2.6836,-2.6123,-2.6294,-2.7494,-2.8154,-2.8309,-2.8021,-2.7887,-2.762,-2.7208,-2.6724,-2.6952,-2.7744,0.0,0.0,-2.8633,-2.8791,-2.9131,-2.9702,-3.0266,-3.0469,-3.0545,-3.1132,-3.1736,-3.2119,-3.1673,-3.215,-3.2891,-3.2786,-3.2425,-3.2259,-3.3082,-3.3763,-3.4148,-3.3849,-3.4244,-3.4698,-3.4802,-3.5016,-3.5213,-3.5213,-3.5359,-3.5504,-3.5504,-3.5504,-3.5504,-3.5504,-3.5504,-3.5504,-3.5504,-3.5504,-3.5504,-3.5504,-3.4921,-3.4497,-3.4509,-3.4452,-3.448,-3.4592,-3.5098,-3.5211,-3.4556,-3.3914,-3.3186,-3.2364,-3.1681,-3.1292,-3.119,-3.0497,-3.0108,-3.0108,-2.8704,-2.7977,-2.7977,-2.7215,-2.7206,-2.7895,-2.8028,-2.9215,-0.74,-0.8049,-0.9482,-0.9995,-1.0272,-1.0168,-0.9349,-0.8639,0.0,0.0,0.0,-0.5202,-0.575,-0.6713,0.0,-1.2182,0.0,0.0,0.0,0.0,-2.1362,0.0,0.0,0.0,0.0,0.0,0.0,0.0,0.0,-2.6045,-2.7227,-2.7065,-2.6621,-2.5986,-2.581,-2.611,-2.704,-2.7136,-2.7442,-2.8021,-2.7396,-2.7062,-2.6965,-2.6289,-2.644,-2.7099,-2.7008,0.0,-2.8051,-2.8554,-2.8882,-2.904,-2.9689,-2.9921,-2.9998,-3.0545,-3.0833,-3.097,-3.1396,-3.1334,-3.1213,-3.2358,-3.2651,-3.2765,-3.3654,-3.3656,-3.3492,-3.4119,-3.4461,-3.4698,-3.4698,-3.4964,-3.5213,-3.5213,-3.5359,-3.5504,-3.5504,-3.5504,-3.5504,-3.5504,-3.5504,-3.5504,-3.5504,-3.5504,-3.5504,-3.5504,-3.4921,-3.449,-3.448,-3.3998,-3.3927,-3.4529,-3.4688,-3.4688,-3.4513,-3.437,-3.3728,-3.2415,-3.2195,-3.1833,-3.1224,-3.0497,-3.0108,-3.0108,-2.9228,-2.8789,-2.8772,-2.801,-2.7691,-2.7845,-2.8566,-2.9478,-0.6796,-0.7641,-0.9086,-0.9324,-0.919,-0.8754,-0.8093,0.0,0.0,0.0,-0.484,-0.457,-0.4893,0.0,0.0,0.0,0.0,0.0,0.0,0.0,0.0,0.0,0.0,0.0,0.0,0.0,0.0,0.0,0.0,-2.5784,-2.7122,-2.6827,-2.6504,-2.6084,-2.5859,-2.6014,-2.6678,-2.6678,-2.6832,-2.7243,-2.6883,-2.6727,-2.6751,-2.6141,-2.6171,-2.6774,-2.6507,0.0,-2.7348,-2.7684,-2.7995,-2.8383,-2.904,-2.9287,-2.9365,-2.9973,-3.033,-3.0607,-3.0908,-3.1022,-3.1175,-3.1837,-3.1952,-3.1853,-3.229,-3.2498,-3.2721,-3.3206,-3.3636,-3.4031,-3.4414,-3.4817,-3.5001,-3.5001,-3.5294,-3.5504,-3.5504,-3.5504,-3.5504,-3.5504,-3.5504,-3.5504,-3.5504,-3.5504,-3.5504,-3.5504,-3.522,-3.4876,-3.4517,-3.4197,-3.3998,-3.4012,-3.4381,-3.4587,-3.4535,-3.4516,-3.4015,-3.2933,-3.2493,-3.1952,-3.1224,-3.0852,-3.0666,-3.0666,-2.9956,-2.9567,-2.9567,-2.8399,-2.8099,-2.8699,-2.8983,-2.9864,-0.5836,-0.7001,-0.814,-0.8206,-0.7808,-0.7231,-0.69,-0.5995,0.0,0.0,-0.4615,-0.4294,-0.446,0.0,0.0,0.0,0.0,0.0,0.0,0.0,0.0,0.0,0.0,0.0,0.0,0.0,0.0,0.0,0.0,0.0,-2.6988,-2.6584,-2.6238,-2.625,-2.5918,-2.5927,-2.6304,-2.6314,-2.6315,-2.6319,-2.632,-2.632,-2.6235,-2.5851,-2.5849,-2.6098,-2.589,0.0,0.0,-2.6809,-2.7196,-2.7649,-2.8303,-2.8633,-2.8724,-2.9378,-2.9896,-3.0317,-3.0393,-3.0709,-3.1158,-3.1158,-3.099,-3.0895,-3.1066,-3.1446,-3.1906,-3.2208,-3.257,-3.3157,-3.3962,-3.4385,-3.4721,-3.5001,-3.5294,-3.5504,-3.5504,-3.5504,-3.5504,-3.5504,-3.5504,-3.5504,-3.5504,-3.5504,-3.5504,-3.5504,-3.5504,-3.531,-3.4756,-3.4562,-3.4301,-3.3775,-3.4218,-3.4561,-3.4628,-3.4705,-3.4353,-3.3463,-3.2849,-3.2188,-3.1461,-3.1275,-3.119,-3.119,-3.0632,-3.0345,-3.0345,-2.8975,-2.8764,-2.9644,-2.9341,-3.0082,-0.2815,-0.3583,-0.4957,-0.5984,-0.5735,-0.5222,-0.5249,0.0,0.0,-0.3586,-0.3453,-0.3622,-0.4349,-0.4838,0.0,0.0,0.0,0.0,0.0,0.0,0.0,0.0,0.0,0.0,0.0,0.0,0.0,0.0,0.0,0.0,-2.6548,-2.6208,-2.5884,-2.581,-2.5762,-2.5742,-2.5732,-2.5732,-2.581,-2.5761,-2.5834,-2.5684,-2.5229,-2.5252,-2.5072,-2.4732,-2.5126,0.0,0.0,-2.6467,-2.6891,-2.7044,-2.7661,-2.8063,-2.8327,-2.8724,-2.904,-2.9287,-2.9702,-2.9934,-2.9934,-2.9934,-3.0241,-3.0755,-3.1496,-3.1375,-3.118,-3.1933,-3.2177,-3.2362,-3.3157,-3.3575,-3.4153,-3.5213,-3.5439,-3.5504,-3.5504,-3.5504,-3.5504,-3.5504,-3.5504,-3.5504,-3.5504,-3.5504,-3.5504,-3.5504,-3.5504,-3.5489,-3.5415,-3.4861,-3.449,-3.4418,-3.4465,-3.45,-3.459,-3.5165,-3.4905,-3.3568,-3.3376,-3.2966,-3.2246,-3.1546,-3.119,-3.119,-3.1123,-3.1089,-3.1089,-3.0294,-2.9922,-3.0048,-2.9627,-2.9952,-0.2282,-0.3159,-0.4318,-0.4843,-0.4537,-0.4085,-0.3969,0.0,0.0,-0.2721,-0.2621,-0.2916,-0.3778,-0.4051,-0.4751,0.0,0.0,0.0,0.0,0.0,0.0,0.0,0.0,0.0,0.0,0.0,0.0,0.0,0.0,0.0,-2.4445,-2.5195,-2.573,-2.6123,-2.5879,-2.5742,-2.5742,-2.5742,-2.5742,-2.5732,-2.5474,-2.5312,-2.5047,-2.4895,-2.4692,-2.4498,-2.4669,0.0,0.0,-2.5527,-2.5874,-2.5957,-2.6869,-2.751,-2.8063,-2.8554,-2.9131,-2.9546,-2.9714,-2.9792,-2.9792,-2.9792,-2.9921,-3.0216,-3.0508,-3.0432,-3.0419,-3.1119,-3.1415,-3.1563,-3.2362,-3.3143,-3.407,-3.5082,-3.5439,-3.5504,-3.5504,-3.5504,-3.5504,-3.5504,-3.5504,-3.5504,-3.5504,-3.5504,-3.5504,-3.5504,-3.5504,-3.5504,-3.5504,-3.5265,-3.51,-3.51,-3.4729,-3.4348,-3.3983,-3.4585,-3.4406,-3.2999,-3.3258,-3.2912,-3.1748,-3.1823,-3.1647,-3.1207,-3.119,-3.119,-3.119,-3.0463,-3.0328,-3.0734,-3.0401,-3.063,-0.1518,-0.227,-0.3012,-0.3448,-0.3241,-0.2912,0.0,0.0,0.0,-0.1921,-0.1898,-0.2191,-0.3335,-0.3579,-0.4318,0.0,0.0,0.0,0.0,0.0,0.0,0.0,0.0,0.0,0.0,0.0,0.0,0.0,0.0,0.0,0.0,-2.3863,-2.4966,-2.5884,-2.58,-2.5674,-2.5537,-2.5674,-2.5605,-2.5342,-2.5156,-2.4962,-2.4685,-2.4376,-2.4253,-2.4069,0.0,0.0,0.0,-2.4765,-2.502,-2.5105,-2.6041,-2.6693,-2.7232,-2.8131,-2.8882,-2.939,-2.9714,-2.9792,-2.9792,-2.9792,-2.9792,-2.9792,-2.9792,-2.9792,-2.9934,-3.0406,-3.0758,-3.1044,-3.1709,-3.2563,-3.3561,-3.4274,-3.4773,-3.4986,-3.4706,-3.4854,-3.4986,-3.4706,-3.4854,-3.5067,-3.5067,-3.5279,-3.5504,-3.5504,-3.5504,-3.5504,-3.5504,-3.5504,-3.5504,-3.5504,-3.5108,-3.4436,-3.3548,-3.4178,-3.3979,-3.2618,-3.3161,-3.2932,-3.167,-3.2085,-3.1935,-3.1207,-3.119,-3.119,-3.119,-3.0683,-3.0683,-3.1173,-3.0959,-3.1179,0.0,0.0,-0.038,-0.1672,-0.1707,-0.1471,0.0,0.0,0.0,-0.1125,-0.1118,-0.1563,-0.3012,-0.3589,-0.4399,-0.6103,0.0,0.0,0.0,0.0,0.0,0.0,0.0,0.0,0.0,0.0,0.0,0.0,0.0,0.0,0.0,-2.2291,-2.3502,-2.4843,-2.544,-2.5527,-2.5078,-2.5518,-2.5293,-2.4434,-2.4863,-2.4619,-2.3799,-2.3789,-2.3555,0.0,0.0,0.0,0.0,-2.4327,-2.4498,-2.4584,-2.502,-2.5359,-2.5695,-2.7244,-2.7983,-2.8339,-2.9468,-2.9792,-2.9792,-2.9792,-2.9792,-2.9792,-2.9792,-2.9792,-2.9792,-2.9792,-3.0343,-3.097,-3.118,-3.1742,-3.2393,-3.2593,-3.331,-3.3739,-3.282,-3.338,-3.3739,-3.282,-3.338,-3.4027,-3.4027,-3.4839,-3.5504,-3.5504,-3.5504,-3.5504,-3.5504,-3.5504,-3.5504,-3.5504,-3.5489,-3.4936,-3.3589,-3.4132,-3.3939,-3.2664,-3.3192,-3.3162,-3.2393,-3.2311,-3.1935,-3.1207,-3.119,-3.119,-3.119,-3.119,-3.119,-3.119,-3.119,-3.1393,0.0,0.0,-0.0083,-0.0489,-0.0531,-0.0421,-0.0609,0.0,0.0,-0.0337,-0.0336,-0.0676,-0.1726,-0.2364,-0.3379,-0.5435,-0.6484,0.0,0.0,0.0,0.0,0.0,0.0,0.0,0.0,0.0,0.0,0.0,0.0,0.0,0.0,-2.1473,-2.3203,-2.4529,-2.5137,-2.5275,-2.4937,-2.516,-2.5137,-2.4853,-2.4414,-2.4053,-2.3779,-2.3486,0.0,0.0,0.0,0.0,0.0,-2.3831,-2.4003,-2.409,-2.485,-2.5527,-2.6113,-2.701,-2.7753,-2.8339,-2.9052,-2.93,-2.9378,-2.9714,-2.9546,-2.9378,-2.9714,-2.9792,-2.9792,-2.9792,-3.0011,-3.0279,-3.082,-3.1241,-3.1669,-3.2249,-3.2749,-3.2961,-3.2664,-3.282,-3.2961,-3.2664,-3.282,-3.3241,-3.3876,-3.4245,-3.4691,-3.5424,-3.5504,-3.5504,-3.5504,-3.5504,-3.5504,-3.5504,-3.5504,-3.5145,-3.4247,-3.3969,-3.3441,-3.2579,-3.2726,-3.2549,-3.1742,-3.2147,-3.2009,-3.1224,-3.119,-3.119,-3.119,-3.119,-3.119,-3.119,-3.119,-3.1252,0.0,0.0222,0.0,0.0,0.0,0.0,0.0,0.0,0.0,0.0,0.0,-0.0226,-0.1092,-0.185,-0.3025,-0.5024,-0.6065,0.0,0.0,0.0,0.0,0.0,0.0,0.0,0.0,0.0,0.0,0.0,0.0,0.0,0.0,-2.0451,-2.1887,-2.3429,-2.4332,-2.4758,-2.4704,-2.4727,-2.4724,-2.458,-2.4043,-2.3701,-2.3535,-2.3262,0.0,0.0,0.0,0.0,0.0,-2.3406,-2.358,-2.357,-2.4348,-2.4935,-2.5432,-2.6517,-2.7185,-2.7672,-2.8578,-2.8973,-2.9131,-2.9221,-2.9143,-2.9052,-2.93,-2.9624,-2.9792,-2.9792,-2.9792,-2.9934,-3.0343,-3.0558,-3.0771,-3.1267,-3.1683,-3.196,-3.1623,-3.1829,-3.196,-3.1623,-3.1829,-3.2249,-3.282,-3.3518,-3.4245,-3.4839,-3.5279,-3.5504,-3.5504,-3.5504,-3.5504,-3.5504,-3.5504,-3.5325,-3.4906,-3.4023,-3.3215,-3.2557,-3.2542,-3.2235,-3.1439,-3.2028,-3.2144,-3.165,-3.1341,-3.1326,-3.1596,-3.1326,-3.119,-3.119,-3.119,-3.119,0.0,0.0676,0.0,0.0,0.0,0.0,0.0,0.0,0.0,0.0,0.0,-0.0224,-0.09,-0.1888,-0.3129,-0.4687,-0.5944,0.0,0.0,0.0,0.0,0.0,0.0,0.0,0.0,0.0,0.0,0.0,0.0,0.0,0.0,-1.9058,-1.9781,-2.144,-2.2941,-2.3877,-2.4134,-2.4202,-2.3965,-2.3609,-2.358,-2.3347,-2.296,-2.296,0.0,0.0,0.0,0.0,0.0,-2.3047,-2.3135,-2.3135,-2.3667,-2.3841,-2.4003,-2.5768,-2.6445,-2.661,-2.7926,-2.8657,-2.8973,-2.859,-2.8578,-2.8803,-2.8791,-2.9209,-2.9714,-2.9714,-2.9792,-2.9792,-2.9792,-2.9792,-2.9792,-2.9792,-3.0495,-3.0833,-3.0011,-3.0482,-3.0833,-3.0011,-3.0482,-3.1106,-3.118,-3.2664,-3.3876,-3.3959,-3.4773,-3.5439,-3.5504,-3.5504,-3.5504,-3.5504,-3.5504,-3.5504,-3.5504,-3.4307,-3.329,-3.2617,-3.2562,-3.2199,-3.1427,-3.2048,-3.238,-3.2377,-3.1641,-3.1613,-3.2313,-3.1546,-3.119,-3.119,-3.1241,-3.1241,0.2926,0.0,0.0717,0.0119,0.0,0.0,0.0,0.0,0.0,0.0,0.0,0.0,0.0,0.0,-0.1911,-0.3366,0.0,0.0,0.0,0.0,0.0,0.0,0.0,0.0,0.0,0.0,0.0,0.0,0.0,0.0,0.0,-1.7909,-1.8411,-1.8818,-1.9803,-2.1162,-2.2841,-2.2748,-2.2532,-2.2117,-2.1817,-2.1527,-2.1168,-2.1168,0.0,0.0,0.0,0.0,-2.2059,-2.2775,-2.3135,-2.3135,-2.3667,-2.3841,-2.3927,-2.4935,-2.5611,-2.6185,-2.6905,-2.7592,-2.8203,-2.8042,-2.8271,-2.8498,-2.8419,-2.8736,-2.9287,-2.9287,-2.9365,-2.9509,-2.9509,-2.9611,-2.9792,-2.9792,-3.0011,-3.0075,-2.9869,-2.9998,-3.0075,-2.9856,-3.0011,-3.0343,-3.1106,-3.1609,-3.2321,-3.3808,-3.4177,-3.461,-3.5424,-3.5504,-3.5504,-3.5504,-3.5504,-3.5504,-3.5504,-3.4726,-3.3963,-3.3305,-3.281,-3.2163,-3.1442,-3.2082,-3.2449,-3.2393,-3.2169,-3.2121,-3.2313,-3.1546,-3.119,-3.1207,-3.1765,-3.1732,0.3511,0.2595,0.1543,0.0687,0.0573,0.0516,0.0115,0.0,0.0,0.0,0.0,0.0,0.0,0.0,0.0,0.0,0.0,0.0,0.0,0.0,0.0,0.0,0.0,0.0,0.0,0.0,0.0,0.0,0.0,0.0,0.0,-1.7107,-1.7598,-1.7995,-1.8291,-1.9442,-2.1582,-2.1311,-2.1404,-2.1556,-2.1174,-2.0907,-2.0637,-2.0637,-2.0439,0.0,0.0,0.0,-2.1784,-2.2687,-2.3135,-2.3144,-2.3406,-2.3484,-2.358,-2.4348,-2.484,-2.5253,-2.6174,-2.7021,-2.7476,-2.7115,-2.7429,-2.7926,-2.7162,-2.7487,-2.8223,-2.8882,-2.9197,-2.9275,-2.9419,-2.9509,-2.9611,-2.9792,-2.9792,-2.9792,-2.9792,-2.9792,-2.9792,-2.9792,-2.9792,-2.9934,-3.0482,-3.0895,-3.1536,-3.2522,-3.3449,-3.4177,-3.4758,-3.5213,-3.5504,-3.5504,-3.5504,-3.5504,-3.5504,-3.516,-3.4532,-3.3559,-3.2886,-3.2208,-3.1475,-3.1793,-3.2107,-3.2393,-3.2689,-3.2628,-3.2313,-3.1546,-3.136,-3.1698,-3.2087,-3.2256,0.3735,0.3213,0.2593,0.1518,0.1287,0.1114,0.0351,0.0,0.0,0.0,0.0,0.0,0.0,0.0,0.0,0.0,0.0,0.0,0.0,0.0,0.0,0.0,0.0,0.0,0.0,0.0,0.0,0.0,0.0,0.0,0.0,-1.6573,-1.6864,-1.7654,-1.7365,-1.813,-2.0038,-1.9898,-2.0127,-2.0905,-2.0594,-2.0266,-2.0085,-2.0085,-1.9894,0.0,0.0,0.0,-2.1329,-2.2413,-2.2872,-2.296,-2.3047,-2.3135,-2.3135,-2.382,-2.4069,-2.4413,-2.56,-2.6456,-2.688,-2.6008,-2.6505,-2.7185,-2.5913,-2.6069,-2.6987,-2.8223,-2.8712,-2.8882,-2.9106,-2.925,-2.9431,-2.9702,-2.9792,-2.9792,-2.9792,-2.9792,-2.9792,-2.9792,-2.9792,-2.9792,-2.9792,-3.0482,-3.1044,-3.118,-3.2664,-3.3808,-3.3959,-3.4905,-3.5504,-3.5504,-3.5504,-3.5504,-3.5504,-3.5504,-3.4936,-3.3574,-3.2976,-3.2377,-3.1727,-3.1728,-3.2048,-3.2705,-3.3292,-3.3254,-3.2611,-3.1884,-3.185,-3.2459,-3.256,-3.2899,0.4184,0.4436,0.4156,0.2452,0.1667,0.1225,0.0,0.0,0.0,0.0,0.0,0.0,0.0,0.0,0.0,0.0,0.0,0.0,0.0,0.0,0.0,0.0,0.0,0.0,0.0,0.0,0.0,0.0,0.0,0.0,0.0,-1.587,-1.5959,-1.615,-1.6061,-1.6436,-1.7188,-1.789,-1.8145,-1.7953,-1.79,-1.7792,-1.7527,-1.7527,-1.7434,0.0,0.0,-1.9063,-1.9338,-2.115,-2.2059,-2.2325,-2.2872,-2.3135,-2.3135,-2.3222,-2.3647,-2.4327,-2.5105,-2.5779,-2.6279,-2.5527,-2.6207,-2.7044,-2.5841,-2.6008,-2.6517,-2.6329,-2.6976,-2.7718,-2.7787,-2.8609,-2.9419,-2.9419,-2.9611,-2.9792,-2.9792,-2.9792,-2.9792,-2.9792,-2.9792,-2.9792,-2.9792,-2.9934,-3.0279,-3.1106,-3.2105,-3.3101,-3.3876,-3.4905,-3.5504,-3.5504,-3.5504,-3.5504,-3.5504,-3.5504,-3.4936,-3.3574,-3.3395,-3.3079,-3.2428,-3.2982,-3.3561,-3.4263,-3.4298,-3.4269,-3.415,-3.3423,-3.3119,-3.3254,-3.3863,-3.388,0.368,0.4044,0.4107,0.3637,0.315,0.2627,0.0,0.0,0.0,0.0,0.0,0.0,0.0,0.0,0.0,0.0,0.0,0.0,0.0,0.0,0.0,0.0,0.0,0.0,0.0,0.0,0.0,0.0,0.0,0.0,0.0,0.0,-1.5635,-1.5635,-1.573,-1.5927,-1.6204,-1.6538,-1.6911,-1.7326,-1.7326,-1.7153,-1.6979,-1.6979,-1.6878,-1.6676,0.0,-1.8419,-1.888,-2.0331,-2.1329,-2.2148,-2.2413,-2.2775,-2.3135,-2.3135,-2.356,-2.4166,-2.4079,-2.4765,-2.5443,-2.4423,-2.502,-2.5874,-2.4573,-2.4659,-2.5084,-2.4488,-2.54,-2.673,-2.7302,-2.7959,-2.853,-2.925,-2.9509,-2.9611,-2.9792,-2.9792,-2.9792,-2.9792,-2.9792,-2.9792,-2.9792,-2.9792,-2.9934,-3.0343,-3.1254,-3.2177,-3.3101,-3.4109,-3.4905,-3.5424,-3.5504,-3.5355,-3.4981,-3.4951,-3.4532,-3.3559,-3.2826,-3.227,-3.2038,-3.268,-3.3391,-3.4037,-3.3978,-3.4147,-3.4489,-3.3761,-3.3609,-3.3998,-3.4336,-3.4539,0.2899,0.3372,0.3743,0.4237,0.0,0.0,0.0,0.0,0.0,0.0,0.0,0.0,0.0,0.0,0.0,0.0,0.0,0.0,0.0,0.0,0.0,0.0,0.0,0.0,0.0,0.0,0.0,0.0,0.0,0.0,0.0,0.0,-1.5159,-1.5445,-1.5635,-1.5737,-1.5832,-1.5832,-1.6204,-1.6951,-1.6951,-1.6864,-1.669,-1.669,-1.6595,-1.6487,-1.7217,-1.7863,-1.8326,-1.9422,-2.0503,-2.1516,-2.1872,-2.2511,-2.3135,-2.3135,-2.3484,-2.382,-2.3309,-2.3907,-2.4765,-2.3484,-2.4079,-2.4935,-2.357,-2.3647,-2.4079,-2.3309,-2.4059,-2.5484,-2.6812,-2.7302,-2.7799,-2.9015,-2.9341,-2.9509,-2.9702,-2.9792,-2.9792,-2.9792,-2.9792,-2.9792,-2.9792,-2.9792,-2.9792,-2.9792,-3.062,-3.1462,-3.2177,-3.331,-3.4312,-3.5067,-3.521,-3.4981,-3.4307,-3.4098,-3.3799,-3.3305,-3.2317,-3.1631,-3.1482,-3.2216,-3.2895,-3.3582,-3.3697,-3.4064,-3.4759,-3.4201,-3.4117,-3.4489,-3.4675,-3.4979,0.2063,0.2915,0.3606,0.3498,0.3564,0.0,0.3991,0.3462,0.0,0.3337,0.0,0.0,0.0,0.0,0.0,0.0,0.0,0.0,0.0,0.0,0.0,0.0,0.0,0.0,0.0,0.0,0.0,0.0,0.0,0.0,0.0,0.0,0.0,-1.5445,-1.554,-1.5635,-1.5832,-1.5832,-1.5832,-1.5927,-1.5927,-1.592,-1.5927,-1.5927,-1.5927,-1.5927,-1.6218,-1.6494,-1.6864,-1.8334,-1.9063,-1.9604,-2.1418,-2.2511,-2.3135,-2.3135,-2.3135,-2.3135,-2.3135,-2.3647,-2.4166,-2.3396,-2.4079,-2.4935,-2.357,-2.3647,-2.4079,-2.3309,-2.3222,-2.3724,-2.5484,-2.673,-2.7799,-2.8882,-2.9275,-2.9509,-2.9702,-2.9792,-2.9792,-2.9792,-2.9792,-2.9792,-2.9792,-2.9792,-2.9792,-2.9792,-3.062,-3.1254,-3.1315,-3.289,-3.4027,-3.4095,-3.4425,-3.4277,-3.3619,-3.3006,-3.2632,-3.2587,-3.2497,-3.2168,-3.1497,-3.2216,-3.2895,-3.3582,-3.4235,-3.4858,-3.5537,-3.5487,-3.5131,-3.4506,-3.5216,-3.5182,0.134,0.18,0.2277,0.3307,0.3111,0.0,0.0,0.481,0.4599,0.4257,0.0,0.0,0.0,0.0,0.0,0.0,0.0,0.0,0.0,0.0,0.0,0.0,0.0,0.0,0.0,0.0,0.0,0.0,0.0,0.0,0.0,0.0,0.0,-1.2757,-1.3373,-1.3938,-1.4515,-1.488,-1.5356,-1.5832,-1.5832,-1.5832,-1.5832,-1.5832,-1.5732,-1.5571,-1.5853,-1.5999,-1.612,-1.6846,-1.7827,-1.9109,-2.123,-2.2236,-2.2511,-2.296,-2.3135,-2.3135,-2.3135,-2.3309,-2.3474,-2.3222,-2.3484,-2.382,-2.3222,-2.3122,-2.3137,-2.3153,-2.2949,-2.3061,-2.4586,-2.5735,-2.673,-2.7799,-2.8712,-2.9287,-2.9521,-2.9702,-2.9792,-2.9792,-2.9792,-2.9792,-2.9792,-2.9792,-2.9792,-2.9792,-3.0075,-3.0558,-3.1106,-3.2321,-3.338,-3.3945,-3.3947,-3.3604,-3.2946,-3.2273,-3.1898,-3.1898,-3.1898,-3.1735,-3.1482,-3.1796,-3.2272,-3.2933,-3.3649,-3.4284,-3.4988,-3.4936,-3.5013,-3.5182,-3.4539,-3.459,0.0615,0.0925,0.1371,0.2528,0.0,0.0,0.4745,0.5296,0.5408,0.5272,0.0,0.0,0.0,0.0,0.0,0.0,0.0,0.0,0.0,0.0,0.0,0.0,0.0,0.0,0.0,0.0,0.0,0.0,0.0,0.0,0.0,0.0,0.0,0.0,-1.1714,-1.245,-1.3205,-1.3854,-1.4515,-1.5171,-1.5551,-1.5738,-1.5832,-1.5832,-1.5671,-1.5404,-1.5605,-1.5596,-1.5514,-1.5903,-1.716,-1.9077,-2.0775,-2.1612,-2.1961,-2.2551,-2.2872,-2.2959,-2.3096,-2.3135,-2.3135,-2.3135,-2.3135,-2.3115,-2.2978,-2.2832,-2.2744,-2.29,-2.2832,-2.2859,-2.3826,-2.4744,-2.5735,-2.7139,-2.8051,-2.8712,-2.9263,-2.9521,-2.9702,-2.9792,-2.9792,-2.9792,-2.9792,-2.9792,-2.9792,-2.9792,-2.9792,-2.9998,-3.0696,-3.1462,-3.2249,-3.303,-3.3166,-3.2916,-3.2258,-3.1735,-3.1482,-3.1482,-3.1482,-3.1482,-3.1482,-3.1482,-3.1853,-3.2602,-3.2819,-3.3414,-3.4246,-3.4013,-3.4095,-3.4556,-3.3998,-3.4167,0.0,0.056,0.1072,0.0,0.0,0.0,0.4345,0.467,0.5112,0.0,0.0,0.0,0.0,0.0,0.0,0.0,0.0,0.0,0.0,0.0,0.0,0.0,0.0,0.0,0.0,0.0,0.0,0.0,0.0,0.0,0.0,0.0,0.0,0.0,-1.1104,-1.1477,-1.221,-1.2848,-1.3399,-1.3954,-1.4878,-1.5545,-1.5818,-1.5825,-1.5665,-1.5391,-1.5391,-1.5224,-1.5066,-1.5805,-1.7286,-1.9231,-1.9704,-2.0456,-2.1395,-2.1901,-2.2244,-2.2568,-2.2988,-2.3125,-2.3125,-2.3125,-2.3125,-2.3057,-2.2637,-2.2793,-2.3047,-2.2627,-2.2803,-2.3125,-2.3135,-2.381,-2.4988,-2.6976,-2.7464,-2.7879,-2.9094,-2.9419,-2.9509,-2.9792,-2.9792,-2.9792,-2.9792,-2.9792,-2.9792,-2.9792,-2.9792,-2.9779,-2.9779,-3.0141,-3.0578,-3.1166,-3.1972,-3.2243,-3.1541,-3.1482,-3.1482,-3.1482,-3.1482,-3.1482,-3.1482,-3.1482,-3.1853,-3.2602,-3.192,-3.2206,-3.3475,-3.2797,-3.244,-3.2364,-3.3795,-3.41,0.0,0.0174,0.0,0.0969,0.0,0.0,0.0,0.4047,0.0,0.0,0.0,0.0,0.0,0.0,0.0,0.0,0.0,0.0,0.0,0.0,0.0,0.0,0.0,0.0,0.0,0.0,0.0,0.0,0.0,0.0,0.0,0.0,0.0,0.0,-0.882,-0.9431,-1.0148,-1.1116,-1.2204,-1.3399,-1.4029,-1.467,-1.5224,-1.5431,-1.5251,-1.479,-1.5003,-1.481,-1.4455,-1.5182,-1.6053,-1.7049,-1.8491,-1.9272,-1.9817,-2.1535,-2.1795,-2.1522,-2.2378,-2.251,-2.2256,-2.2256,-2.2461,-2.2617,-2.2197,-2.2158,-2.2236,-2.2109,-2.1943,-2.1934,-2.2539,-2.2857,-2.3523,-2.4988,-2.5964,-2.6871,-2.8039,-2.8359,-2.8767,-2.9624,-2.9792,-2.9792,-2.9792,-2.9792,-2.9792,-2.9792,-2.9453,-2.9252,-2.9554,-2.9692,-3.016,-3.1123,-3.1424,-3.1571,-3.1526,-3.1482,-3.1482,-3.1482,-3.1482,-3.1482,-3.1482,-3.1482,-3.1582,-3.1796,-3.1666,-3.1966,-3.2805,-3.2105,-3.2207,-3.3068,-3.2983,-3.3372,0.0,0.0,0.0,0.057,0.0339,0.0363,0.0,0.0,0.0,0.0,0.0,0.0,0.0,0.0,0.0,0.0,0.0,0.0,0.0,0.0,0.0,0.0,0.0,0.0,0.0,0.0,0.0,0.0,0.0,0.0,0.0,0.0,0.0,0.0,-0.7464,-0.7986,-0.8597,-0.9584,-1.0662,-1.1736,-1.2915,-1.3628,-1.3988,-1.485,-1.497,-1.4522,-1.4589,-1.4482,-1.4275,-1.5054,-1.554,-1.5937,-1.7458,-1.8208,-1.8581,-2.021,-2.0738,-2.0754,-2.1597,-2.1839,-2.1885,-2.1885,-2.206,-2.2187,-2.1758,-2.1748,-2.1846,-2.168,-2.1562,-2.1611,-2.2129,-2.2383,-2.2863,-2.4139,-2.4978,-2.5797,-2.6871,-2.7197,-2.7683,-2.8858,-2.8791,-2.8791,-2.9624,-2.9443,-2.9201,-2.9401,-2.8963,-2.8606,-2.8653,-2.89,-2.9267,-2.9775,-3.0101,-3.0535,-3.0984,-3.1029,-3.1161,-3.1467,-3.1482,-3.1482,-3.1482,-3.1482,-3.1482,-3.1482,-3.1297,-3.1455,-3.2044,-3.1316,-3.1482,-3.2527,-3.2357,-3.2916,0.0,0.0,0.0,0.0,0.0,0.0,0.0,0.0,0.0,0.0,0.0,0.0,0.0,0.0,0.0,0.0,0.0,0.0,0.0,0.0,0.0,0.0,0.0,0.0,0.0,0.0,0.0,0.0,0.0,0.0,0.0,0.0,0.0,-0.6622,-0.6753,-0.7076,-0.7495,-0.8247,-0.8922,0.0,-1.1543,-1.24,-1.219,-1.4089,-1.4763,-1.4469,-1.4202,-1.4235,-1.4482,-1.4995,-1.5336,-1.5669,-1.6572,-1.7165,-1.7508,-1.8487,-1.93,-2.0061,-2.0652,-2.1208,-2.1675,-2.1768,-2.1797,-2.1748,-2.1309,-2.1484,-2.1738,-2.1299,-2.1455,-2.1777,-2.1816,-2.2109,-2.267,-2.3931,-2.4351,-2.4648,-2.5786,-2.5909,-2.63,-2.7613,-2.7128,-2.7047,-2.9073,-2.867,-2.815,-2.8712,-2.8348,-2.7833,-2.7281,-2.7842,-2.8155,-2.7723,-2.8427,-2.9254,-3.0208,-3.0329,-3.0644,-3.1467,-3.1482,-3.1452,-3.1377,-3.1377,-3.1407,-3.1482,-3.0731,-3.0666,-3.1406,-3.0656,-3.0659,-3.1309,-3.2036,-3.278,0.0,0.0,0.0,0.0,-0.0146,0.0,0.0,0.0,0.0,0.0,0.0,0.0,0.0,0.0,0.0,0.0,0.0,0.0,0.0,0.0,0.0,0.0,0.0,0.0,0.0,0.0,0.0,0.0,0.0,0.0,0.0,0.0,0.0,-0.6197,-0.6232,-0.6499,-0.6913,-0.7405,-0.7994,0.0,-1.0068,-1.081,-1.1182,-1.3538,-1.4456,-1.4175,-1.4115,-1.4122,-1.4175,-1.4352,-1.4549,-1.4958,-1.5469,-1.5796,-1.6073,-1.7704,-1.8044,-1.7933,-1.9798,-2.031,-2.0197,-2.0682,-2.1084,-2.1289,-2.085,-2.1025,-2.1279,-2.084,-2.0771,-2.0928,-2.1279,-2.1435,-2.1621,-2.23,-2.2903,-2.3724,-2.4872,-2.4838,-2.4913,-2.605,-2.6131,-2.6018,-2.6193,-2.6905,-2.7488,-2.7626,-2.7544,-2.7256,-2.6703,-2.6822,-2.7169,-2.7617,-2.7855,-2.862,-3.0147,-3.0329,-3.0644,-3.1467,-3.1482,-3.1228,-3.0746,-3.0731,-3.0986,-3.1467,-2.9838,-2.9827,-3.1406,-3.0778,-3.103,-3.207,-3.2814,-3.3558,0.0,0.0,0.0,-0.0137,0.0,0.0,0.0,0.0,0.0,0.0,0.0,0.0,0.0,0.0,0.0,0.0,0.0,0.0,0.0,0.0,0.0,0.0,0.0,0.0,0.0,0.0,0.0,0.0,0.0,0.0,0.0,-0.4437,-0.4888,-0.5514,-0.5822,-0.61,-0.6345,-0.6749,-0.7189,-0.7593,-0.8737,-0.9877,-1.1025,-1.2667,-1.338,-1.3415,-1.3585,-1.3748,-1.3874,-1.3874,-1.4122,-1.4426,-1.4838,-1.505,-1.5187,-1.6446,-1.6941,-1.7221,-1.8716,-1.9377,-1.9678,-2.0401,-2.0723,-2.0869,-2.0635,-2.0732,-2.0869,-2.0635,-2.0566,-2.0625,-2.0859,-2.1074,-2.1289,-2.1523,-2.207,-2.2699,-2.3261,-2.3246,-2.3402,-2.4497,-2.4266,-2.4202,-2.506,-2.5942,-2.6769,-2.7214,-2.7055,-2.6848,-2.6559,-2.6533,-2.6658,-2.7095,-2.7095,-2.7802,-2.9504,-2.969,-3.0208,-3.1409,-3.1482,-3.1225,-3.0537,-3.0223,-3.0223,-3.0597,-2.9569,-2.9654,-3.0895,-3.0561,-3.1061,-3.2313,-3.2324,-3.2933,0.0,0.0,-0.0063,-0.0282,0.0,0.0,0.0,0.0,0.0,0.0,0.0,0.0,0.0,0.0,0.0,0.0,0.0,0.0,0.0,0.0,0.0,0.0,0.0,0.0,0.0,0.0,0.0,0.0,0.0,0.0,-0.3204,-0.3587,-0.4094,-0.4711,-0.5375,-0.5762,-0.5842,-0.6265,-0.6498,-0.6624,-0.7667,-0.9034,-1.0572,-1.1282,-1.1976,-1.2651,-1.2969,-1.3267,-1.3567,-1.3567,-1.3714,-1.4018,-1.4338,-1.4414,-1.4504,-1.5051,-1.5771,-1.6701,-1.7476,-1.8417,-1.9325,-2.011,-2.0382,-2.0469,-2.0547,-2.0566,-2.0566,-2.0566,-2.0566,-2.0566,-2.0566,-2.084,-2.1123,-2.1123,-2.1396,-2.1699,-2.1855,-2.1826,-2.2086,-2.2917,-2.2322,-2.2301,-2.4403,-2.5136,-2.5768,-2.6763,-2.6671,-2.6533,-2.6533,-2.6533,-2.6533,-2.6533,-2.6533,-2.7095,-2.862,-2.8812,-2.9504,-3.1219,-3.1174,-3.0875,-3.0372,-2.9744,-2.9355,-2.9235,-2.922,-2.9541,-3.0212,-3.0319,-3.0957,-3.2117,-3.1624,-3.2104,0.0,0.0,-0.0063,0.0,0.0,0.0,0.0,0.0,0.0,0.0,0.0,0.0,0.0,0.0,0.0,0.0,0.0,0.0,0.0,0.0,0.0,0.0,0.0,0.0,0.0,0.0,0.0,0.0,0.0,0.0,-0.1274,-0.232,-0.3086,-0.3524,-0.4515,-0.5185,-0.5563,-0.6069,-0.6298,-0.6397,-0.6854,-0.7618,-0.8544,-0.877,-1.0296,-1.2571,-1.2651,-1.2915,-1.3267,-1.3267,-1.3293,-1.3327,-1.3407,-1.3407,-1.3513,-1.417,-1.4576,-1.4926,-1.6229,-1.714,-1.7925,-1.8974,-1.963,-2.0078,-2.0449,-2.0566,-2.0566,-2.0566,-2.0566,-2.0566,-2.0566,-2.0605,-2.0654,-2.0654,-2.0703,-2.0947,-2.1719,-2.1592,-2.1318,-2.1469,-2.1075,-2.1232,-2.2751,-2.349,-2.4139,-2.5183,-2.6005,-2.6533,-2.6533,-2.6533,-2.6533,-2.6533,-2.6533,-2.6837,-2.7802,-2.7855,-2.862,-3.0329,-2.9942,-2.9651,-2.9729,-2.9071,-2.8442,-2.791,-2.784,-2.8469,-2.9617,-3.0194,-3.0835,-3.1537,-3.195,-3.2594,0.0,0.0,0.0,0.0,0.0,0.0,0.0,0.0,0.0,0.0,0.0,0.0,0.0,0.0,0.0,0.0,0.0,0.0,0.0,0.0,0.0,0.0,0.0,0.0,0.0,0.0,0.0,0.0,0.0,0.0,-0.084,-0.1416,-0.208,-0.2909,-0.3674,-0.4362,-0.5026,-0.5526,-0.5854,-0.6003,-0.6219,-0.6712,-0.7397,-0.7438,-0.8641,-1.0767,-1.0993,-1.1391,-1.1932,-1.1932,-1.2255,-1.2711,-1.2711,-1.2883,-1.3227,-1.3586,-1.3863,-1.4259,-1.5431,-1.6092,-1.6547,-1.7784,-1.8303,-1.8563,-1.9056,-1.9263,-1.9388,-1.9464,-1.9724,-1.991,-2.002,-2.0303,-2.0586,-2.0586,-2.0566,-2.0674,-2.1064,-2.0996,-2.0859,-2.0859,-2.0703,-2.0994,-2.2081,-2.2466,-2.322,-2.4779,-2.537,-2.5873,-2.6452,-2.6533,-2.6533,-2.6533,-2.6163,-2.6365,-2.7183,-2.7685,-2.8339,-2.9203,-2.9681,-2.9711,-2.9071,-2.8757,-2.8278,-2.7625,-2.7625,-2.8229,-2.9454,-2.9717,-3.0603,-3.1893,-3.177,-3.207,0.0,0.0,0.0,0.0,0.0,0.0,0.0,0.0,0.0,0.0,0.0,0.0,0.0,0.0,0.0,0.0,0.0,0.0,0.0,0.0,0.0,0.0,0.0,0.0,0.0,0.0,0.0,0.0,0.0,0.0806,-0.0277,-0.0693,-0.1259,-0.2211,-0.2798,-0.3454,-0.4319,-0.4994,-0.5444,-0.58,-0.58,-0.6078,-0.6625,-0.6501,-0.7252,-0.8614,-0.9285,-0.9911,-1.0548,-1.0841,-1.1361,-1.1932,-1.2167,-1.257,-1.2986,-1.3066,-1.3352,-1.379,-1.4553,-1.4979,-1.536,-1.6486,-1.6885,-1.7015,-1.7541,-1.781,-1.8124,-1.8443,-1.8718,-1.8958,-1.8894,-1.9455,-2.006,-2.0226,-2.0236,-2.0303,-2.0518,-2.0566,-2.0566,-2.0566,-2.0566,-2.0779,-2.1517,-2.1793,-2.2444,-2.4151,-2.4555,-2.4972,-2.597,-2.6163,-2.6189,-2.605,-2.5774,-2.58,-2.6297,-2.7131,-2.7723,-2.8083,-2.911,-2.9347,-2.8637,-2.8427,-2.8098,-2.7625,-2.7625,-2.8027,-2.895,-2.9271,-3.0168,-3.1566,-3.1308,-3.1478,0.0,0.0,0.0,0.0,0.0,0.0,0.0,0.0,0.0,0.0,0.0,0.0,0.0,0.0,0.0,0.0,0.0,0.0,0.0,0.0,0.0,0.0,0.0,0.0,0.0,0.0,0.0,0.0,0.0,0.111,0.1208,-0.0067,-0.0809,-0.0877,-0.1936,-0.2732,-0.3289,-0.4588,-0.5444,-0.58,-0.58,-0.5806,-0.5885,-0.5875,-0.6179,-0.6786,-0.8033,-0.8841,-0.9301,-1.0336,-1.0812,-1.0974,-1.1968,-1.2351,-1.2385,-1.2665,-1.2893,-1.2991,-1.3292,-1.3844,-1.4423,-1.4938,-1.547,-1.5938,-1.6363,-1.6723,-1.7103,-1.7839,-1.8092,-1.7874,-1.7078,-1.7666,-1.8638,-1.9206,-1.9364,-1.958,-2.0391,-2.0566,-2.0566,-2.0566,-2.0566,-2.0644,-2.0634,-2.1104,-2.1752,-2.2688,-2.327,-2.3875,-2.4778,-2.5335,-2.5448,-2.4958,-2.5322,-2.5398,-2.4973,-2.561,-2.6363,-2.7193,-2.7414,-2.7831,-2.854,-2.7979,-2.7655,-2.7625,-2.7625,-2.7625,-2.771,-2.8857,-2.9467,-2.9589,-3.0675,-3.1207,0.0,0.0,0.0,0.0,0.0,0.0,0.0,0.0,0.0,0.0,0.0,0.0,0.0,0.0,0.0,0.0,0.0,0.0,0.0,0.0,0.0,0.0,0.0,0.0,0.0,0.0,0.0,0.0,0.0,0.0,0.1338,0.0738,0.0067,-0.0806,-0.12,-0.1907,-0.2902,-0.4312,-0.5043,-0.5109,-0.5406,-0.5572,-0.5661,-0.5562,-0.5672,-0.5958,-0.6451,-0.7211,-0.8129,-0.8435,-0.8856,-0.9357,-1.034,-1.1019,-1.1403,-1.2195,-1.2472,-1.2566,-1.2872,-1.2995,-1.3148,-1.3693,-1.403,-1.4205,-1.4682,-1.5017,-1.5325,-1.5646,-1.5991,-1.6236,-1.6022,-1.6134,-1.6639,-1.806,-1.8845,-1.948,-2.0059,-2.0371,-2.0566,-2.0566,-2.0566,-2.0566,-2.0566,-2.05,-2.0777,-2.1709,-2.2221,-2.2875,-2.3845,-2.4632,-2.5021,-2.4845,-2.4669,-2.4494,-2.4305,-2.5453,-2.6157,-2.6061,-2.7345,-2.8106,-2.7949,-2.7745,-2.7625,-2.7625,-2.7625,-2.781,-2.8189,-2.8996,-2.9585,-2.9995,-3.0838,-3.119,0.0,0.0,0.0,0.0,0.0,0.0,0.0,0.0,0.0,0.0,0.0,0.0,0.0,0.0,0.0,0.0,0.0,0.0,0.0,0.0,0.0,0.0,0.0,0.0,0.0,0.0,0.0,0.0,0.0,0.0,0.1781,0.139,0.066,-0.0523,-0.0898,-0.1569,-0.2582,-0.3887,-0.4559,-0.4687,-0.5019,-0.5272,-0.5433,-0.5382,-0.5447,-0.5586,-0.5535,-0.6061,-0.6919,-0.7208,-0.7646,-0.8205,-0.9255,-1.0118,-1.0852,-1.1519,-1.1998,-1.2331,-1.2525,-1.2472,-1.2405,-1.2832,-1.2912,-1.2935,-1.3354,-1.3565,-1.3845,-1.4062,-1.4469,-1.4892,-1.5134,-1.5242,-1.5623,-1.6837,-1.7999,-1.8993,-1.9039,-1.9705,-2.0371,-2.0537,-2.0449,-2.0352,-2.0352,-1.999,-1.9935,-2.0782,-2.0984,-2.1554,-2.2781,-2.3612,-2.4124,-2.4205,-2.4104,-2.3916,-2.3728,-2.472,-2.5367,-2.5412,-2.6804,-2.7594,-2.7575,-2.7625,-2.7625,-2.7625,-2.74,-2.7478,-2.7852,-2.8886,-2.9717,-3.0293,-3.0918,-3.119,0.0,0.0,0.0,0.0,0.0,0.0,0.0,0.0,0.0,0.0,0.0,0.0,0.0,0.0,0.0,0.0,0.0,0.0,0.0,0.0,0.0,0.0,0.0,0.0,0.0,0.0,0.0,0.0,0.0,0.3294,0.2564,0.1735,0.0889,0.0,-0.1108,-0.1843,-0.2144,-0.3188,-0.3989,-0.4665,-0.4681,-0.481,-0.5065,-0.5284,-0.5437,-0.5569,-0.5423,-0.5447,-0.5676,-0.6897,-0.7482,-0.756,-0.8665,-0.9748,-1.0668,-1.0664,-1.1326,-1.2224,-1.2298,-1.2305,-1.2305,-1.2305,-1.2305,-1.2305,-1.2305,-1.2505,-1.2885,-1.3272,-1.3565,-1.3952,-1.4336,-1.5096,-1.5678,-1.556,-1.6828,-1.8046,-1.765,-1.8673,-1.981,-2.043,-2.0185,-1.9893,-1.9893,-1.9551,-1.9399,-1.9768,-1.9525,-1.9944,-2.1628,-2.2329,-2.2754,-2.3042,-2.3615,-2.3715,-2.3078,-2.3243,-2.3941,-2.5273,-2.5483,-2.6148,-2.7515,-2.7565,-2.7565,-2.7565,-2.6886,-2.6606,-2.6606,-2.8496,-2.9685,-3.026,-3.0918,-3.119,0.0,0.0,0.0,0.0,0.0,0.0,0.0,0.0,0.0,0.0,0.0,0.0,0.0,0.0,0.0,0.0,0.0,0.0,0.0,0.0,0.0,0.0,0.0,0.0,0.0,0.0,0.0,0.0,0.437,0.3852,0.3166,0.1805,0.0677,0.0,-0.0715,-0.1236,-0.1555,-0.2587,-0.333,-0.3749,-0.4293,-0.4599,-0.4667,-0.4998,-0.5216,-0.526,-0.5332,-0.5452,-0.5507,-0.5905,-0.6193,-0.6375,-0.7513,-0.8111,-0.8611,-1.0194,-1.0953,-1.1316,-1.2077,-1.2305,-1.2305,-1.2305,-1.2305,-1.2305,-1.2305,-1.2358,-1.2425,-1.2574,-1.2635,-1.2852,-1.3227,-1.4022,-1.4839,-1.5505,-1.6305,-1.7234,-1.8128,-1.8404,-1.8735,-1.9467,-1.9541,-1.9463,-1.9463,-1.9102,-1.884,-1.8924,-1.9131,-1.9683,-2.0846,-2.1619,-2.2211,-2.248,-2.2686,-2.2548,-2.1995,-2.2483,-2.338,-2.468,-2.4867,-2.5541,-2.6826,-2.6408,-2.6153,-2.6153,-2.5974,-2.626,-2.7127,-2.8172,-2.8769,-2.8968,-3.049,-3.119,0.0,0.0,0.0,0.0,0.0,0.0,-0.0504,-0.1118,0.0,0.0,0.0,0.0,0.0,0.0,0.0,0.0,0.0,0.0,0.0,0.0,0.0,0.0,0.0,0.0,0.0,0.0,0.0,0.4589,0.4535,0.4074,0.3069,0.1688,0.0596,0.0,-0.0576,-0.0971,-0.1122,-0.194,-0.259,-0.3108,-0.3682,-0.4125,-0.4488,-0.4935,-0.5165,-0.5233,-0.5321,-0.5428,-0.5435,-0.5457,-0.5616,-0.5875,-0.6474,-0.7049,-0.7755,-0.9102,-0.9939,-1.0565,-1.1552,-1.1929,-1.2003,-1.2231,-1.2305,-1.2305,-1.2305,-1.2305,-1.2305,-1.2305,-1.2305,-1.2378,-1.2599,-1.3098,-1.3738,-1.4466,-1.5589,-1.667,-1.7361,-1.7764,-1.8276,-1.916,-1.9141,-1.9014,-1.9014,-1.8799,-1.8504,-1.8398,-1.8554,-1.9177,-2.0462,-2.1037,-2.1602,-2.2243,-2.2309,-2.2083,-2.1543,-2.1693,-2.2472,-2.4006,-2.3977,-2.4577,-2.6105,-2.5809,-2.5615,-2.5615,-2.5345,-2.5605,-2.6556,-2.7482,-2.8359,-2.9141,-3.0526,-3.119,0.0,0.0,0.0,0.0,0.0,0.0,-0.0838,-0.095,-0.0998,0.0,0.0,0.0,0.0,0.0,0.0,0.0,0.0,0.0,0.0,0.0,0.0,0.0,0.0,0.0,0.0,0.2884,0.3663,0.4294,0.4532,0.4022,0.2566,0.1575,0.0692,0.0,-0.0505,-0.0842,-0.0898,-0.1287,-0.1845,-0.2571,-0.2822,-0.3436,-0.4318,-0.4764,-0.5091,-0.5353,-0.537,-0.5321,-0.5335,-0.5335,-0.5501,-0.5742,-0.5633,-0.6403,-0.758,-0.7789,-0.8626,-0.9782,-1.087,-1.1254,-1.1329,-1.2003,-1.2224,-1.2224,-1.2305,-1.2305,-1.2305,-1.2305,-1.2305,-1.2305,-1.2378,-1.2526,-1.2746,-1.3185,-1.4832,-1.6237,-1.6061,-1.6982,-1.8027,-1.8984,-1.8838,-1.8494,-1.8494,-1.8494,-1.8437,-1.8066,-1.8008,-1.8643,-2.0256,-2.0512,-2.0927,-2.201,-2.2133,-2.1907,-2.1343,-2.0853,-2.1419,-2.3399,-2.2948,-2.3467,-2.5418,-2.5435,-2.539,-2.539,-2.4852,-2.4876,-2.5472,-2.6703,-2.8208,-2.9914,-3.0779,-3.1157,0.0,0.0,0.0,0.0,0.0,0.0,-0.0168,-0.0224,-0.0391,0.0,0.0,0.0,0.0,0.0,0.0,0.0,0.0,0.0,0.0,0.0,0.0,0.0,0.0,0.0,0.0,0.2556,0.3463,0.3503,0.399,0.3722,0.231,0.1976,0.124,0.0056,-0.0112,-0.0336,-0.0729,-0.0841,-0.1121,-0.1569,-0.1916,-0.2435,-0.3249,-0.3706,-0.4252,-0.483,-0.4952,-0.507,-0.5176,-0.5176,-0.5284,-0.5457,-0.5552,-0.578,-0.6164,-0.7215,-0.7777,-0.8161,-0.9675,-1.0196,-1.0346,-1.1254,-1.1558,-1.1706,-1.215,-1.2305,-1.2305,-1.2305,-1.2305,-1.2378,-1.2673,-1.2826,-1.3039,-1.3882,-1.4402,-1.5046,-1.6228,-1.6383,-1.6717,-1.8007,-1.8193,-1.8135,-1.8135,-1.8135,-1.8105,-1.8018,-1.8008,-1.8455,-1.9717,-1.9923,-2.0208,-2.0926,-2.0991,-2.0752,-2.0175,-2.0037,-2.081,-2.2752,-2.2235,-2.2753,-2.4686,-2.4283,-2.3984,-2.3984,-2.4307,-2.4714,-2.5274,-2.6695,-2.781,-2.8616,-3.0393,-3.0886,0.0,0.0,0.0,0.0,0.0,0.0,0.0,0.0,-0.0112,0.0,0.0,0.0,0.0,0.0,0.0,0.0,0.0,0.0,0.0,0.0,0.0,0.0,0.0,0.0,0.0,0.1789,0.2567,0.325,0.3871,0.3744,0.2681,0.2237,0.1512,0.0505,0.0168,-0.0112,-0.0336,-0.0336,-0.0561,-0.101,-0.1287,-0.1805,-0.2466,-0.3029,-0.3431,-0.3849,-0.4156,-0.4307,-0.4304,-0.4693,-0.4894,-0.5033,-0.5376,-0.5566,-0.5775,-0.6552,-0.6909,-0.722,-0.8575,-0.9125,-0.9362,-1.0421,-1.0944,-1.1248,-1.1855,-1.215,-1.2271,-1.2124,-1.2191,-1.2378,-1.2526,-1.2599,-1.2705,-1.3265,-1.3712,-1.4269,-1.5238,-1.5573,-1.5977,-1.6938,-1.712,-1.7197,-1.7628,-1.7695,-1.7627,-1.7402,-1.7373,-1.773,-1.8717,-1.9177,-1.9618,-2.0116,-2.049,-2.0439,-1.9849,-1.9798,-2.0361,-2.1641,-2.1746,-2.2273,-2.3596,-2.3599,-2.3595,-2.3595,-2.3879,-2.4282,-2.4776,-2.6198,-2.7248,-2.8039,-2.9437,-3.0091,0.0,0.0,0.0,0.0,0.0,0.0392,0.0,0.0,0.0,0.0,0.0,0.0,0.0,0.0,0.0,0.0,0.0,0.0,0.0,0.0,0.0,0.0,0.0,0.0,0.0,0.1146,0.1847,0.3138,0.3875,0.3901,0.3101,0.2508,0.1792,0.0954,0.0449,0.0112,0.0,0.0,-0.0168,-0.0561,-0.0784,-0.1191,-0.1864,-0.2327,-0.2604,-0.2808,-0.3252,-0.3369,-0.3345,-0.4082,-0.4403,-0.4558,-0.516,-0.5508,-0.5775,-0.6029,-0.6231,-0.6537,-0.7513,-0.7943,-0.825,-0.9451,-1.0226,-1.0926,-1.1489,-1.1924,-1.2158,-1.1864,-1.1951,-1.2131,-1.2131,-1.2131,-1.215,-1.2269,-1.2829,-1.3447,-1.386,-1.4478,-1.5126,-1.5921,-1.6008,-1.6262,-1.7106,-1.7256,-1.7139,-1.6787,-1.6665,-1.7004,-1.7747,-1.8392,-1.8892,-1.9373,-1.9939,-2.0195,-1.9836,-1.9798,-2.0054,-2.0588,-2.1322,-2.1937,-2.2521,-2.3216,-2.3595,-2.3595,-2.3595,-2.3879,-2.4389,-2.556,-2.6553,-2.7481,-2.8516,-2.9228,0.0,0.0,0.0,0.0,0.1952,0.0,0.0,0.0,0.0,0.0,0.0,0.0,0.0,0.0,0.0,0.0,0.0,0.0,0.0,0.0,0.0,0.0,0.0,0.0,0.0,0.0,0.2343,0.3092,0.3981,0.402,0.2994,0.2968,0.235,0.0954,0.0842,0.0561,0.0,0.0,0.0,-0.0056,-0.0112,-0.0505,-0.1181,-0.1292,-0.1658,-0.2299,-0.2366,-0.2627,-0.3081,-0.335,-0.367,-0.4161,-0.5027,-0.5449,-0.5494,-0.5614,-0.5679,-0.5797,-0.6425,-0.666,-0.6951,-0.8056,-0.9501,-1.0896,-1.1263,-1.1631,-1.1857,-1.1557,-1.1496,-1.1523,-1.1523,-1.1523,-1.1516,-1.1552,-1.1614,-1.195,-1.2833,-1.2925,-1.3364,-1.5248,-1.5369,-1.5573,-1.6612,-1.6807,-1.6787,-1.6738,-1.6665,-1.6832,-1.7259,-1.7375,-1.7756,-1.8696,-1.8863,-1.9158,-1.9759,-1.9798,-1.9889,-2.007,-2.1091,-2.1801,-2.1975,-2.3023,-2.3595,-2.3595,-2.3595,-2.3879,-2.4389,-2.5013,-2.5616,-2.6234,-2.8118,-2.8653,0.0,0.0,0.0,0.0,0.0,0.0,0.1786,0.0,0.1675,0.0,0.0,0.0,0.0,0.0,0.0,0.0,0.0,0.0,0.0,0.0,0.0,0.0,0.0,0.0,0.0,0.0,0.0,0.0,0.0,0.4232,0.3559,0.3237,0.2629,0.1568,0.1121,0.0617,0.0,0.0,0.0,0.0,0.0,-0.0168,-0.0448,-0.0616,-0.0798,-0.1058,-0.1378,-0.161,-0.1741,-0.229,-0.2786,-0.3355,-0.4159,-0.4694,-0.5113,-0.5463,-0.5589,-0.561,-0.5965,-0.612,-0.6417,-0.7559,-0.8837,-1.0014,-1.0337,-1.0905,-1.1279,-1.1188,-1.1296,-1.1423,-1.1423,-1.1423,-1.1383,-1.1209,-1.1303,-1.157,-1.1902,-1.2058,-1.2447,-1.3671,-1.4161,-1.4542,-1.5299,-1.5927,-1.626,-1.6006,-1.5967,-1.6018,-1.6117,-1.6648,-1.7115,-1.755,-1.8052,-1.8561,-1.8833,-1.9171,-1.9346,-1.94,-2.0873,-2.1881,-2.2364,-2.3142,-2.3595,-2.3595,-2.3595,-2.3879,-2.4389,-2.4632,-2.5182,-2.603,-2.7142,-2.7706,0.4545,0.0,0.0,0.0,0.0,0.0,0.0,0.0,0.0,0.0,0.0,0.0,0.0,0.0,0.0,0.0,0.0,0.0,0.0,0.0,0.0,0.0,0.0,0.0,0.0,0.0,0.0,0.1716,0.3208,0.405,0.3721,0.333,0.274,0.2015,0.1289,0.0617,0.0,0.0,0.0,0.0,0.0,0.0,0.0,-0.0224,-0.023,-0.0179,-0.055,-0.0694,-0.0785,-0.1332,-0.1879,-0.2418,-0.3086,-0.3756,-0.4436,-0.5209,-0.5525,-0.5542,-0.5644,-0.5806,-0.6138,-0.7195,-0.8173,-0.8935,-0.9276,-0.9956,-1.0592,-1.058,-1.0824,-1.1189,-1.1189,-1.1189,-1.1136,-1.0922,-1.107,-1.12,-1.1135,-1.133,-1.1775,-1.2457,-1.3082,-1.3757,-1.4396,-1.5257,-1.5781,-1.5459,-1.5312,-1.5283,-1.54,-1.5794,-1.6169,-1.6512,-1.719,-1.7738,-1.7954,-1.8471,-1.8843,-1.9012,-2.0134,-2.1185,-2.2176,-2.2629,-2.3018,-2.334,-2.334,-2.3628,-2.4184,-2.4307,-2.4871,-2.5799,-2.6297,-2.6876,0.0,0.0,0.0,0.5993,0.0,0.0,0.0,0.0,0.3121,0.0,0.0,0.0,0.0,0.0,0.0,0.0,0.0,0.0,0.0,0.0,0.0,0.0,0.0,0.0,0.0,0.0,0.0,0.0957,0.2421,0.3194,0.2931,0.3018,0.274,0.2015,0.1289,0.0617,0.0,0.0,0.0,0.0,0.0,0.0,0.0,0.0,0.0,0.0,0.0,-0.0191,-0.0537,-0.0739,-0.1008,-0.1412,-0.1946,-0.2614,-0.3416,-0.4625,-0.5229,-0.5435,-0.5439,-0.5566,-0.5906,-0.6648,-0.733,-0.7854,-0.8054,-0.891,-0.9845,-0.9486,-0.9938,-1.0651,-1.0651,-1.0651,-1.0651,-1.0638,-1.0638,-1.0638,-1.0638,-1.0758,-1.1059,-1.1841,-1.265,-1.3502,-1.435,-1.501,-1.543,-1.541,-1.5068,-1.4951,-1.5361,-1.4678,-1.462,-1.5783,-1.6107,-1.6528,-1.7278,-1.7858,-1.8486,-1.9067,-1.8671,-1.9193,-2.0907,-2.0978,-2.1532,-2.2697,-2.2753,-2.3038,-2.3638,-2.4158,-2.4657,-2.5259,-2.5762,-2.6279,0.0,0.0,0.6723,0.6488,0.0,0.0,0.0,0.0,0.0,0.0,0.0,0.0,0.0,0.0,0.0,0.0,0.0,0.0,0.0,0.0,0.0,0.0,0.0,0.0,0.0,0.0,0.0,0.092,0.1929,0.2483,0.2319,0.2801,0.2571,0.1454,0.1567,0.112,0.0,0.0,0.0,0.0,0.0,0.0,0.0,0.0,0.0,0.0,0.0,-0.0064,-0.0202,-0.0269,-0.0538,-0.1008,-0.1344,-0.1879,-0.2621,-0.3895,-0.4557,-0.4906,-0.5132,-0.5434,-0.5772,-0.6169,-0.6584,-0.6948,-0.7296,-0.7803,-0.8292,-0.8398,-0.9069,-0.9722,-0.9722,-1.0174,-1.0624,-1.0624,-1.0624,-1.0624,-1.0624,-1.0624,-1.0744,-1.117,-1.16,-1.2294,-1.3442,-1.3997,-1.4468,-1.4943,-1.4873,-1.4727,-1.458,-1.4413,-1.444,-1.484,-1.5423,-1.5892,-1.6168,-1.7094,-1.7895,-1.8469,-1.8734,-1.926,-2.0217,-2.0668,-2.1474,-2.2667,-2.2724,-2.2981,-2.3595,-2.3794,-2.4307,-2.5205,-2.5373,-2.5908,0.7548,0.7576,0.0,0.7214,0.7079,0.0,0.6642,0.0,0.0,0.0,0.0,0.0,0.0,0.0,0.0,0.0,0.0,0.0,0.0,0.3231,0.0,0.0,0.0,0.0,0.0,0.0,0.0898,0.0599,0.1559,0.2089,0.0,0.0,0.2122,0.1507,0.1621,0.1231,0.0336,0.0616,0.0727,0.0616,0.0448,0.0504,0.0616,0.0168,0.0115,0.0303,0.0123,0.0,0.0,0.0,-0.0202,-0.0538,-0.0673,-0.1143,-0.1883,-0.3008,-0.3743,-0.43,-0.4787,-0.5124,-0.5408,-0.5591,-0.5915,-0.6227,-0.6483,-0.689,-0.7291,-0.7687,-0.8424,-0.9028,-0.925,-0.979,-1.0295,-1.0295,-1.0491,-1.0624,-1.0624,-1.0481,-1.0497,-1.0724,-1.0998,-1.144,-1.2446,-1.3154,-1.3867,-1.4644,-1.4658,-1.4453,-1.4116,-1.3962,-1.3899,-1.4052,-1.4791,-1.5454,-1.5864,-1.6628,-1.7225,-1.7576,-1.8137,-1.8712,-1.9266,-1.9874,-2.0991,-2.2652,-2.2484,-2.2877,-2.3969,-2.3915,-2.4348,-2.5205,-2.5411,-2.5908]}]]